[[{"header":{"parameterUnit":"m.s-1","parameterCategory":1,"la1":30.6,"la2":28.766,"lo1":-90.7593,"lo2":-88.6598,"dy":0.0162,"dx":0.0183,"nx":116,"ny":114,"refTime":"2023-03-22T06:00:00:Z","depth":0,"parameterNumber":2,"parameterNumberName":"U-component_of_WINDS"},"data":[0.0,0.0,0.0,0.0,0.0,0.0,0.0,0.0,0.0,0.0,0.0,0.0,0.0,0.0,0.0,0.0,0.0,0.0,0.0,0.0,0.0,0.0,0.0,0.0,0.0,0.0,0.0,0.0,0.0,0.0,0.0,0.0,0.0,0.0,0.0,0.0,0.0,0.0,0.0,0.0,0.0,0.0,0.0,0.0,0.0,0.0,0.0,0.0,0.0,0.0,0.0,0.0,0.0,0.0,0.0,0.0,0.0,0.0,0.0,0.0,0.0,0.0,0.0,0.0,0.0,0.0,0.0,0.0,0.0,0.0,0.0,0.0,0.0,0.0,0.0,0.0,0.0,0.0,0.0,0.0,0.0,0.0,0.0,0.0,0.0,0.0,0.0,0.0,0.0,0.0,0.0,0.0,0.0,0.0,0.0,0.0,0.0,0.0,0.0,0.0,0.0,0.0,0.0,0.0,0.0,0.0,0.0,0.0,0.0,0.0,0.0,0.0,0.0,0.0,0.0,0.0,0.0,0.0,0.0,0.0,0.0,0.0,0.0,0.0,0.0,0.0,0.0,0.0,0.0,0.0,0.0,0.0,0.0,0.0,0.0,0.0,0.0,0.0,0.0,0.0,0.0,0.0,0.0,0.0,0.0,0.0,0.0,0.0,0.0,0.0,0.0,0.0,0.0,0.0,0.0,0.0,0.0,0.0,0.0,0.0,0.0,0.0,0.0,0.0,0.0,0.0,0.0,0.0,0.0,0.0,0.0,0.0,0.0,0.0,0.0,0.0,0.0,0.0,0.0,0.0,0.0,0.0,0.0,0.0,0.0,0.0,0.0,0.0,0.0,0.0,0.0,0.0,0.0,0.0,0.0,0.0,0.0,0.0,0.0,0.0,0.0,0.0,0.0,0.0,0.0,0.0,0.0,0.0,0.0,0.0,0.0,0.0,0.0,0.0,0.0,0.0,0.0,0.0,0.0,0.0,0.0,0.0,0.0,0.0,0.0,0.0,0.0,0.0,0.0,0.0,0.0,0.0,0.0,0.0,0.0,0.0,0.0,0.0,0.0,0.0,0.0,0.0,0.0,0.0,0.0,0.0,0.0,0.0,0.0,0.0,0.0,0.0,0.0,0.0,0.0,0.0,0.0,0.0,0.0,0.0,0.0,0.0,0.0,0.0,0.0,0.0,0.0,0.0,0.0,0.0,0.0,0.0,0.0,0.0,0.0,0.0,0.0,0.0,0.0,0.0,0.0,0.0,0.0,0.0,0.0,0.0,0.0,0.0,0.0,0.0,0.0,0.0,0.0,0.0,0.0,0.0,0.0,0.0,0.0,0.0,0.0,0.0,0.0,0.0,0.0,0.0,0.0,0.0,0.0,0.0,0.0,0.0,0.0,0.0,0.0,0.0,0.0,0.0,0.0,0.0,0.0,0.0,0.0,0.0,0.0,0.0,0.0,0.0,0.0,0.0,0.0,0.0,0.0,0.0,0.0,0.0,0.0,0.0,0.0,0.0,0.0,0.0,0.0,0.0,0.0,0.0,0.0,0.0,0.0,0.0,0.0,0.0,0.0,0.0,0.0,0.0,0.0,0.0,0.0,0.0,0.0,0.0,0.0,0.0,0.0,0.0,0.0,0.0,0.0,0.0,0.0,0.0,0.0,0.0,0.0,0.0,0.0,0.0,0.0,0.0,0.0,0.0,0.0,0.0,0.0,0.0,0.0,0.0,0.0,0.0,0.0,0.0,0.0,0.0,0.0,0.0,0.0,0.0,0.0,0.0,0.0,0.0,0.0,0.0,0.0,0.0,0.0,0.0,0.0,0.0,0.0,0.0,0.0,0.0,0.0,0.0,0.0,0.0,0.0,0.0,0.0,0.0,0.0,0.0,0.0,0.0,0.0,0.0,0.0,0.0,0.0,0.0,0.0,0.0,0.0,0.0,0.0,0.0,0.0,0.0,0.0,0.0,0.0,0.0,0.0,0.0,0.0,0.0,0.0,0.0,0.0,0.0,0.0,0.0,0.0,0.0,0.0,0.0,0.0,0.0,0.0,0.0,0.0,0.0,0.0,0.0,0.0,0.0,0.0,0.0,0.0,0.0,0.0,0.0,0.0,0.0,0.0,0.0,0.0,0.0,0.0,0.0,0.0,0.0,0.0,0.0,0.0,0.0,0.0,0.0,0.0,0.0,0.0,0.0,0.0,0.0,0.0,0.0,0.0,0.0,0.0,0.0,0.0,0.0,0.0,0.0,0.0,0.0,0.0,0.0,0.0,0.0,0.0,0.0,0.0,0.0,0.0,0.0,0.0,0.0,0.0,0.0,0.0,0.0,0.0,0.0,0.0,0.0,0.0,0.0,0.0,0.0,0.0,0.0,0.0,0.0,0.0,0.0,0.0,0.0,0.0,0.0,0.0,0.0,0.0,0.0,0.0,0.0,0.0,0.0,0.0,0.0,0.0,0.0,0.0,0.0,0.0,0.0,0.0,0.0,0.0,0.0,0.0,0.0,0.0,0.0,0.0,0.0,0.0,0.0,0.0,0.0,0.0,0.0,0.0,0.0,0.0,0.0,0.0,0.0,0.0,0.0,0.0,0.0,0.0,0.0,0.0,0.0,0.0,0.0,0.0,0.0,0.0,0.0,0.0,0.0,0.0,0.0,0.0,0.0,0.0,0.0,0.0,0.0,0.0,0.0,0.0,0.0,0.0,0.0,0.0,0.0,0.0,0.0,0.0,0.0,0.0,0.0,0.0,0.0,0.0,0.0,0.0,0.0,0.0,0.0,0.0,0.0,0.0,0.0,0.0,0.0,0.0,0.0,0.0,0.0,0.0,0.0,0.0,0.0,0.0,0.0,0.0,0.0,0.0,0.0,0.0,0.0,0.0,0.0,0.0,0.0,0.0,0.0,0.0,0.0,0.0,0.0,0.0,0.0,0.0,0.0,0.0,0.0,0.0,0.0,0.0,0.0,0.0,0.0,0.0,0.0,0.0,0.0,0.0,0.0,0.0,0.0,0.0,0.0,0.0,0.0,0.0,0.0,0.0,0.0,0.0,0.0,0.0,0.0,0.0,0.0,0.0,0.0,0.0,0.0,0.0,0.0,0.0,0.0,0.0,0.0,0.0,0.0,0.0,0.0,0.0,0.0,0.0,0.0,0.0,0.0,0.0,0.0,0.0,0.0,0.0,0.0,0.0,0.0,0.0,0.0,0.0,0.0,0.0,0.0,0.0,0.0,0.0,0.0,0.0,0.0,0.0,0.0,0.0,0.0,0.0,0.0,0.0,0.0,0.0,0.0,0.0,0.0,0.0,0.0,0.0,0.0,0.0,0.0,0.0,0.0,0.0,0.0,0.0,0.0,0.0,0.0,0.0,0.0,0.0,0.0,0.0,0.0,0.0,0.0,0.0,0.0,0.0,0.0,0.0,0.0,0.0,0.0,0.0,0.0,0.0,0.0,0.0,0.0,0.0,0.0,0.0,0.0,0.0,0.0,0.0,0.0,0.0,0.0,0.0,0.0,0.0,0.0,0.0,0.0,0.0,0.0,0.0,0.0,0.0,0.0,0.0,0.0,0.0,0.0,0.0,0.0,0.0,0.0,0.0,0.0,0.0,0.0,0.0,0.0,0.0,0.0,0.0,0.0,0.0,0.0,0.0,0.0,0.0,0.0,0.0,0.0,0.0,0.0,0.0,0.0,0.0,0.0,0.0,0.0,0.0,0.0,0.0,0.0,0.0,0.0,0.0,0.0,0.0,0.0,0.0,0.0,0.0,0.0,0.0,0.0,0.0,0.0,0.0,0.0,0.0,0.0,0.0,0.0,0.0,0.0,0.0,0.0,0.0,0.0,0.0,0.0,0.0,0.0,0.0,0.0,0.0,0.0,0.0,0.0,0.0,0.0,0.0,0.0,0.0,0.0,0.0,0.0,0.0,0.0,0.0,0.0,0.0,0.0,0.0,0.0,0.0,0.0,0.0,0.0,0.0,0.0,0.0,0.0,0.0,0.0,0.0,0.0,0.0,0.0,0.0,0.0,0.0,0.0,0.0,0.0,0.0,0.0,0.0,0.0,0.0,0.0,0.0,0.0,0.0,0.0,0.0,0.0,0.0,0.0,0.0,0.0,0.0,0.0,0.0,0.0,0.0,0.0,0.0,0.0,0.0,0.0,0.0,0.0,0.0,0.0,0.0,0.0,0.0,0.0,0.0,0.0,0.0,0.0,0.0,0.0,0.0,0.0,0.0,0.0,0.0,0.0,0.0,0.0,0.0,0.0,0.0,0.0,0.0,0.0,0.0,0.0,0.0,0.0,0.0,0.0,0.0,0.0,0.0,0.0,0.0,0.0,0.0,0.0,0.0,0.0,0.0,0.0,0.0,0.0,0.0,0.0,0.0,0.0,0.0,0.0,0.0,0.0,0.0,0.0,0.0,0.0,0.0,0.0,0.0,0.0,0.0,0.0,0.0,0.0,0.0,0.0,0.0,0.0,0.0,0.0,0.0,0.0,0.0,0.0,0.0,0.0,0.0,0.0,0.0,0.0,0.0,0.0,0.0,0.0,0.0,0.0,0.0,0.0,0.0,0.0,0.0,0.0,0.0,0.0,0.0,0.0,0.0,0.0,0.0,0.0,0.0,0.0,0.0,0.0,0.0,0.0,0.0,0.0,0.0,0.0,0.0,0.0,0.0,0.0,0.0,0.0,0.0,0.0,0.0,0.0,0.0,0.0,0.0,0.0,0.0,0.0,0.0,0.0,0.0,0.0,0.0,0.0,0.0,0.0,0.0,0.0,0.0,0.0,0.0,0.0,0.0,0.0,0.0,0.0,0.0,0.0,0.0,0.0,0.0,0.0,0.0,0.0,0.0,0.0,0.0,0.0,0.0,0.0,0.0,0.0,0.0,0.0,0.0,0.0,0.0,0.0,0.0,0.0,0.0,0.0,0.0,0.0,0.0,0.0,0.0,0.0,0.0,0.0,0.0,0.0,0.0,0.0,0.0,0.0,0.0,0.0,0.0,0.0,0.0,0.0,0.0,0.0,0.0,0.0,0.0,0.0,0.0,0.0,0.0,0.0,0.0,0.0,0.0,0.0,0.0,0.0,0.0,0.0,0.0,0.0,0.0,0.0,0.0,0.0,0.0,0.0,0.0,0.0,0.0,0.0,0.0,0.0,0.0,0.0,0.0,0.0,0.0,0.0,0.0,0.0,0.0,0.0,0.0,0.0,0.0,0.0,0.0,0.0,0.0,0.0,0.0,0.0,0.0,0.0,0.0,0.0,0.0,0.0,0.0,0.0,0.0,0.0,0.0,0.0,0.0,0.0,0.0,0.0,0.0,0.0,0.0,0.0,0.0,0.0,0.0,0.0,0.0,0.0,0.0,0.0,0.0,0.0,0.0,0.0,0.0,0.0,0.0,0.0,0.0,0.0,0.0,0.0,0.0,0.0,0.0,0.0,0.0,0.0,0.0,0.0,0.0,0.0,0.0,0.0,0.0,0.0,0.0,0.0,0.0,0.0,0.0,0.0,0.0,0.0,0.0,0.0,0.0,0.0,0.0,0.0,0.0,0.0,0.0,0.0,0.0,0.0,0.0,0.0,0.0,0.0,0.0,0.0,0.0,0.0,0.0,0.0,0.0,0.0,0.0,0.0,0.0,0.0,0.0,0.0,0.0,0.0,0.0,0.0,0.0,0.0,0.0,0.0,0.0,0.0,0.0,0.0,0.0,0.0,0.0,0.0,0.0,0.0,0.0,0.0,0.0,0.0,0.0,0.0,0.0,0.0,0.0,0.0,0.0,0.0,0.0,0.0,0.0,0.0,0.0,0.0,0.0,0.0,0.0,0.0,0.0,0.0,0.0,0.0,0.0,0.0,0.0,0.0,0.0,0.0,0.0,0.0,0.0,0.0,0.0,0.0,0.0,0.0,0.0,0.0,0.0,0.0,0.0,0.0,0.0,0.0,0.0,0.0,0.0,0.0,0.0,0.0,0.0,0.0,0.0,0.0,0.0,0.0,0.0,0.0,0.0,0.0,0.0,0.0,0.0,0.0,0.0,0.0,0.0,0.0,0.0,0.0,0.0,0.0,0.0,0.0,0.0,0.0,0.0,0.0,0.0,0.0,0.0,0.0,-5.9378,0.0,0.0,0.0,0.0,0.0,0.0,0.0,0.0,0.0,0.0,0.0,0.0,0.0,0.0,0.0,0.0,0.0,0.0,0.0,0.0,0.0,0.0,0.0,0.0,0.0,0.0,0.0,0.0,0.0,0.0,0.0,0.0,0.0,0.0,0.0,0.0,0.0,0.0,0.0,-4.517,-4.5192,-4.5211,-4.5479,-4.6516,-4.8169,0.0,0.0,0.0,0.0,0.0,0.0,0.0,0.0,0.0,0.0,0.0,0.0,0.0,0.0,0.0,0.0,0.0,0.0,0.0,0.0,0.0,0.0,0.0,0.0,0.0,0.0,0.0,0.0,0.0,0.0,0.0,0.0,0.0,0.0,0.0,0.0,0.0,0.0,0.0,0.0,0.0,0.0,0.0,0.0,0.0,0.0,0.0,0.0,0.0,0.0,0.0,0.0,0.0,0.0,0.0,0.0,0.0,0.0,0.0,0.0,0.0,0.0,0.0,0.0,0.0,0.0,0.0,0.0,0.0,0.0,0.0,-5.936,0.0,0.0,0.0,0.0,0.0,0.0,0.0,0.0,0.0,0.0,0.0,0.0,0.0,0.0,0.0,0.0,0.0,0.0,0.0,0.0,0.0,0.0,0.0,0.0,-4.912,-4.9153,-4.8357,0.0,0.0,0.0,0.0,0.0,0.0,0.0,0.0,0.0,0.0,0.0,-4.5254,-4.5307,-4.5307,-4.5307,-4.6042,-4.7398,-4.8258,0.0,0.0,0.0,0.0,0.0,0.0,0.0,0.0,0.0,0.0,0.0,0.0,0.0,0.0,0.0,0.0,0.0,0.0,0.0,0.0,0.0,0.0,0.0,0.0,0.0,0.0,0.0,0.0,0.0,0.0,0.0,0.0,0.0,0.0,0.0,0.0,0.0,0.0,0.0,0.0,0.0,0.0,0.0,0.0,0.0,0.0,0.0,0.0,0.0,0.0,0.0,0.0,0.0,0.0,0.0,0.0,0.0,0.0,0.0,0.0,0.0,0.0,0.0,-6.0439,-6.0412,-6.0403,-6.0403,-6.0403,-6.0389,-6.0049,-5.9874,-5.9741,-5.9084,0.0,0.0,0.0,0.0,0.0,0.0,0.0,0.0,0.0,0.0,0.0,0.0,0.0,0.0,0.0,0.0,0.0,0.0,0.0,0.0,0.0,-4.9389,-4.9169,-4.9349,-4.8362,-4.7376,0.0,0.0,0.0,0.0,0.0,0.0,0.0,-4.5061,-4.5159,-4.5256,-4.5297,-4.5307,-4.5307,-4.5307,-4.5422,-4.566,-4.6481,-4.7398,-4.8361,0.0,0.0,0.0,0.0,0.0,0.0,0.0,0.0,0.0,0.0,0.0,0.0,0.0,0.0,0.0,0.0,0.0,0.0,0.0,0.0,0.0,0.0,0.0,0.0,0.0,0.0,0.0,0.0,0.0,0.0,0.0,0.0,0.0,0.0,0.0,0.0,0.0,0.0,0.0,0.0,0.0,-5.7019,-5.8128,0.0,0.0,0.0,0.0,0.0,0.0,0.0,0.0,0.0,0.0,0.0,0.0,0.0,-5.9721,-5.9721,-6.0483,-6.0762,-6.0571,-6.0571,-6.0501,-6.0403,-6.0403,-6.0403,-6.0389,-6.0328,0.0,-5.9791,-5.9692,0.0,0.0,0.0,0.0,0.0,0.0,0.0,0.0,0.0,0.0,0.0,0.0,0.0,0.0,0.0,0.0,0.0,0.0,0.0,0.0,0.0,-4.9841,-4.9703,-4.9797,-4.9339,-4.8654,-4.7744,0.0,0.0,0.0,0.0,0.0,0.0,-4.5875,-4.6159,-4.671,-4.671,-4.6443,-4.5965,-4.5965,-4.5736,-4.5326,-4.571,-4.6322,-4.7131,-4.8009,0.0,0.0,0.0,0.0,0.0,0.0,0.0,0.0,0.0,0.0,0.0,0.0,0.0,0.0,0.0,0.0,0.0,0.0,0.0,0.0,0.0,0.0,0.0,0.0,0.0,0.0,0.0,0.0,0.0,0.0,0.0,0.0,0.0,0.0,0.0,0.0,0.0,0.0,0.0,-5.7754,-5.8185,-5.8433,-5.8365,-5.8122,0.0,0.0,0.0,0.0,0.0,0.0,0.0,0.0,0.0,-5.8442,-5.8838,-5.9031,-5.9031,-5.9427,-5.9705,-5.9936,-5.9936,-6.0093,-6.0403,-6.0403,-6.0403,-6.0403,-6.0403,-6.0299,-6.0114,-5.989,-5.9588,-5.9252,0.0,0.0,0.0,0.0,-5.819,-5.7997,0.0,0.0,0.0,0.0,0.0,0.0,0.0,0.0,0.0,0.0,0.0,0.0,-5.0207,-5.0145,-5.0095,-5.0095,-5.007,-4.967,-4.8732,-4.8802,0.0,0.0,0.0,0.0,-4.6767,-4.6819,-4.7139,-4.7788,-4.7788,-4.7463,-4.6844,-4.6844,-4.6396,-4.5634,-4.5675,-4.5894,-4.6254,-4.6915,-4.7824,-4.899,0.0,0.0,0.0,0.0,0.0,0.0,0.0,0.0,0.0,0.0,0.0,0.0,0.0,0.0,0.0,0.0,0.0,0.0,0.0,0.0,0.0,0.0,0.0,0.0,0.0,0.0,0.0,0.0,0.0,0.0,0.0,0.0,0.0,0.0,0.0,0.0,0.0,-5.8627,-5.8618,-5.8372,-5.8022,-5.7544,0.0,0.0,0.0,0.0,0.0,0.0,-5.6866,-5.6905,-5.7239,-5.7998,-5.823,-5.8346,-5.8346,-5.854,-5.8827,-5.9199,-5.9154,-5.9381,-5.9821,-5.9996,-6.0064,-6.0083,-6.0293,-6.0403,-6.0375,-6.0084,-5.989,-5.9774,-5.9467,-5.9046,-5.8607,-5.8607,-5.8348,-5.7997,0.0,0.0,0.0,0.0,0.0,0.0,0.0,0.0,0.0,0.0,0.0,-5.007,-4.992,-5.0031,-5.0095,-5.0095,-4.9992,-4.9618,-4.8928,-4.8833,-4.8433,-4.7627,-4.7674,-4.772,-4.772,-4.7731,-4.775,-4.7788,-4.7788,-4.7769,-4.7731,-4.7731,-4.7305,-4.6536,-4.6546,-4.6144,-4.5465,-4.5486,-4.6502,-4.8121,-4.9022,0.0,0.0,0.0,0.0,0.0,0.0,0.0,0.0,0.0,0.0,0.0,0.0,0.0,0.0,0.0,0.0,0.0,0.0,0.0,0.0,0.0,0.0,0.0,0.0,0.0,0.0,0.0,0.0,0.0,0.0,0.0,0.0,0.0,0.0,0.0,0.0,0.0,0.0,-5.7644,-5.69,0.0,0.0,0.0,0.0,-5.6278,-5.6278,-5.6298,-5.6337,-5.6337,-5.6356,-5.6401,-5.7217,-5.7651,-5.7651,-5.8402,-5.8746,-5.8639,-5.851,-5.8377,-5.8242,-5.8884,-5.9185,-5.921,-6.0026,-6.0403,-6.0389,-6.0375,-6.0144,-5.9791,-5.9774,-5.9288,-5.8607,-5.8607,-5.8348,-5.7997,0.0,0.0,0.0,0.0,0.0,0.0,0.0,0.0,0.0,-5.0231,-5.0158,-5.012,-5.0139,-5.0133,-5.0133,-5.0219,-5.0194,-5.0061,-4.9823,-4.9773,-4.9639,-4.9346,-4.8884,-4.864,-4.864,-4.864,-4.8888,-4.9404,-4.9404,-4.9137,-4.864,-4.8635,-4.8209,-4.7437,-4.7518,-4.7088,-4.6263,-4.5659,-4.5764,-4.6493,-4.8388,-4.9701,0.0,0.0,0.0,0.0,0.0,0.0,0.0,0.0,0.0,0.0,0.0,0.0,0.0,0.0,0.0,0.0,0.0,0.0,0.0,0.0,0.0,0.0,0.0,0.0,0.0,0.0,0.0,0.0,0.0,0.0,0.0,0.0,0.0,0.0,0.0,0.0,0.0,-5.7567,-5.6842,0.0,-5.6291,-5.6291,-5.6291,-5.6291,-5.6291,-5.6291,-5.6291,-5.6291,-5.6291,-5.6291,-5.6602,-5.6758,-5.6758,-5.7049,-5.7383,-5.7755,-5.7632,-5.7741,-5.8119,-5.8266,-5.8326,-5.8345,-5.8651,-5.8784,-5.8822,-5.9357,-5.9817,-6.0159,-5.9906,-5.9467,-5.895,-5.871,-5.8348,-5.7997,0.0,0.0,0.0,0.0,0.0,0.0,0.0,0.0,-5.0207,-5.012,-5.007,-5.007,-5.017,-5.0133,-5.0158,-5.029,-5.0302,-5.0302,-5.0302,-5.0302,-5.0302,-5.0302,-4.9786,-4.95,-4.95,-4.95,-4.9767,-5.0302,-5.0302,-5.0046,-4.9534,-4.9529,-4.9113,-4.839,-4.848,-4.8039,-4.7184,-4.6292,-4.5745,-4.5659,-4.7844,-4.913,-4.9996,0.0,0.0,0.0,0.0,0.0,0.0,0.0,0.0,0.0,0.0,0.0,0.0,0.0,0.0,0.0,0.0,0.0,0.0,0.0,0.0,0.0,0.0,0.0,0.0,0.0,0.0,0.0,0.0,0.0,0.0,0.0,0.0,0.0,0.0,0.0,-5.7303,-5.7567,-5.6842,-5.6291,-5.6291,-5.6291,-5.6291,-5.6291,-5.6291,-5.6291,-5.6291,-5.6291,-5.6291,-5.6291,-5.6291,-5.6291,-5.6291,-5.6291,-5.653,-5.6967,-5.6771,-5.6886,-5.7327,-5.7424,-5.7466,-5.7485,-5.7772,-5.7905,-5.7944,-5.8479,-5.9033,-5.9559,-5.9728,-5.9641,-5.9343,-5.8792,-5.8415,-5.8186,0.0,0.0,0.0,0.0,0.0,0.0,0.0,-5.0057,-4.9967,-4.9698,-4.9778,-4.9874,-4.9893,-5.0031,-5.0158,-5.029,-5.0302,-5.0302,-5.0302,-5.0302,-5.0302,-5.0302,-5.0302,-5.0302,-5.0302,-5.0302,-5.0302,-5.0302,-5.0302,-5.0337,-5.0401,-5.0412,-5.0027,-4.9345,-4.9345,-4.8894,-4.8086,-4.7269,-4.6451,-4.5817,-4.7376,-4.9058,-5.0827,0.0,0.0,0.0,0.0,0.0,0.0,0.0,0.0,0.0,0.0,0.0,0.0,0.0,0.0,0.0,0.0,0.0,0.0,0.0,0.0,0.0,0.0,0.0,0.0,0.0,0.0,0.0,0.0,0.0,0.0,0.0,0.0,0.0,-5.9854,-5.8552,-5.7599,-5.7561,-5.6816,-5.6291,-5.6291,-5.6291,-5.6291,-5.6291,-5.6291,-5.6291,-5.6291,-5.6291,-5.6291,-5.6291,-5.6291,-5.6291,-5.6291,-5.6291,-5.6291,-5.6291,-5.5954,-5.5798,-5.5818,-5.6336,-5.6549,-5.6619,-5.7466,-5.781,-5.781,-5.7848,-5.7867,-5.7974,-5.9235,-5.9734,-5.9635,-5.8854,-5.8568,-5.8542,0.0,0.0,0.0,0.0,0.0,0.0,0.0,-4.9119,-4.8977,-4.891,-4.8994,-4.9275,-4.9968,-5.0082,-5.0158,-5.029,-5.0302,-5.0302,-5.0302,-5.0302,-5.0302,-5.0302,-5.0302,-5.0302,-5.0302,-5.0302,-5.0302,-5.0302,-5.0337,-5.039,-5.0401,-5.0489,-5.0438,-5.0238,-5.0297,-4.9846,-4.899,-4.8126,-4.7626,-4.7442,-4.7838,-4.8653,-4.9862,0.0,0.0,0.0,0.0,0.0,0.0,0.0,0.0,0.0,0.0,0.0,0.0,0.0,0.0,0.0,0.0,0.0,0.0,0.0,0.0,0.0,0.0,0.0,0.0,0.0,0.0,0.0,0.0,0.0,0.0,0.0,0.0,-5.9515,-5.9035,-5.8164,-5.7366,-5.6719,-5.6447,-5.6291,-5.6291,-5.6291,-5.6291,-5.6291,-5.6291,-5.6291,-5.6291,-5.6291,-5.6291,-5.6291,-5.6291,-5.6291,-5.6291,-5.6291,-5.6291,-5.6291,-5.5954,-5.5798,-5.5808,-5.5761,-5.5728,-5.5747,-5.5976,-5.6091,-5.6129,-5.6721,-5.695,-5.7038,-5.7734,-5.8172,-5.8367,-5.7857,-5.7873,-5.8142,0.0,0.0,0.0,0.0,0.0,0.0,0.0,-4.8713,-4.8516,-4.8056,-4.8149,-4.8441,-4.8991,-4.9346,-4.9624,-4.9774,-4.9805,-4.9939,-5.0283,-5.0302,-5.0302,-5.0302,-5.0302,-5.0302,-5.0302,-5.0302,-5.0302,-5.0302,-5.0337,-5.0359,-5.0401,-5.0478,-5.0521,-5.0572,-5.0603,-5.0335,-4.9806,-4.8951,-4.8587,-4.8568,-4.8577,-4.9298,-5.0535,-5.2324,-5.3736,-5.4793,-5.5235,-5.5396,-5.5403,-5.5403,0.0,0.0,0.0,0.0,0.0,0.0,0.0,0.0,0.0,0.0,0.0,0.0,0.0,0.0,0.0,0.0,0.0,0.0,0.0,0.0,0.0,0.0,0.0,0.0,-6.0634,-5.9962,-5.8835,-5.8057,-5.7289,-5.6388,-5.6291,-5.6291,-5.6291,-5.6291,-5.6291,-5.6291,-5.6291,-5.6291,-5.6291,-5.6291,-5.6291,-5.6291,-5.6291,-5.6291,-5.6291,-5.6291,-5.6291,-5.6291,-5.5954,-5.5798,-5.5779,-5.5531,-5.5403,-5.5403,-5.5403,-5.5403,-5.5441,-5.5899,-5.6091,0.0,0.0,0.0,0.0,0.0,-5.6921,-5.6987,0.0,0.0,0.0,0.0,0.0,0.0,0.0,-4.865,-4.8302,-4.7351,-4.7359,-4.75,-4.7596,-4.8255,-4.876,-4.8945,-4.8945,-4.9289,-5.0111,-5.0245,-5.0302,-5.0302,-5.0302,-5.0302,-5.0302,-5.0302,-5.0302,-5.0302,-5.0302,-5.0337,-5.0401,-5.0412,-5.0446,-5.05,-5.05,-5.0511,-5.0453,-4.9651,-4.9324,-4.9372,-4.9375,-5.0385,-5.198,-5.2711,-5.4047,-5.548,-5.542,-5.5396,-5.5403,-5.5403,0.0,0.0,0.0,0.0,0.0,0.0,0.0,0.0,0.0,0.0,0.0,0.0,0.0,0.0,0.0,0.0,0.0,0.0,0.0,0.0,0.0,0.0,0.0,0.0,-6.1252,-6.0796,-5.9159,-5.8253,-5.7386,-5.6408,-5.6291,-5.6291,-5.6291,-5.6291,-5.6291,-5.6291,-5.6291,-5.6291,-5.6291,0.0,0.0,0.0,0.0,-5.6291,-5.6291,-5.6291,-5.6285,-5.6252,-5.5945,-5.5789,-5.5779,-5.5519,-5.5403,-5.5403,-5.5403,-5.5403,-5.5403,-5.5403,-5.5358,-5.5458,-5.6634,-5.7062,-5.6962,-5.635,-5.5902,-5.5614,0.0,0.0,0.0,0.0,0.0,0.0,0.0,-4.8182,-4.7612,-4.739,-4.6947,-4.6872,-4.7538,-4.7831,-4.8014,-4.8056,-4.8048,-4.843,-4.927,-4.9939,-5.0302,-5.0302,-5.0302,-5.0302,-5.0302,-5.0302,-5.0302,-5.0302,-5.0348,-5.039,-5.0401,-5.0457,-5.0489,-5.05,-5.05,-5.0521,-5.0525,-4.9611,-4.969,-5.0356,-4.9615,-5.0334,-5.1905,-5.276,-5.4047,-5.542,-5.5408,-5.5396,-5.5403,-5.5403,-5.5403,-5.5403,-5.5403,0.0,0.0,0.0,0.0,0.0,0.0,0.0,0.0,0.0,0.0,0.0,0.0,0.0,0.0,0.0,0.0,0.0,0.0,0.0,0.0,-6.1058,-6.112,-6.084,-5.9968,-5.9108,-5.8001,-5.6486,-5.6291,-5.6291,-5.6291,-5.6291,-5.6291,-5.6291,-5.6291,-5.6291,-5.6291,-5.6291,-5.6291,-5.6291,-5.6291,-5.6291,-5.6291,-5.6291,-5.6232,-5.6052,0.0,0.0,-5.5621,-5.5477,-5.5403,-5.5403,-5.5403,-5.5403,-5.5403,-5.5403,-5.52,-5.4965,-5.5586,-5.5654,-5.5398,-5.5623,-5.5662,-5.5614,0.0,0.0,0.0,0.0,0.0,0.0,0.0,-4.8441,-4.7954,-4.7548,-4.6896,-4.6603,-4.7022,-4.7105,-4.7139,-4.7139,-4.754,-4.7979,-4.843,-4.9232,-4.9882,-5.0283,-5.0302,-5.0302,-5.0302,-5.0302,-5.0302,-5.0302,-5.0325,-5.0348,-5.0348,-5.0382,-5.0393,-5.0393,-5.0427,-5.0468,-5.0481,-5.0071,-5.0189,-5.0643,-5.0575,-5.1282,-5.2447,-5.2872,-5.4024,-5.5395,-5.5409,-5.5409,-5.5403,-5.5403,-5.5403,-5.5403,-5.5403,-5.5403,-5.5403,0.0,0.0,0.0,0.0,0.0,0.0,0.0,0.0,0.0,0.0,0.0,0.0,0.0,0.0,-6.048,0.0,0.0,-6.0852,-6.1192,-6.1252,-6.0984,-6.0208,-5.9341,-5.8331,-5.7088,-5.6563,-5.6291,-5.6291,-5.6291,-5.6291,-5.6291,-5.6291,-5.6291,-5.6291,-5.6291,-5.6291,-5.6291,-5.6291,-5.6291,-5.6291,-5.6291,-5.6199,-5.5993,-5.5864,-5.5729,-5.5596,-5.5453,-5.5403,-5.5403,-5.5403,-5.5403,-5.539,-5.5187,-5.4889,-5.4549,-5.4589,-5.4485,-5.4312,-5.4386,-5.4399,-5.4399,0.0,0.0,0.0,0.0,0.0,0.0,0.0,0.0,-4.8622,-4.7967,-4.7228,-4.6748,-4.6748,-4.6596,-4.6443,-4.629,-4.7043,-4.754,-4.754,-4.8525,-4.9396,-5.0034,-5.0225,-5.0302,-5.0302,-5.0302,-5.0302,-5.0302,-5.0302,-5.0302,-5.0302,-5.0302,-5.0302,-5.0302,-5.0379,-5.0412,-5.0435,-5.0551,-5.0699,-5.0891,-5.1544,-5.2384,-5.3219,-5.3219,-5.4142,-5.539,-5.5396,-5.5403,-5.5403,-5.5403,-5.5403,-5.5403,-5.5403,-5.5403,-5.5403,-5.5403,-5.5403,0.0,0.0,0.0,0.0,0.0,0.0,0.0,0.0,0.0,-6.0403,-6.0403,-6.0403,-6.0493,-6.0803,-6.0871,-6.1002,-6.1287,-6.1359,-6.114,-6.0448,-5.9593,-5.8758,-5.793,-5.6932,-5.6291,-5.6291,-5.6291,-5.6291,-5.6291,-5.6291,-5.6291,-5.6291,-5.6291,-5.6291,-5.6291,-5.6291,-5.6285,-5.6246,-5.6239,-5.6136,-5.5917,-5.5808,-5.5696,-5.5558,-5.546,-5.5403,-5.5403,-5.5403,-5.5403,-5.5358,-5.4903,-5.4544,-5.4245,-5.3795,-5.3603,-5.3564,-5.3314,-5.3185,-5.3185,0.0,0.0,0.0,0.0,0.0,0.0,0.0,0.0,0.0,-4.8934,-4.8189,-4.7654,-4.7654,-4.6948,-4.6214,-4.5488,-4.6175,-4.6653,-4.6653,-4.8181,-4.9148,-4.9243,-4.992,-5.0302,-5.0302,-5.0302,-5.0302,-5.0302,-5.0302,-5.0302,-5.0302,-5.0302,-5.0302,-5.0302,-5.0379,-5.0435,-5.05,-5.0572,-5.1006,-5.1678,-5.1755,-5.2716,-5.4068,-5.4068,-5.4625,-5.5403,-5.5403,-5.5403,-5.5403,-5.5403,-5.5403,-5.5403,-5.5403,-5.5403,-5.5403,-5.5403,0.0,-5.5575,-5.6377,-5.7753,-5.9205,-6.016,-6.0403,-6.0403,0.0,0.0,-6.0403,-6.0403,-6.0403,-6.0453,-6.0608,-6.0784,-6.0943,-6.1113,-6.1275,-6.1373,-6.1276,-6.0506,-5.9632,-5.8778,-5.7263,-5.6291,-5.6291,-5.6291,-5.6291,-5.6291,-5.6291,-5.6291,-5.6291,-5.6291,-5.6291,-5.6291,-5.6291,-5.6206,-5.6036,-5.6036,-5.5891,-5.5632,-5.564,-5.5547,-5.5409,-5.5403,-5.5403,-5.5403,-5.5403,-5.5403,-5.5351,-5.4642,-5.433,-5.4229,-5.3541,-5.3269,-5.3251,-5.3206,-5.3185,-5.3185,0.0,0.0,0.0,0.0,0.0,0.0,0.0,0.0,0.0,0.0,-4.906,-4.8563,-4.8563,-4.778,-4.692,-4.6061,-4.6309,-4.65,-4.65,-4.7188,-4.7818,-4.8315,-4.9156,-4.9595,-4.9595,-5.0054,-5.0302,-5.0302,-5.0302,-5.0302,-5.0302,-5.0302,-5.0314,-5.0348,-5.039,-5.0703,-5.1209,-5.1231,-5.1721,-5.2546,-5.3,-5.3606,-5.4235,-5.4727,-5.511,-5.5403,-5.5403,-5.5403,0.0,0.0,-5.5403,-5.5403,-5.5403,-5.5403,-5.5403,-5.5403,-5.5403,0.0,-5.7008,-5.7867,0.0,0.0,-6.0403,-6.0403,-6.0403,-6.0403,-6.0403,-6.0403,-6.0403,-6.0439,-6.0571,-6.0754,-6.0943,0.0,-6.126,-6.1393,-6.1393,-6.0642,-5.9963,-5.9593,-5.8078,-5.6861,-5.635,-5.6291,-5.6291,-5.6291,-5.6291,-5.6291,-5.6291,-5.6291,-5.6291,-5.6291,-5.6291,-5.6199,-5.6001,-5.6001,-5.5883,-5.5596,-5.5596,-5.5531,-5.5403,-5.5403,-5.5403,-5.5403,-5.5403,-5.5273,-5.5009,-5.4514,-5.4158,-5.3907,-5.3398,-5.3185,-5.3185,-5.3185,-5.3185,-5.3185,0.0,0.0,0.0,0.0,0.0,0.0,0.0,0.0,0.0,0.0,-4.9786,-4.9358,-4.9129,-4.8544,-4.7818,-4.694,-4.6863,-4.6863,-4.6863,-4.7073,-4.7398,-4.7769,-4.8621,-4.8995,-4.8754,-4.9557,-4.9977,-4.9977,-5.0187,-5.0302,-5.0302,-5.0302,-5.0459,-5.0723,-5.0746,-5.1239,-5.2039,-5.2061,-5.2559,-5.338,-5.3965,-5.4331,-5.4593,-5.5186,-5.5403,-5.5403,-5.5403,-5.5403,0.0,0.0,-5.5403,-5.5403,-5.5403,-5.5403,-5.5403,-5.5403,-5.5403,-5.5766,-5.7447,0.0,0.0,-5.9969,-6.0403,-6.0403,-6.0403,-6.0403,-6.0403,-6.0403,-6.0403,-6.0425,-6.0527,-6.0692,-6.086,-6.0954,-6.1167,-6.131,-6.131,-6.0815,-6.037,-6.0137,-5.9037,-5.7949,-5.7068,-5.6563,-5.6291,-5.6291,-5.6291,-5.6291,-5.6291,-5.6291,-5.6291,-5.6291,-5.6246,-5.6136,-5.5943,-5.5909,-5.5779,-5.5535,-5.5535,-5.5483,-5.5403,-5.5403,-5.5403,-5.5403,-5.5403,-5.5173,-5.4776,-5.443,-5.407,-5.3662,-5.3336,-5.3185,-5.3185,-5.3185,-5.3185,-5.3185,0.0,0.0,0.0,0.0,0.0,0.0,0.0,0.0,0.0,0.0,0.0,0.0,0.0,0.0,-4.8716,-4.7826,-4.775,-4.775,-4.775,-4.8544,-4.8659,-4.7845,-4.8621,-4.8697,-4.7865,-4.8697,-4.9148,-4.9148,-4.992,-5.0302,-5.0302,-5.0302,-5.076,-5.1563,-5.1633,-5.2116,-5.2862,-5.2931,-5.3426,-5.4171,-5.419,-5.467,-5.5365,-5.5403,-5.5403,-5.5403,-5.5403,0.0,0.0,0.0,-5.5403,-5.5403,-5.5403,-5.5403,0.0,-5.5403,-5.5403,0.0,0.0,0.0,-5.8307,-5.9969,-6.0403,-6.0403,-6.0403,-6.0403,-6.0403,-6.0403,-6.0403,-6.0403,-6.0403,-6.052,-6.0601,-6.0613,-6.0895,-6.1103,-6.1103,-6.1248,-6.105,-6.0196,-6.006,-5.9671,0.0,-5.7243,-5.6291,-5.6291,-5.6291,-5.6291,-5.6291,-5.6291,-5.6291,-5.6291,-5.6109,-5.5943,-5.5798,-5.5675,-5.5535,-5.5403,-5.5403,-5.5403,-5.5403,-5.5403,-5.5403,-5.5403,-5.5403,-5.5173,-5.4776,-5.443,-5.407,-5.3662,-5.3336,-5.3185,-5.3185,-5.3185,-5.3185,-5.3185,0.0,0.0,0.0,0.0,0.0,0.0,0.0,0.0,0.0,0.0,0.0,0.0,0.0,0.0,0.0,0.0,0.0,0.0,-4.7845,-4.8067,-4.8124,-4.7807,-4.8621,-4.8945,-4.8659,-4.9461,-4.9901,-4.9901,-5.076,-5.1162,-5.1181,-5.1716,-5.2141,-5.2463,-5.244,-5.293,-5.3769,-5.3738,-5.423,-5.5008,-5.5008,-5.5167,-5.5403,-5.5403,-5.5403,-5.5403,0.0,0.0,0.0,0.0,0.0,0.0,-5.5403,0.0,0.0,-5.5403,0.0,0.0,0.0,0.0,-5.8975,-6.0102,-6.0403,-6.0403,-6.0403,-6.0403,-6.0403,-6.0403,-6.0403,-6.0403,-6.0403,-6.052,-6.0589,-6.0589,-6.0809,-6.1003,-6.1085,-6.1156,-6.1136,-6.0978,-6.0448,0.0,0.0,0.0,0.0,-5.7153,-5.6622,-5.6291,-5.6291,-5.6165,-5.6102,-5.6102,-5.5962,-5.6059,-5.6472,-5.6425,-5.6623,-5.7065,-5.7065,-5.6759,-5.6205,-5.6205,-5.5899,-5.539,-5.5127,-5.4795,-5.4446,-5.407,-5.3681,-5.3357,-5.323,-5.3185,-5.3185,-5.3185,-5.3185,-5.3185,0.0,0.0,0.0,0.0,0.0,0.0,0.0,0.0,0.0,0.0,0.0,0.0,0.0,0.0,0.0,0.0,0.0,0.0,0.0,-4.8686,-4.8582,-4.8277,-4.8793,-4.8945,-4.864,-4.9442,-5.0015,-5.0302,-5.1181,-5.1754,-5.204,-5.2556,-5.2982,-5.3343,-5.3288,-5.3765,-5.4631,-5.4575,-5.4887,-5.5403,-5.5403,-5.5403,-5.5441,-5.5728,-5.5823,0.0,-5.6186,0.0,0.0,0.0,0.0,0.0,0.0,0.0,0.0,0.0,0.0,0.0,0.0,-5.8708,-5.9319,-6.0179,-6.0403,-6.0403,-6.0403,-6.0403,-6.0403,-6.0403,-6.0403,-6.0403,-6.0403,-6.0474,-6.0527,-6.0527,-6.0681,-6.082,-6.0905,-6.1011,-6.1148,-6.1287,-6.0866,-6.0565,0.0,0.0,0.0,-5.804,-5.7515,-5.7165,-5.7123,-5.7009,-5.6897,-5.6826,-5.6686,-5.6821,-5.7255,-5.7222,-5.7443,-5.7905,-5.7905,-5.76,-5.7065,-5.7065,-5.6778,-5.6268,-5.5869,-5.5495,-5.5125,-5.4727,-5.4373,-5.4069,-5.4069,-5.4069,-5.4069,-5.4069,-5.4069,-5.3977,0.0,0.0,0.0,0.0,0.0,0.0,0.0,0.0,0.0,0.0,0.0,0.0,0.0,0.0,0.0,0.0,0.0,0.0,0.0,-5.0302,-4.9958,-4.9186,-4.9194,-4.8831,-4.7998,-4.885,-4.9652,-5.0436,-5.1314,-5.2117,-5.2862,-5.29,-5.3359,-5.418,-5.418,-5.4639,-5.5403,-5.5403,-5.5403,-5.5403,-5.5441,-5.546,-5.5556,-5.6358,-5.6664,-5.6759,0.0,0.0,0.0,0.0,0.0,0.0,0.0,0.0,0.0,0.0,0.0,-5.8135,-5.8899,-5.9133,-5.9376,-6.0179,-6.0403,-6.0403,-6.0403,-6.0403,-6.0403,-6.0403,-6.0403,-6.0403,0.0,0.0,-6.0403,-6.0403,-6.0507,-6.0589,-6.0589,-6.0874,-6.1085,0.0,0.0,0.0,0.0,0.0,0.0,-5.8971,0.0,-5.8734,-5.8579,-5.859,-5.8499,-5.8305,-5.8162,-5.8107,-5.8146,-5.8055,-5.802,-5.802,-5.802,-5.8001,-5.7963,-5.7963,-5.7944,-5.7873,-5.7468,-5.7081,-5.6682,-5.6273,-5.5907,-5.5614,-5.5614,-5.5614,-5.5614,-5.5614,-5.5614,-5.5372,0.0,0.0,0.0,0.0,0.0,0.0,0.0,0.0,0.0,0.0,0.0,0.0,0.0,0.0,0.0,0.0,0.0,0.0,0.0,-5.0302,-5.0206,-4.9996,-5.0627,-5.0856,-5.0634,-5.1448,-5.1964,-5.2155,-5.3034,-5.3569,-5.3779,-5.4428,-5.4868,-5.5078,-5.5078,-5.5193,-5.5403,-5.5403,-5.5403,-5.546,-5.6052,-5.6282,-5.6377,-5.7237,-5.7562,0.0,0.0,0.0,0.0,0.0,0.0,0.0,0.0,0.0,-5.7905,0.0,0.0,-5.8842,-5.9038,-5.9568,-6.0122,-6.0346,-6.0403,-6.0403,-6.0403,-6.0403,-6.0403,-6.0403,-6.0403,-6.0403,0.0,0.0,0.0,-6.0403,-6.0425,0.0,-6.0596,-6.0685,0.0,-6.0933,0.0,-6.1032,-6.1032,-6.0838,0.0,0.0,-5.9304,-5.8579,-5.8385,-5.8282,-5.8207,-5.815,-5.801,-5.8233,-5.8832,-5.9461,-5.9759,-5.9759,-5.9759,-5.9415,-5.8803,-5.8803,-5.8479,-5.7873,-5.7479,-5.7078,-5.6682,-5.6311,-5.5946,-5.5614,-5.5614,-5.5614,-5.5614,-5.5614,-5.5614,-5.5559,0.0,0.0,0.0,0.0,0.0,0.0,0.0,0.0,0.0,0.0,0.0,0.0,0.0,0.0,0.0,0.0,0.0,0.0,0.0,-5.0665,-5.0875,-5.0875,-5.1677,-5.2136,-5.2136,-5.2575,-5.2977,-5.3359,-5.3855,-5.4295,-5.4677,-5.5174,-5.5403,-5.5403,-5.5403,-5.5403,-5.5422,-5.5785,-5.5938,0.0,0.0,-5.716,-5.7256,-5.8116,-5.844,0.0,0.0,0.0,0.0,0.0,0.0,-5.8994,-5.8994,-5.8994,-5.8994,-5.8994,0.0,-5.9663,-5.9663,-6.0026,-6.0403,-6.0403,-6.0403,-6.0403,-6.0403,-6.0403,-6.0403,-6.0403,-6.0403,0.0,0.0,0.0,0.0,0.0,0.0,0.0,-6.0507,-6.0559,-6.0638,0.0,-6.0839,0.0,-6.0911,-6.0911,-6.086,0.0,-6.0054,-5.9534,-5.9318,-5.9235,-5.917,-5.9109,-5.9043,-5.9205,-5.9663,-6.016,-6.0403,-6.0403,-6.0403,-6.0141,-5.9663,-5.9663,-5.9415,-5.8962,0.0,-5.8273,-5.8019,-5.747,-5.7126,-5.6891,-5.6709,-5.6638,-5.6638,-5.6638,-5.6638,-5.6638,0.0,0.0,0.0,0.0,0.0,0.0,0.0,0.0,0.0,0.0,0.0,0.0,0.0,0.0,0.0,0.0,0.0,0.0,0.0,0.0,0.0,0.0,-5.2537,-5.2957,0.0,0.0,0.0,0.0,0.0,0.0,-5.5403,-5.5403,-5.5403,-5.5403,-5.5517,-5.5556,-5.5613,-5.6434,-5.6759,-5.6836,-5.7714,-5.8058,-5.8154,0.0,0.0,0.0,0.0,0.0,0.0,0.0,-6.0403,-6.0403,-6.0403,-6.0403,-6.0403,-6.0403,-6.0403,-6.0403,-6.0403,-6.0403,-6.0403,-6.0403,-6.0361,-6.0328,-6.0389,-6.0361,-6.0347,-6.0389,0.0,-6.0403,-6.0403,0.0,-6.0403,-6.0403,0.0,-6.0403,-6.0403,-6.0494,-6.0571,-6.0571,-6.0727,-6.0817,-6.0817,-6.0817,-6.075,-6.0584,-6.0727,-6.075,-6.0584,-6.0571,-6.0514,-6.0403,-6.0403,-6.0403,-6.0403,-6.0403,-6.0403,-6.0403,-6.0403,-6.0403,-6.0403,-6.0403,-6.0403,-6.0375,-6.0034,-5.9807,-5.9675,-5.8969,-5.8607,-5.8479,-5.8142,-5.7997,-5.7997,-5.7997,-5.7997,-5.7997,0.0,0.0,0.0,0.0,0.0,0.0,0.0,0.0,0.0,0.0,-5.0302,-5.0302,0.0,0.0,0.0,0.0,0.0,0.0,0.0,0.0,0.0,0.0,-5.3416,-5.3874,0.0,0.0,0.0,0.0,0.0,0.0,-5.5403,-5.5403,-5.5403,-5.5441,-5.6091,-5.6377,-5.6454,-5.7313,-5.7676,-5.7753,-5.8555,-5.8899,-5.8994,0.0,0.0,0.0,0.0,0.0,0.0,0.0,-6.0403,-6.0403,-6.0403,-6.0403,-6.0403,-6.0403,-6.0403,-6.0403,-6.0403,-6.0403,-6.0403,-6.0403,-6.0144,-5.9988,-6.0313,-6.0144,0.0,0.0,0.0,-6.0403,-6.0403,-6.0403,0.0,-6.0403,0.0,0.0,0.0,0.0,-6.0439,0.0,0.0,0.0,0.0,0.0,0.0,0.0,0.0,-6.048,-6.0439,-6.0439,-6.0412,-6.0403,-6.0403,-6.0403,-6.0403,-6.0403,-6.0403,-6.0403,-6.0403,-6.0403,-6.0403,-6.0403,-6.0403,-6.0389,-6.0328,0.0,-5.9288,-5.914,-5.8689,-5.8092,-5.8042,-5.7997,-5.7997,-5.7997,-5.7997,-5.7997,0.0,0.0,0.0,0.0,0.0,0.0,0.0,-5.1601,-5.1601,-5.1601,-5.1601,-5.1276,-5.0397,-5.0302,-5.0474,0.0,0.0,0.0,0.0,0.0,0.0,0.0,0.0,0.0,0.0,0.0,0.0,0.0,0.0,0.0,0.0,0.0,0.0,0.0,0.0,0.0,0.0,0.0,0.0,0.0,0.0,0.0,0.0,0.0,0.0,0.0,0.0,0.0,0.0,0.0,-6.1019,-6.0943,-6.0537,-6.0403,-6.0403,-6.0403,-6.0403,-6.0403,-6.0403,-6.0237,-6.0099,-6.0099,-5.9937,-5.9809,-5.9774,0.0,0.0,0.0,0.0,-6.0403,-6.0403,0.0,0.0,0.0,0.0,0.0,0.0,0.0,0.0,0.0,0.0,0.0,0.0,0.0,0.0,0.0,0.0,-6.0403,-6.0403,-6.0403,-6.0403,-6.0403,-6.0403,-6.0403,-6.0403,-6.0403,-6.0403,-6.0403,-6.0403,-6.0403,-6.0403,-6.0403,-6.0403,-6.0403,-6.0403,-6.0049,-5.9502,-5.9289,-5.885,-5.8301,-5.8092,-5.7997,-5.7997,-5.7997,-5.7997,-5.7997,0.0,0.0,0.0,0.0,0.0,0.0,0.0,-5.2805,-5.2805,-5.2805,-5.2805,-5.2289,-5.099,-5.0837,-5.1104,0.0,0.0,0.0,0.0,0.0,0.0,0.0,0.0,0.0,0.0,0.0,0.0,0.0,0.0,0.0,0.0,0.0,0.0,0.0,0.0,0.0,0.0,0.0,0.0,0.0,0.0,0.0,0.0,0.0,0.0,0.0,0.0,0.0,0.0,0.0,-6.1879,-6.1745,-6.0924,-6.0537,-6.0403,-6.0403,-6.0403,-6.0375,-6.0299,-6.0114,-5.9906,-5.9807,-5.9741,-5.9622,-5.9485,-5.9807,0.0,0.0,-6.044,-6.0714,-6.0886,0.0,0.0,0.0,0.0,0.0,0.0,0.0,0.0,0.0,0.0,0.0,0.0,0.0,0.0,0.0,0.0,0.0,-6.0403,-6.0417,-6.0417,-6.0403,-6.0403,-6.0403,-6.0403,-6.0403,-6.0403,-6.0403,-6.0403,-6.0403,-6.0403,-6.0417,-6.0417,-6.0403,-6.0417,-6.0144,-5.9658,-5.9343,-5.8911,-5.8437,-5.8119,-5.7997,-5.7997,-5.802,-5.8042,-5.8042,0.0,0.0,0.0,0.0,0.0,0.0,0.0,-5.2805,-5.2805,-5.2805,-5.2805,-5.2728,-5.2594,-5.2556,-5.2594,0.0,0.0,0.0,0.0,0.0,0.0,0.0,0.0,0.0,0.0,0.0,0.0,0.0,0.0,0.0,0.0,0.0,0.0,0.0,0.0,0.0,0.0,0.0,0.0,0.0,0.0,0.0,0.0,0.0,0.0,0.0,0.0,0.0,0.0,0.0,0.0,-6.2643,-6.1765,-6.0981,-6.0403,-6.0403,0.0,0.0,-5.9937,-6.0099,-6.027,-5.989,-5.952,-5.945,-6.0129,0.0,0.0,-6.1126,-6.1464,-6.1726,-6.2529,-6.2682,0.0,0.0,0.0,0.0,0.0,0.0,0.0,0.0,0.0,0.0,0.0,0.0,0.0,0.0,0.0,0.0,-6.0403,-6.0458,-6.0458,-6.0403,-6.0403,-6.0403,-6.0403,-6.0403,-6.0403,-6.0403,-6.0403,-6.0403,-6.0403,-6.0458,-6.0458,-6.0403,-6.0458,-6.0015,0.0,-5.9215,-5.875,-5.8047,-5.802,-5.7997,-5.802,-5.8152,-5.8174,-5.8197,0.0,0.0,0.0,0.0,0.0,0.0,-5.4384,-5.4352,-5.4352,-5.4352,-5.4352,-5.4352,-5.4352,-5.4352,-5.4142,-5.3626,0.0,0.0,0.0,0.0,0.0,0.0,0.0,0.0,0.0,0.0,0.0,0.0,0.0,0.0,0.0,0.0,0.0,0.0,0.0,0.0,0.0,0.0,0.0,0.0,0.0,0.0,0.0,0.0,0.0,0.0,0.0,0.0,0.0,0.0,0.0,0.0,-6.2662,-6.2166,0.0,0.0,-6.0403,-6.0375,-6.0207,-5.9922,-5.9622,-5.9485,-5.9325,-5.9215,-5.9306,0.0,0.0,-6.1159,-6.1842,-6.249,-6.2853,-6.2911,-6.2796,-6.2452,0.0,0.0,0.0,0.0,0.0,0.0,0.0,0.0,0.0,0.0,0.0,0.0,0.0,-6.0585,-6.0525,-6.0512,-6.0472,-6.0403,-6.0403,-6.0403,-6.0403,-6.0403,-6.0403,-6.0403,-6.0444,-6.0458,-6.0458,-6.0525,-6.0552,-6.0512,-6.0342,-5.9922,0.0,-5.9159,-5.8745,-5.8242,-5.8242,-5.8242,-5.8242,-5.8305,-5.8327,-5.8327,0.0,0.0,0.0,0.0,0.0,-5.5558,-5.5428,-5.5403,-5.5403,-5.5403,-5.5403,-5.5403,-5.5403,-5.5403,-5.5154,-5.4543,-5.4486,0.0,0.0,0.0,0.0,0.0,0.0,0.0,0.0,0.0,-5.5403,-5.5403,-5.5403,0.0,0.0,0.0,0.0,0.0,0.0,0.0,0.0,0.0,0.0,0.0,0.0,0.0,0.0,0.0,0.0,0.0,0.0,0.0,0.0,0.0,0.0,0.0,0.0,0.0,0.0,0.0,-6.0752,-6.0681,-6.0327,-5.9807,-5.9361,-5.9234,-5.9384,-5.9534,0.0,0.0,-6.1816,-6.1939,-6.2666,-6.3369,-6.3599,-6.3637,-6.356,-6.3331,0.0,-6.1898,0.0,0.0,0.0,0.0,0.0,0.0,0.0,0.0,0.0,0.0,0.0,-6.0673,-6.0642,-6.0572,-6.0525,-6.0431,-6.0403,-6.0403,-6.0403,-6.0403,-6.0403,-6.0431,-6.0472,-6.0512,-6.0539,-6.0604,-6.0597,-6.0572,-6.0356,-5.9963,0.0,-5.9196,-5.8818,-5.8393,-5.8393,-5.8393,-5.8393,-5.8418,-5.8418,-5.8459,0.0,0.0,0.0,0.0,0.0,0.0,-5.5428,-5.5403,-5.5403,-5.5403,-5.5403,-5.5403,-5.5403,-5.5403,-5.5403,-5.5403,-5.5403,0.0,0.0,0.0,0.0,0.0,0.0,0.0,0.0,0.0,-5.5403,-5.5403,-5.5403,-5.5804,-5.6619,-5.7485,0.0,0.0,0.0,0.0,0.0,0.0,0.0,0.0,0.0,0.0,0.0,0.0,0.0,0.0,0.0,0.0,0.0,0.0,0.0,0.0,0.0,0.0,0.0,0.0,-6.1593,-6.1329,-6.0134,-5.9791,-5.9708,-5.9307,-5.9853,-6.0566,0.0,0.0,-6.2653,-6.3902,-6.4172,-6.442,-6.5222,-6.5375,-6.5108,-6.432,-6.3465,0.0,0.0,0.0,0.0,0.0,0.0,0.0,0.0,0.0,0.0,0.0,0.0,0.0,-6.0697,-6.0697,-6.0642,-6.0499,-6.0431,-6.0403,-6.0403,-6.0403,-6.0431,-6.0499,-6.0499,-6.0539,-6.0604,-6.068,-6.0629,-6.0514,-6.0637,-6.0159,0.0,-5.929,-5.895,-5.8393,-5.8393,-5.8393,-5.8415,-5.8486,-5.8489,-5.8511,0.0,0.0,0.0,0.0,0.0,0.0,0.0,-5.5403,-5.5403,-5.5403,-5.5403,-5.5403,-5.5403,-5.5403,-5.5403,-5.5403,-5.5403,0.0,0.0,0.0,0.0,0.0,0.0,0.0,0.0,-5.5403,-5.5403,-5.5403,-5.5403,-5.6129,-5.7485,-5.7772,-5.8651,-5.9988,0.0,0.0,0.0,0.0,0.0,0.0,0.0,0.0,0.0,0.0,0.0,0.0,0.0,0.0,0.0,0.0,0.0,0.0,0.0,0.0,0.0,0.0,0.0,0.0,-6.2029,-6.173,-6.1477,-6.1358,-6.153,-6.1773,-6.1856,0.0,-6.3703,-6.4119,-6.463,-6.5089,-6.5356,-6.5394,-6.5318,-6.505,-6.3828,0.0,0.0,0.0,0.0,0.0,0.0,0.0,0.0,0.0,0.0,0.0,0.0,-6.0777,-6.0777,-6.0722,-6.0648,-6.0578,-6.0552,-6.0539,-6.0539,-6.0539,-6.0552,-6.0565,-6.0597,-6.0655,-6.066,-6.0741,-6.0746,-6.0697,-6.0408,-6.0045,-5.9601,-5.91,-5.8774,-5.8612,-5.8612,-5.8612,-5.8612,-5.8614,-5.8635,-5.8635,0.0,0.0,0.0,0.0,0.0,0.0,0.0,-5.5403,-5.5403,-5.5403,-5.5403,-5.5403,-5.5403,-5.5403,-5.5403,-5.5403,-5.5403,0.0,0.0,0.0,0.0,0.0,0.0,0.0,-5.5403,-5.5403,-5.5403,-5.5403,-5.5403,-5.6262,-5.7905,-5.7905,-5.8784,-6.0403,-6.0403,-6.0403,0.0,0.0,0.0,0.0,0.0,0.0,-6.3083,0.0,0.0,0.0,0.0,0.0,0.0,0.0,0.0,0.0,0.0,0.0,0.0,0.0,0.0,0.0,0.0,-6.2607,-6.2307,-6.2307,-6.2553,0.0,0.0,0.0,-6.4473,-6.4615,-6.494,-6.5217,-6.5379,-6.5394,-6.5394,-6.5394,-6.4,0.0,0.0,0.0,0.0,0.0,0.0,0.0,0.0,0.0,0.0,0.0,-6.0746,-6.08,-6.08,-6.0765,-6.0729,-6.068,-6.0629,-6.0604,-6.0604,-6.0604,-6.0617,-6.0642,-6.0673,-6.071,-6.0734,-6.0788,-6.08,-6.0777,-6.0485,-5.9981,0.0,-5.9193,-5.895,-5.8717,-5.8829,-5.8823,-5.8716,-5.8716,-5.8716,-5.8716,0.0,0.0,0.0,0.0,0.0,0.0,0.0,-5.5403,-5.5403,-5.5403,-5.5403,-5.5403,-5.5403,-5.5403,-5.5403,-5.5403,0.0,0.0,0.0,0.0,0.0,0.0,0.0,0.0,-5.5403,-5.5403,-5.5403,-5.5403,-5.546,-5.632,-5.7905,-5.7963,-5.8842,-6.0403,-6.0403,-6.0403,-6.0403,-6.0403,-6.0403,-6.0542,-6.2223,-6.2911,0.0,0.0,0.0,0.0,0.0,0.0,0.0,0.0,0.0,0.0,0.0,0.0,0.0,0.0,0.0,0.0,0.0,0.0,0.0,0.0,0.0,0.0,0.0,0.0,0.0,0.0,0.0,-6.4968,-6.5314,-6.5394,-6.5394,-6.5394,0.0,0.0,0.0,0.0,0.0,0.0,0.0,0.0,0.0,0.0,0.0,0.0,-6.0757,-6.08,-6.08,-6.08,-6.08,-6.08,-6.068,-6.0617,-6.0617,-6.0617,-6.0655,-6.0697,-6.0697,-6.0734,-6.08,-6.08,-6.08,0.0,-6.0807,-6.0064,-5.8892,-5.9596,-5.9479,-5.8859,-5.9084,-5.8968,-5.8716,-5.8716,-5.8716,-5.8716,0.0,0.0,0.0,0.0,0.0,0.0,0.0,0.0,0.0,0.0,-5.5403,-5.5403,-5.5403,-5.5403,-5.5403,0.0,0.0,0.0,0.0,0.0,0.0,0.0,0.0,0.0,-5.5403,-5.5403,-5.5403,-5.5403,-5.6014,-5.6855,-5.7905,-5.8536,-5.9376,-6.0403,-6.0403,-6.0403,-6.0403,-6.0403,-6.0403,-6.0542,-6.2223,-6.2911,0.0,0.0,0.0,0.0,-6.5283,-6.5267,0.0,0.0,0.0,0.0,0.0,0.0,0.0,0.0,-6.4932,-6.4923,-6.4856,0.0,-6.4676,-6.4676,-6.4829,0.0,0.0,0.0,0.0,0.0,0.0,0.0,0.0,0.0,0.0,0.0,0.0,0.0,0.0,0.0,0.0,0.0,0.0,0.0,0.0,0.0,0.0,-6.0777,-6.08,-6.08,-6.08,-6.08,-6.08,-6.08,-6.0777,-6.0753,-6.0753,-6.0753,-6.0765,-6.0777,-6.0777,-6.0788,-6.08,-6.08,-6.08,-6.0808,-6.0807,-6.0613,-6.0318,-6.0497,-6.0473,-6.021,-5.9215,-5.8781,-5.8716,-5.8716,-5.8716,-5.8716,0.0,0.0,0.0,0.0,0.0,0.0,0.0,0.0,0.0,0.0,0.0,-5.5403,-5.5403,-5.5403,0.0,0.0,0.0,0.0,0.0,0.0,0.0,0.0,0.0,-5.5575,-5.5938,-5.5957,-5.6148,-5.6549,-5.6969,-5.7619,-5.8459,-5.8899,-5.9568,-6.0403,-6.0403,-6.0403,-6.0403,-6.0403,-6.0403,-6.0542,-6.2223,0.0,0.0,0.0,0.0,0.0,-6.5117,-6.4983,0.0,-6.4538,-6.4612,-6.4776,0.0,0.0,0.0,0.0,-6.5115,-6.5166,-6.539,-6.5425,-6.5394,-6.5394,-6.5394,-6.5394,0.0,0.0,0.0,0.0,0.0,0.0,0.0,0.0,0.0,0.0,0.0,0.0,0.0,0.0,0.0,0.0,0.0,0.0,0.0,0.0,0.0,-6.0746,-6.0788,-6.08,-6.08,-6.08,-6.08,-6.08,-6.08,-6.08,-6.08,-6.08,-6.08,-6.08,-6.08,-6.08,-6.08,-6.08,-6.08,-6.08,-6.0789,-6.0796,-6.0802,-6.0808,-6.0791,-6.07,-5.963,-5.9102,-5.8906,-5.876,-5.8716,-5.8716,0.0,0.0,0.0,0.0,0.0,0.0,0.0,0.0,0.0,0.0,0.0,0.0,0.0,0.0,0.0,0.0,0.0,0.0,0.0,0.0,0.0,0.0,-5.5785,-5.611,-5.6778,-5.6797,-5.716,-5.7905,-5.802,-5.844,-5.9095,-5.9243,-5.9682,-6.0403,-6.0403,-6.0403,-6.0403,-6.0403,-6.0403,-6.0537,-6.2089,0.0,0.0,0.0,0.0,0.0,0.0,0.0,0.0,-6.4116,-6.4388,-6.4704,-6.4704,0.0,0.0,0.0,0.0,0.0,-6.5494,-6.5469,-6.5425,-6.5394,-6.5409,-6.5409,0.0,0.0,0.0,0.0,0.0,0.0,0.0,0.0,0.0,0.0,0.0,0.0,0.0,0.0,0.0,0.0,0.0,0.0,0.0,-6.0765,-6.0777,-6.071,-6.0777,-6.08,-6.08,-6.08,-6.08,-6.08,-6.08,-6.08,-6.08,-6.08,-6.08,-6.08,-6.08,-6.08,-6.08,-6.08,-6.08,-6.08,-6.08,0.0,-6.1574,-6.1574,-6.1416,-6.1115,-6.0428,-5.9989,-5.9684,-5.9328,-5.9144,-5.9088,0.0,0.0,0.0,0.0,0.0,0.0,0.0,0.0,0.0,0.0,0.0,0.0,0.0,0.0,0.0,0.0,0.0,0.0,0.0,0.0,0.0,-5.7523,-5.7523,-5.7562,-5.7695,-5.7695,-5.7772,-5.7905,-5.8574,-5.8994,-5.9128,-5.9854,-6.0255,-6.0403,-6.0403,-6.0403,-6.0403,-6.0403,-6.0403,-6.0479,-6.1421,0.0,0.0,0.0,0.0,0.0,0.0,0.0,0.0,-6.4215,-6.4234,-6.4215,-6.4215,0.0,0.0,0.0,0.0,0.0,-6.5431,-6.5537,-6.5537,-6.5425,-6.5454,-6.5479,0.0,0.0,0.0,0.0,0.0,0.0,0.0,0.0,0.0,0.0,0.0,0.0,0.0,0.0,0.0,0.0,0.0,0.0,0.0,-6.0765,-6.08,-6.0788,-6.08,-6.08,-6.08,-6.08,-6.08,-6.08,-6.08,-6.08,-6.08,-6.08,-6.08,-6.08,-6.08,-6.08,-6.08,-6.08,-6.08,-6.08,0.0,-6.2444,-6.511,-6.511,-6.4251,-6.2834,-6.2119,-6.1969,-6.2126,-6.1664,-6.1209,-6.0834,0.0,0.0,0.0,0.0,0.0,0.0,0.0,0.0,0.0,0.0,0.0,0.0,0.0,0.0,0.0,0.0,0.0,0.0,0.0,0.0,-5.8555,-5.8555,-5.8994,-5.9033,-5.8555,-5.8555,-5.8784,-5.9243,-5.9625,-5.9797,-5.9816,-6.0198,-6.0403,-6.0403,-6.0403,-6.0403,-6.0403,-6.0403,-6.0403,-6.0465,0.0,0.0,0.0,0.0,0.0,0.0,0.0,0.0,0.0,0.0,-6.4216,-6.4157,-6.4195,0.0,0.0,0.0,0.0,0.0,-6.5537,-6.5552,-6.5427,-6.4915,-6.4862,-6.4914,0.0,0.0,0.0,0.0,0.0,0.0,0.0,0.0,0.0,0.0,0.0,0.0,0.0,0.0,0.0,0.0,0.0,0.0,-6.0765,-6.0788,-6.08,-6.08,-6.08,-6.08,-6.08,-6.08,-6.08,-6.08,-6.08,-6.08,-6.08,-6.08,-6.08,-6.08,-6.08,-6.112,-6.1716,-6.1716,-6.1889,-6.2147,0.0,-6.3043,-6.4523,-6.4843,-6.4507,-6.3704,-6.2856,-6.2604,-6.2669,-6.2069,-6.157,-6.1206,0.0,0.0,0.0,0.0,0.0,0.0,0.0,0.0,0.0,0.0,0.0,0.0,0.0,0.0,0.0,0.0,0.0,0.0,0.0,-5.9052,-5.9396,-5.9396,-6.0045,-6.0083,-5.9415,-5.9396,-5.9739,-6.0403,-6.0403,-6.0403,-6.0403,-6.0403,-6.0403,-6.0403,-6.0403,-6.0403,-6.0403,-6.0403,-6.0403,-6.046,0.0,0.0,0.0,0.0,0.0,0.0,0.0,0.0,0.0,0.0,0.0,0.0,0.0,0.0,0.0,-6.5178,-6.5431,-6.5674,-6.5641,-6.546,-6.5111,-6.4498,-6.4372,0.0,0.0,0.0,0.0,0.0,0.0,0.0,0.0,0.0,0.0,0.0,0.0,0.0,0.0,0.0,0.0,0.0,0.0,-6.08,-6.08,-6.08,-6.08,-6.08,-6.08,-6.08,-6.08,-6.08,-6.08,-6.08,-6.08,-6.08,-6.08,-6.0993,-6.1089,-6.1089,-6.1089,-6.1658,-6.2678,-6.2844,-6.312,-6.3531,-6.3794,-6.3909,-6.3935,-6.4409,-6.4595,-6.4519,-6.369,-6.328,-6.3074,-6.2594,-6.2196,-6.1917,0.0,0.0,0.0,0.0,0.0,0.0,0.0,0.0,0.0,0.0,0.0,0.0,0.0,0.0,0.0,0.0,0.0,0.0,0.0,-6.0255,-6.0313,-6.0313,-6.0384,-6.037,-6.0313,-6.0313,-6.0346,-6.0403,-6.0403,-6.0403,-6.0403,-6.0403,-6.0403,-6.0403,-6.0403,-6.0403,-6.0403,-6.0403,-6.0403,-6.0422,-6.0446,0.0,0.0,0.0,0.0,0.0,0.0,0.0,0.0,0.0,0.0,0.0,0.0,0.0,-6.5101,-6.5178,-6.5253,-6.5412,-6.5688,-6.5185,-6.4551,-6.45,-6.4441,0.0,-6.3463,-6.3239,0.0,0.0,0.0,0.0,0.0,0.0,0.0,0.0,0.0,0.0,0.0,0.0,0.0,0.0,-6.08,-6.08,-6.08,-6.08,-6.08,-6.08,-6.08,-6.08,-6.08,-6.08,-6.08,-6.08,-6.08,-6.08,-6.08,-6.1601,-6.2005,-6.2005,-6.2005,-6.2435,-6.3262,-6.3813,-6.4114,-6.4191,-6.5254,-6.5697,-6.5723,-6.5762,-6.5788,-6.5718,-6.5284,-6.4704,-6.4141,-6.4385,-6.4275,-6.3981,0.0,0.0,0.0,0.0,0.0,0.0,0.0,0.0,0.0,0.0,0.0,0.0,0.0,0.0,0.0,0.0,0.0,0.0,0.0,-6.0417,-6.0417,-6.0458,-6.0417,-6.0403,-6.0403,-6.0403,-6.0403,-6.0403,-6.0403,-6.0403,-6.0403,-6.0403,-6.0403,-6.0403,-6.0403,-6.0403,-6.0403,-6.0403,-6.0417,-6.0458,-6.0458,-6.1174,0.0,0.0,0.0,0.0,0.0,0.0,0.0,0.0,-6.4923,-6.4628,-6.4483,-6.4426,-6.4483,-6.4807,-6.4907,-6.4943,-6.4994,-6.4564,-6.393,-6.313,-6.2926,0.0,0.0,-6.2091,-6.1695,-6.1658,0.0,0.0,0.0,0.0,0.0,0.0,0.0,0.0,0.0,0.0,0.0,-6.08,-6.08,-6.08,-6.08,-6.08,-6.08,-6.08,-6.08,-6.08,-6.08,-6.08,-6.08,-6.08,-6.08,-6.105,-6.1601,-6.1947,-6.262,-6.3647,-6.3108,-6.3301,-6.4128,-6.4339,-6.4736,-6.5275,-6.5711,-6.5903,-6.5891,-6.5891,-6.591,-6.5865,-6.5722,-6.5348,-6.4911,-6.5025,-6.4822,-6.4483,0.0,0.0,0.0,0.0,0.0,0.0,0.0,0.0,0.0,0.0,0.0,0.0,0.0,0.0,0.0,0.0,0.0,0.0,-6.0499,-6.0472,-6.0472,-6.0499,-6.0458,-6.0417,-6.0403,-6.0403,-6.0403,-6.0403,-6.0403,-6.0403,-6.0403,-6.0403,-6.0403,-6.0403,-6.0403,-6.0403,-6.0431,-6.0431,-6.0472,-6.0539,-6.0539,-6.1044,0.0,0.0,0.0,0.0,0.0,0.0,0.0,0.0,-6.5121,-6.4681,-6.4426,-6.421,-6.4053,-6.4106,-6.4213,-6.427,-6.4025,-6.3632,-6.3098,0.0,0.0,0.0,-6.1673,-6.1223,-6.0788,0.0,0.0,0.0,0.0,0.0,0.0,0.0,0.0,0.0,0.0,0.0,-6.08,-6.08,-6.08,-6.08,-6.08,-6.08,-6.08,-6.08,-6.08,-6.08,-6.08,-6.08,-6.08,-6.08,-6.08,-6.1235,-6.2101,-6.2339,-6.3185,-6.4609,-6.4282,-6.4436,-6.5013,-6.5013,-6.534,-6.5897,-6.5897,-6.5897,-6.5897,-6.5897,-6.5897,-6.5897,-6.5897,-6.5649,-6.5333,-6.5456,-6.5234,-6.4856,0.0,0.0,0.0,0.0,0.0,0.0,0.0,0.0,0.0,0.0,0.0,0.0,0.0,0.0,0.0,0.0,0.0,0.0,-6.0499,-6.0565,-6.0565,-6.0499,-6.0499,-6.0472,-6.0403,-6.0403,-6.0403,-6.0403,-6.0403,-6.0403,-6.0403,-6.0403,-6.0403,-6.0403,-6.0403,-6.0431,-6.0499,-6.0499,-6.0539,-6.0604,-6.0604,-6.1083,-6.1882,0.0,0.0,0.0,0.0,0.0,0.0,0.0,-6.5153,-6.5063,-6.4252,-6.4046,-6.3936,-6.3138,-6.3182,-6.3384,-6.2932,-6.241,0.0,0.0,0.0,0.0,0.0,-6.08,-6.08,0.0,0.0,0.0,0.0,0.0,0.0,0.0,0.0,0.0,0.0,0.0,-6.08,-6.08,-6.08,-6.08,-6.08,-6.08,-6.08,-6.08,-6.08,-6.08,-6.08,-6.08,-6.08,-6.08,-6.08,-6.1223,-6.2101,-6.2916,-6.3762,-6.4628,-6.5493,-6.5897,-6.5897,-6.5897,-6.5897,-6.5897,-6.5897,-6.5897,-6.5897,-6.5897,-6.5897,-6.5897,-6.5897,-6.5649,-6.5363,-6.5736,-6.5649,-6.5318,0.0,0.0,0.0,0.0,0.0,0.0,0.0,0.0,0.0,0.0,0.0,0.0,0.0,0.0,0.0,0.0,0.0,0.0,-6.0635,-6.0617,-6.0617,-6.0635,-6.0604,-6.0565,-6.0539,-6.0499,-6.0444,-6.0403,-6.0403,-6.0403,-6.0403,-6.0403,-6.0403,-6.0403,-6.0444,-6.0485,-6.0499,-6.0552,-6.0617,-6.066,-6.066,-6.0839,-6.1195,0.0,0.0,0.0,0.0,0.0,0.0,0.0,0.0,0.0,-6.4593,-6.4087,-6.3632,-6.3386,-6.2984,-6.2544,-6.2353,-6.199,0.0,0.0,0.0,0.0,0.0,0.0,0.0,0.0,0.0,0.0,0.0,0.0,0.0,0.0,-6.08,-6.08,-6.08,-6.08,-6.08,-6.08,-6.08,-6.08,-6.08,-6.08,-6.08,-6.08,-6.08,-6.08,-6.08,-6.08,-6.08,-6.08,-6.1389,-6.2108,-6.2935,-6.3801,-6.4647,-6.5513,-6.5782,-6.5897,-6.5897,-6.5897,-6.5897,-6.5897,-6.5897,-6.5897,-6.5897,-6.5897,-6.5897,-6.5897,-6.5897,-6.5827,-6.5742,-6.5853,-6.5827,-6.5682,0.0,0.0,0.0,0.0,0.0,0.0,0.0,0.0,0.0,0.0,-6.0757,0.0,0.0,0.0,0.0,0.0,0.0,0.0,0.0,-6.0692,-6.0692,-6.0697,-6.0648,-6.0617,-6.0565,-6.0552,-6.0499,-6.0403,-6.0403,-6.0403,-6.0403,-6.0403,-6.0417,-6.0444,-6.0485,-6.0539,-6.0572,-6.0629,-6.0692,-6.0734,-6.0734,-6.0757,-6.0896,0.0,0.0,0.0,0.0,0.0,0.0,0.0,0.0,0.0,-6.4543,-6.3972,-6.3374,-6.2692,-6.2226,-6.183,-6.1471,0.0,0.0,0.0,0.0,0.0,0.0,0.0,0.0,0.0,0.0,0.0,0.0,0.0,0.0,-6.08,-6.08,-6.08,-6.08,-6.08,-6.08,-6.08,-6.08,-6.08,-6.08,-6.08,-6.08,-6.08,-6.08,-6.08,-6.08,-6.08,-6.08,-6.08,-6.1658,-6.2493,-6.3288,-6.4166,-6.5032,-6.5897,-6.5897,-6.5897,-6.5897,-6.5897,-6.5897,-6.5897,-6.5897,-6.5897,-6.5897,-6.5897,-6.5897,-6.5897,-6.5897,-6.5897,-6.5897,-6.5897,-6.5897,-6.5872,0.0,0.0,0.0,0.0,0.0,0.0,0.0,0.0,0.0,0.0,-6.08,-6.08,0.0,0.0,0.0,0.0,0.0,0.0,0.0,-6.0777,-6.0777,-6.071,-6.0697,-6.0648,-6.0525,-6.0578,-6.0552,-6.0417,-6.0403,-6.0403,-6.0403,-6.0403,-6.0444,-6.0512,-6.0512,-6.0591,-6.0697,-6.0717,-6.0734,-6.08,-6.08,-6.08,-6.0877,-6.1678,0.0,0.0,0.0,0.0,0.0,0.0,0.0,0.0,-6.4153,-6.3648,-6.3061,-6.1492,-6.1237,-6.1296,0.0,0.0,0.0,0.0,0.0,0.0,0.0,0.0,0.0,0.0,0.0,0.0,0.0,0.0,0.0,-6.08,-6.08,-6.08,-6.08,-6.08,-6.08,-6.08,-6.08,-6.08,-6.08,-6.08,-6.08,-6.08,-6.08,-6.08,-6.08,-6.08,-6.0839,-6.0916,-6.1774,-6.2589,-6.3404,-6.4282,-6.5128,-6.5897,-6.5897,-6.5897,-6.5897,-6.5897,-6.5897,-6.5897,-6.5897,-6.5897,-6.5897,-6.5897,-6.5897,-6.5897,-6.5897,-6.5897,-6.5897,-6.5897,-6.5897,-6.5897,0.0,0.0,0.0,0.0,0.0,0.0,0.0,0.0,0.0,0.0,0.0,0.0,0.0,0.0,0.0,0.0,0.0,0.0,0.0,-6.08,-6.08,-6.0788,-6.0788,-6.0734,-6.0648,-6.066,-6.0642,-6.0552,-6.0499,-6.0472,-6.0472,-6.0472,-6.0512,-6.0578,-6.0623,-6.066,-6.0697,-6.0765,-6.0788,-6.08,-6.08,-6.08,-6.0819,-6.1012,-6.1493,0.0,0.0,0.0,0.0,0.0,0.0,0.0,-6.3198,-6.2757,-6.2278,-6.1588,-6.1174,-6.0909,0.0,0.0,0.0,0.0,0.0,0.0,0.0,0.0,0.0,0.0,0.0,0.0,0.0,0.0,0.0,-6.08,-6.08,-6.08,-6.08,-6.08,-6.08,-6.08,-6.08,-6.08,-6.08,-6.08,-6.08,-6.08,-6.08,-6.08,-6.08,-6.08,-6.1108,-6.1812,-6.2608,-6.3455,-6.432,-6.5186,-6.5705,-6.5897,-6.5897,-6.5897,-6.5897,-6.5897,-6.5897,-6.5897,-6.5897,-6.5897,-6.5897,-6.5897,-6.5897,-6.5897,-6.5897,-6.5897,-6.5897,-6.5897,-6.5897,-6.5897,0.0,0.0,0.0,0.0,0.0,0.0,0.0,0.0,0.0,0.0,0.0,0.0,0.0,0.0,0.0,0.0,0.0,0.0,0.0,0.0,-6.08,-6.08,-6.08,-6.0777,-6.0697,-6.0722,-6.0704,-6.0604,-6.0604,-6.0591,-6.0552,-6.0512,-6.0552,-6.0655,-6.0673,-6.071,-6.0765,-6.0788,-6.08,-6.08,-6.08,-6.08,-6.08,-6.08,-6.1069,-6.1485,-6.1485,0.0,0.0,0.0,0.0,0.0,0.0,0.0,-6.1969,-6.1358,-6.0999,-6.08,0.0,0.0,0.0,0.0,0.0,0.0,0.0,0.0,0.0,0.0,0.0,0.0,0.0,0.0,-6.08,-6.08,-6.08,-6.08,-6.08,-6.08,-6.08,-6.08,-6.08,-6.08,-6.08,-6.08,-6.08,-6.08,-6.08,-6.08,-6.08,-6.08,-6.1204,-6.2082,-6.2878,-6.3724,-6.4589,-6.5455,-6.5897,-6.5897,-6.5897,-6.5897,-6.5897,-6.5897,-6.5897,-6.5897,-6.5897,-6.5897,-6.5897,-6.5897,-6.5897,-6.5897,-6.5897,-6.5897,-6.5897,-6.5897,-6.5897,-6.5897,0.0,0.0,0.0,0.0,0.0,0.0,0.0,0.0,0.0,0.0,0.0,0.0,0.0,0.0,0.0,0.0,0.0,0.0,0.0,0.0,0.0,-6.08,-6.08,-6.0757,-6.071,-6.0777,-6.0753,-6.0642,-6.0692,-6.0692,-6.0629,-6.0565,-6.0604,-6.071,-6.071,-6.0753,-6.08,-6.08,-6.08,-6.08,-6.08,-6.08,-6.08,-6.08,-6.08,-6.08,-6.08,-6.1262,-6.1889,-6.1889,0.0,0.0,0.0,0.0,-6.1735,-6.1012,-6.08,-6.08,0.0,0.0,0.0,0.0,0.0,0.0,0.0,0.0,0.0,0.0,0.0,0.0,0.0,0.0,-6.08,-6.08,-6.08,-6.08,-6.08,-6.08,-6.08,-6.08,-6.08,-6.08,-6.08,-6.08,-6.08,-6.08,-6.08,-6.08,-6.08,-6.0935,-6.1416,-6.2281,-6.3108,-6.3935,-6.482,-6.5532,-6.5897,-6.5897,-6.5897,-6.5897,-6.5897,-6.5897,-6.5897,-6.5897,-6.5897,-6.5897,-6.5897,-6.5897,-6.5897,-6.5897,-6.5897,-6.5897,-6.5897,-6.5897,-6.5897,-6.5897,0.0,0.0,0.0,0.0,0.0,0.0,0.0,0.0,0.0,0.0,0.0,0.0,0.0,0.0,0.0,0.0,0.0,0.0,0.0,0.0,0.0,-6.08,-6.08,-6.08,-6.0788,-6.08,-6.08,-6.0777,-6.0722,-6.0741,-6.0777,-6.0697,-6.071,-6.0788,-6.0788,-6.08,-6.08,-6.08,-6.08,-6.08,-6.08,-6.08,-6.08,-6.08,-6.08,-6.08,-6.08,-6.0858,-6.0973,-6.0973,-6.1031,0.0,0.0,0.0,-6.0954,-6.0819,-6.08,0.0,0.0,0.0,0.0,0.0,0.0,0.0,0.0,0.0,0.0,0.0,0.0,0.0,0.0,0.0,-6.08,-6.08,-6.08,-6.08,-6.08,-6.08,-6.08,-6.08,-6.08,-6.08,-6.08,-6.08,-6.08,-6.08,-6.08,-6.08,-6.08,-6.1524,-6.23,-6.3108,-6.3974,-6.4839,-6.5724,-6.584,-6.5897,-6.5897,-6.5897,-6.5897,-6.5897,-6.5897,-6.5897,-6.5897,-6.5897,-6.5897,-6.5897,-6.5897,-6.5897,-6.5897,-6.5897,-6.5897,-6.5897,-6.5897,-6.5897,-6.5897,0.0,0.0,0.0,0.0,0.0,0.0,0.0,0.0,0.0,0.0,0.0,0.0,0.0,0.0,0.0,0.0,0.0,0.0,0.0,0.0,0.0,-6.08,-6.08,-6.08,-6.08,-6.08,-6.08,-6.08,-6.0777,-6.0777,-6.08,-6.0777,-6.0777,-6.08,-6.08,-6.08,-6.08,-6.08,-6.08,-6.08,-6.08,-6.08,-6.08,-6.08,-6.08,-6.08,-6.08,-6.08,-6.08,-6.08,-6.08,-6.08,-6.08,0.0,0.0,0.0,0.0,0.0,0.0,0.0,0.0,0.0,0.0,0.0,0.0,0.0,0.0,0.0,0.0,0.0,0.0,-6.08,-6.08,-6.08,-6.08,-6.08,-6.08,-6.08,-6.08,-6.08,-6.08,-6.08,-6.08,-6.08,-6.08,-6.08,-6.08,-6.08,-6.08,-6.1639,-6.2474,-6.3281,-6.4147,-6.5013,-6.5878,-6.5897,-6.5897,-6.5897,-6.5897,-6.5897,-6.5897,-6.5897,-6.5897,-6.5897,-6.5897,-6.5897,-6.5897,-6.5897,-6.5897,-6.5897,-6.5897,-6.5897,-6.5897,-6.5897,-6.5897,-6.5897,0.0,0.0,0.0,0.0,0.0,0.0,0.0,0.0,0.0,0.0,0.0,0.0,0.0,0.0,0.0,0.0,0.0,0.0,0.0,0.0,0.0,-6.08,-6.08,-6.08,-6.08,-6.08,-6.08,-6.08,-6.08,-6.08,-6.08,-6.08,-6.08,-6.08,-6.08,-6.08,-6.08,-6.08,-6.08,-6.08,-6.08,-6.08,-6.08,-6.08,-6.08,-6.08,-6.08,-6.08,-6.08,-6.08,-6.08,-6.08,-6.08,-6.08,0.0,0.0,0.0,0.0,0.0,0.0,0.0,0.0,0.0,0.0,0.0,0.0,0.0,0.0,0.0,0.0,0.0,-6.08,-6.08,-6.08,-6.08,-6.08,-6.08,-6.08,-6.08,-6.08,-6.08,-6.08,-6.08,-6.08,-6.08,-6.08,-6.08,-6.08,-6.08,-6.182,-6.2685,-6.3269,-6.4359,-6.5243,-6.5878,-6.5897,-6.5897,-6.5897,-6.5897,-6.5897,-6.5897,-6.5897,-6.5897,-6.5897,-6.5897,-6.5897,-6.5897,-6.5897,-6.5897,-6.5897,-6.5897,-6.5897,-6.5897,-6.5897,-6.5897,-6.5897,0.0,0.0,0.0,0.0,0.0,0.0,0.0,0.0,0.0,0.0,0.0,0.0,-6.08,-6.08,-6.08,-6.08,-6.08,-6.08,-6.08,-6.08,-6.08,-6.08,-6.08,0.0,-6.08,-6.08,-6.08,-6.08,-6.08,-6.08,-6.08,-6.08,-6.08,-6.08,-6.08,-6.08,-6.08,-6.08,-6.08,-6.08,-6.08,-6.08,-6.08,-6.08,-6.08,-6.08,-6.08,-6.08,-6.08,-6.08,-6.08,-6.08,0.0,0.0,0.0,0.0,0.0,0.0,0.0,0.0,0.0,0.0,0.0,0.0,0.0,0.0,0.0,0.0,0.0,0.0,0.0,-6.08,-6.08,-6.08,-6.08,-6.08,-6.08,-6.08,-6.08,-6.08,-6.08,-6.08,-6.08,-6.08,-6.08,-6.08,-6.08,-6.08,-6.08,-6.2358,-6.3262,-6.3288,-6.4955,-6.584,-6.5897,-6.5897,-6.5897,-6.5897,-6.5897,-6.5897,-6.5897,-6.5897,-6.5897,-6.5897,-6.5897,-6.5897,-6.5897,-6.5897,-6.5897,-6.5897,-6.5897,-6.5897,-6.5897,-6.5897,-6.5897,-6.5897,0.0,0.0,0.0,0.0,0.0,0.0,0.0,0.0,0.0,0.0,0.0,0.0,0.0,-6.08,-6.08,-6.08,-6.08,-6.08,-6.08,-6.08,-6.08,-6.08,-6.08,-6.08,-6.08,-6.08,-6.08,-6.08,-6.08,-6.08,-6.08,-6.08,-6.08,-6.08,-6.08,-6.08,-6.08,-6.08,0.0,0.0,0.0,0.0,0.0,0.0,0.0,0.0,0.0,0.0,0.0,0.0,0.0,0.0,0.0,0.0,0.0,0.0,0.0,0.0,0.0,0.0,0.0,0.0,0.0,0.0,0.0,0.0,0.0,0.0,0.0,0.0,0.0,-6.08,-6.08,-6.08,-6.08,-6.08,-6.08,-6.08,-6.08,-6.08,-6.08,-6.08,-6.08,-6.08,-6.08,-6.08,-6.08,-6.08,-6.08,-6.2397,-6.3288,-6.3288,-6.4993,-6.5897,-6.5897,-6.5897,-6.5897,-6.5897,-6.5897,-6.5897,-6.5897,-6.5897,-6.5897,-6.5897,-6.5897,-6.5897,-6.5897,-6.5897,-6.5897,-6.5897,-6.5897,-6.5897,-6.5897,-6.5897,-6.5897,-6.5897,0.0,0.0,0.0,0.0,0.0,0.0,0.0,0.0,0.0,-6.109,0.0,0.0,0.0,0.0,-6.08,-6.08,-6.08,-6.08,-6.08,-6.08,-6.08,-6.08,-6.08,-6.08,-6.08,-6.0242,-6.0242,-6.08,-6.0242,-6.0242,-6.08,-6.08,-6.08,-6.08,-6.08,-6.08,0.0,0.0,0.0,-6.08,0.0,0.0,-6.08,0.0,0.0,0.0,0.0,0.0,0.0,0.0,0.0,0.0,0.0,0.0,0.0,0.0,0.0,0.0,0.0,0.0,0.0,0.0,0.0,0.0,0.0,0.0,0.0,0.0,0.0,0.0,0.0,-6.08,-6.08,-6.08,-6.08,-6.08,-6.08,-6.08,-6.08,-6.08,-6.08,-6.08,-6.08,-6.08,-6.08,-6.08,-6.08,0.0,-6.08,-6.2127,-6.3166,-6.3724,-6.5147,-6.5897,-6.5897,-6.5897,-6.5897,-6.5897,-6.5897,-6.5897,-6.5897,-6.5897,-6.5897,-6.5897,-6.5897,-6.5897,-6.5897,-6.5897,-6.5897,-6.5897,-6.5897,-6.5897,-6.5897,-6.5897,-6.5897,-6.5897,0.0,0.0,0.0,0.0,0.0,0.0,0.0,0.0,-6.1436,-6.1233,0.0,0.0,0.0,0.0,0.0,-6.0812,-6.0812,-6.08,-6.08,-6.08,-6.08,-6.08,-6.08,-6.08,-6.08,-5.9204,-5.9165,-6.08,-5.9165,-5.9204,-6.08,-6.08,-6.08,-6.08,-6.08,-6.0812,-6.0812,0.0,-6.08,-6.08,0.0,-6.08,-6.08,0.0,0.0,0.0,-6.08,-6.08,0.0,-6.08,0.0,0.0,0.0,0.0,0.0,0.0,0.0,0.0,0.0,0.0,0.0,0.0,0.0,0.0,0.0,0.0,0.0,0.0,0.0,0.0,0.0,-6.08,-6.08,-6.08,-6.08,-6.08,-6.08,-6.08,-6.08,-6.08,-6.08,-6.08,-6.08,-6.08,-6.08,-6.08,-6.08,-6.08,-6.08,-6.1658,-6.2878,-6.4551,-6.5455,-6.5897,-6.5897,-6.5897,-6.5897,-6.5897,-6.5897,-6.5897,-6.5897,-6.5897,-6.5897,-6.5897,-6.5897,-6.5897,-6.5897,-6.5897,-6.5897,-6.5897,-6.5897,-6.5897,-6.5897,-6.5897,-6.5897,-6.5897,0.0,0.0,0.0,0.0,0.0,0.0,-6.1659,-6.1556,-6.148,0.0,0.0,0.0,-6.114,-6.1019,-6.0934,-6.0934,-6.0864,-6.08,-6.08,-6.08,-6.08,-6.08,-6.08,-6.08,-6.08,-6.0339,-6.0339,-6.08,-6.0339,-6.0339,-6.08,-6.08,-6.08,-6.08,-6.08,-6.0845,-6.0943,-6.0842,0.0,-6.08,-6.08,-6.08,0.0,0.0,0.0,0.0,0.0,-6.08,-6.08,0.0,-6.08,-6.08,0.0,0.0,0.0,0.0,0.0,0.0,-6.08,0.0,0.0,0.0,0.0,0.0,0.0,0.0,0.0,0.0,0.0,0.0,0.0,-6.08,-6.08,-6.08,-6.08,-6.08,-6.08,-6.08,-6.08,-6.08,-6.08,-6.08,-6.08,-6.08,-6.08,0.0,-6.08,-6.08,-6.08,-6.2185,-6.3474,-6.457,-6.5455,-6.5897,-6.5897,-6.5897,-6.5897,-6.5897,-6.5897,-6.5897,-6.5897,-6.5897,-6.5897,-6.5897,-6.5897,-6.5897,-6.5897,-6.5897,-6.5897,-6.5897,-6.5897,-6.5897,-6.5897,-6.5897,-6.5897,-6.5897,0.0,0.0,0.0,0.0,0.0,-6.1692,-6.1704,-6.164,-6.1589,0.0,0.0,0.0,-6.1213,-6.1124,-6.1072,-6.1002,-6.0974,-6.0934,-6.0899,-6.0943,-6.0974,-6.0974,-6.0902,-6.0869,-6.0869,-6.0145,-6.0108,-6.08,-6.0108,-6.0108,-6.08,-6.0864,-6.0845,-6.0793,-6.0913,0.0,0.0,0.0,0.0,0.0,-6.0934,0.0,0.0,-6.0963,-6.0933,0.0,0.0,0.0,-6.08,-6.08,-6.08,0.0,0.0,0.0,0.0,0.0,0.0,0.0,0.0,0.0,0.0,0.0,0.0,0.0,-6.08,-6.08,-6.08,0.0,-6.08,0.0,0.0,-6.08,-6.08,-6.08,-6.08,-6.08,-6.08,-6.08,-6.08,-6.08,-6.08,-6.08,-6.08,-6.08,-6.08,-6.08,-6.08,-6.0954,-6.132,-6.2589,-6.3705,-6.457,-6.5455,-6.5897,-6.5897,-6.5897,-6.5897,-6.5897,-6.5897,-6.5897,-6.5897,-6.5897,-6.5897,-6.5897,-6.5897,-6.5897,-6.5897,-6.5897,-6.5897,-6.5897,-6.5897,-6.5897,-6.5897,-6.5897,-6.5897,-6.5897,0.0,0.0,0.0,-6.1698,-6.1697,-6.1696,-6.1692,-6.1704,-6.1699,0.0,-6.1605,-6.1452,-6.1292,-6.124,-6.1196,-6.1074,-6.114,-6.1147,-6.1028,-6.1132,-6.1206,-6.1206,-6.1087,-6.102,-6.1002,-5.9435,-5.9348,-6.0827,-5.9348,-5.9378,-6.0853,-6.0974,-6.0954,-6.0845,0.0,0.0,0.0,0.0,0.0,-6.1055,-6.1162,-6.1124,0.0,0.0,-6.1136,-6.101,-6.101,-6.0943,-6.0816,-6.0812,-6.08,0.0,0.0,0.0,0.0,0.0,-6.08,0.0,0.0,0.0,0.0,0.0,0.0,0.0,-6.08,-6.08,-6.08,-6.08,-6.08,0.0,0.0,0.0,-6.08,-6.08,-6.08,-6.08,-6.08,-6.08,-6.08,-6.08,-6.08,-6.08,-6.08,-6.08,-6.08,-6.08,-6.0877,-6.1293,-6.2062,-6.2954,-6.3801,-6.4589,-6.5455,-6.5897,-6.5897,-6.5897,-6.5897,-6.5897,-6.5897,-6.5897,-6.5897,-6.5897,-6.5897,-6.5897,-6.5897,-6.5897,-6.5897,-6.5897,-6.5897,-6.5897,-6.5897,-6.5897,-6.5897,-6.5897,-6.5897,-6.5897,0.0,0.0,0.0,-6.1699,-6.1699,-6.1699,-6.1697,-6.1692,-6.1705,-6.1699,-6.1679,-6.166,-6.1609,-6.1509,-6.1431,-6.1409,-6.1279,-6.1199,-6.1162,-6.1192,-6.1206,-6.1206,-6.1177,-6.112,-6.1002,-6.0769,-6.0732,-6.0954,-6.0732,-6.0806,-6.1116,-6.1147,-6.1147,-6.1116,-6.1184,0.0,0.0,0.0,0.0,-6.1379,-6.1246,0.0,-6.117,-6.1199,-6.1172,-6.1162,-6.1162,-6.107,-6.0934,-6.085,-6.08,-6.08,0.0,0.0,0.0,-6.08,0.0,0.0,0.0,0.0,0.0,0.0,0.0,0.0,-6.08,-6.08,-6.08,0.0,-6.08,0.0,0.0,0.0,-6.08,-6.08,-6.08,-6.08,-6.08,-6.08,-6.08,-6.08,-6.08,-6.08,-6.08,-6.08,-6.08,-6.08,-6.1447,-6.1928,-6.2101,-6.3531,-6.4416,-6.4589,-6.5455,-6.5897,-6.5897,-6.5897,-6.5897,-6.5897,-6.5897,-6.5897,-6.5897,-6.5897,-6.5897,-6.5897,-6.5897,-6.5897,-6.5897,-6.5897,-6.5897,-6.5897,-6.5897,-6.5897,-6.5897,-6.5897,-6.5897,-6.5897,0.0,0.0,0.0,-6.1699,-6.1699,-6.1699,-6.1699,-6.1697,-6.1693,-6.1691,-6.1699,-6.1707,-6.1701,-6.1634,-6.1576,-6.1514,-6.1471,-6.1427,-6.1353,-6.1402,-6.1451,-6.1451,-6.1381,-6.1317,-6.1245,-6.1225,-6.117,-6.1103,-6.117,-6.1206,-6.1193,-6.1298,-6.1298,-6.1213,-6.1362,-6.1471,0.0,0.0,-6.1595,-6.1591,-6.1489,0.0,-6.1353,-6.1413,-6.1417,-6.1348,-6.1348,-6.1189,-6.0983,-6.0913,-6.0864,0.0,0.0,-6.08,-6.08,0.0,-6.08,-6.08,0.0,0.0,0.0,-6.08,0.0,0.0,0.0,-6.08,-6.08,-6.08,-6.08,0.0,0.0,0.0,0.0,-6.08,-6.08,-6.08,-6.08,-6.08,-6.08,-6.08,-6.08,-6.08,-6.08,-6.08,-6.0973,-6.1427,-6.1851,-6.2466,-6.3301,-6.4147,-6.4801,-6.5224,-6.5667,-6.5897,-6.5897,-6.5897,-6.5897,-6.5897,-6.5897,-6.5897,-6.5897,-6.5897,-6.5897,-6.5897,-6.5897,-6.5897,-6.5897,-6.5897,-6.5897,-6.5897,-6.5897,-6.5897,-6.5897,-6.5897,-6.5897,-6.5897,0.0,0.0,0.0,0.0,-6.1699,-6.1699,-6.1699,-6.1698,-6.1697,-6.1695,-6.1708,-6.1696,-6.1705,-6.1705,-6.1652,-6.1557,-6.1643,-6.1649,-6.1549,-6.164,-6.1703,-6.1698,-6.1591,-6.1528,-6.149,-6.1365,-6.1278,-6.1272,-6.1278,-6.131,-6.1291,-6.1461,-6.1456,-6.1316,-6.1576,-6.1634,0.0,0.0,0.0,-6.1698,0.0,-6.1631,-6.1545,-6.1663,-6.1631,-6.1537,-6.1514,-6.1331,-6.11,-6.102,-6.0923,-6.0831,-6.0823,-6.08,0.0,0.0,0.0,0.0,0.0,0.0,0.0,0.0,0.0,-6.08,0.0,0.0,0.0,0.0,0.0,0.0,0.0,0.0,0.0,0.0,0.0,0.0,0.0,-6.1069,0.0,-6.0839,-6.08,-6.08,-6.08,-6.08,-6.1223,-6.2255,-6.232,-6.2993,-6.4512,-6.4762,-6.5166,-6.5878,-6.5897,-6.5897,-6.5897,-6.5897,-6.5897,-6.5897,-6.5897,-6.5897,-6.5897,-6.5897,-6.5897,-6.5897,-6.5897,-6.5897,-6.5897,-6.5897,-6.5897,-6.5897,-6.5897,-6.5897,-6.5897,-6.5897,-6.5897,-6.5897,-6.1699,-6.1699,0.0,0.0,-6.1699,-6.1699,-6.1699,-6.1698,-6.1695,-6.1702,-6.1705,-6.1705,-6.1697,-6.1702,0.0,-6.1681,-6.1684,-6.1683,-6.167,-6.1694,-6.1692,-6.1701,-6.1693,-6.1625,-6.149,-6.1595,-6.1572,-6.1471,-6.1572,-6.164,-6.164,-6.1668,-6.1668,-6.164,-6.1674,0.0,0.0,0.0,-6.1698,0.0,-6.1698,-6.1696,0.0,-6.1696,-6.1696,-6.1663,-6.1541,-6.1476,-6.1404,0.0,-6.0983,-6.0954,0.0,-6.08,-6.08,-6.08,0.0,0.0,0.0,0.0,0.0,0.0,-6.08,0.0,0.0,0.0,-6.08,-6.08,0.0,0.0,0.0,0.0,0.0,0.0,0.0,0.0,-6.0916,-6.2089,-6.2454,-6.0973,-6.08,-6.08,-6.08,-6.08,-6.1454,-6.3051,-6.3166,-6.3589,-6.4551,-6.532,-6.5801,-6.5897,-6.5897,-6.5897,-6.5897,-6.5897,-6.5897,-6.5897,-6.5897,-6.5897,-6.5897,-6.5897,-6.5897,-6.5897,-6.5897,-6.5897,-6.5897,-6.5897,-6.5897,-6.5897,-6.5897,-6.5897,-6.5897,-6.5897,-6.5897,-6.5897,-6.1679,-6.1699,0.0,0.0,-6.1699,-6.1699,-6.1699,-6.1699,-6.1698,-6.1693,-6.1691,-6.1707,0.0,0.0,0.0,0.0,0.0,-6.1701,0.0,0.0,-6.1694,-6.1701,-6.1698,-6.1668,-6.1621,-6.1668,-6.1668,-6.1621,-6.1668,-6.1698,-6.1698,-6.1698,-6.1698,-6.1698,-6.1698,0.0,-6.1698,0.0,-6.1698,0.0,0.0,0.0,0.0,-6.1698,-6.1698,-6.1696,-6.1631,-6.1573,-6.1476,0.0,-6.1155,0.0,0.0,0.0,0.0,0.0,0.0,0.0,0.0,0.0,0.0,0.0,0.0,0.0,-6.08,0.0,-6.08,0.0,0.0,0.0,0.0,0.0,0.0,0.0,-6.232,0.0,0.0,0.0,-6.3051,0.0,0.0,0.0,-6.2243,-6.2243,-6.2762,-6.3955,-6.4051,-6.4436,-6.5301,-6.5705,-6.5897,-6.5897,-6.5897,-6.5897,-6.5897,-6.5897,-6.5897,-6.5897,-6.5897,-6.5897,-6.5897,-6.5897,-6.5897,-6.5897,-6.5897,-6.5897,-6.5897,-6.5897,-6.5897,-6.5897,-6.5897,-6.5897,-6.5897,-6.5897,-6.5897,-6.5897,-6.158,0.0,0.0,0.0,0.0,0.0,-6.1677,-6.1698,-6.1699,-6.1697,-6.1695,0.0,-6.1702,-6.1697,0.0,0.0,-6.1707,-6.1707,0.0,0.0,-6.1701,0.0,0.0,0.0,0.0,-6.1701,-6.1698,-6.1698,-6.1698,-6.1698,-6.1698,-6.1698,-6.1698,-6.1698,0.0,-6.1698,-6.1698,0.0,-6.1698,-6.1698,-6.1698,-6.1698,-6.1698,-6.1698,-6.1698,-6.1698,-6.1698,-6.1634,-6.1545,-6.1519,-6.1337,0.0,-6.1184,-6.1062,0.0,0.0,0.0,0.0,-6.0845,0.0,0.0,0.0,0.0,0.0,0.0,0.0,0.0,0.0,0.0,0.0,0.0,0.0,0.0,-6.2916,0.0,-6.357,0.0,0.0,0.0,0.0,0.0,0.0,0.0,-6.3455,-6.3762,-6.4878,-6.4743,-6.4974,-6.584,-6.5897,-6.5897,-6.5897,-6.5897,-6.5897,-6.5897,-6.5897,-6.5897,-6.5897,-6.5897,-6.5897,-6.5897,-6.5897,-6.5897,-6.5897,-6.5897,-6.5897,-6.5897,-6.5897,-6.5897,-6.5897,-6.5897,-6.5897,-6.5897,-6.5897,-6.5897,-6.5897,-6.1402,-6.1402,0.0,0.0,0.0,0.0,0.0,0.0,0.0,0.0,0.0,0.0,0.0,0.0,0.0,0.0,0.0,-6.1699,-6.1697,0.0,-6.1695,0.0,0.0,-6.1697,0.0,0.0,-6.1698,-6.1698,-6.1698,-6.1698,-6.1698,-6.1698,-6.1698,-6.1698,-6.1698,-6.1698,-6.1698,-6.1698,-6.1698,-6.1698,-6.1698,-6.1698,-6.1698,0.0,-6.1698,-6.1698,-6.1698,0.0,0.0,-6.1541,-6.1486,-6.1441,-6.1253,0.0,0.0,0.0,0.0,0.0,0.0,0.0,0.0,-6.08,0.0,0.0,0.0,0.0,-6.1031,0.0,0.0,0.0,0.0,0.0,-6.3031,-6.2274,-6.3493,0.0,0.0,0.0,0.0,0.0,0.0,0.0,0.0,-6.3801,-6.4012,-6.5724,-6.507,-6.4974,-6.584,-6.5897,-6.5897,-6.5897,-6.5897,-6.5897,-6.5897,-6.5897,-6.5897,-6.5897,-6.5897,-6.5897,-6.5897,-6.5897,-6.5897,-6.5897,-6.5897,-6.5897,-6.5897,-6.5897,-6.5897,-6.5897,-6.5897,-6.5897,-6.5897,-6.5897,-6.5897,-6.5897,0.0,0.0,0.0,0.0,0.0,0.0,0.0,-6.1557,0.0,0.0,0.0,0.0,0.0,-6.1694,-6.1694,0.0,0.0,-6.1698,-6.1697,-6.1697,0.0,0.0,0.0,-6.1704,0.0,0.0,0.0,0.0,-6.1698,-6.1698,-6.1698,-6.1698,-6.1698,-6.1698,0.0,-6.1698,0.0,0.0,0.0,0.0,0.0,-6.1698,-6.1698,0.0,-6.1698,-6.1698,-6.1698,-6.1698,-6.1696,-6.1657,-6.158,-6.1495,-6.1526,-6.1387,-6.1226,-6.1353,-6.1266,-6.1124,-6.1124,-6.1103,-6.1046,-6.0954,0.0,0.0,0.0,0.0,0.0,0.0,0.0,0.0,0.0,0.0,-6.4262,-6.457,-6.5089,-6.5359,0.0,0.0,0.0,0.0,0.0,0.0,0.0,0.0,-6.5263,-6.5859,-6.5628,-6.559,-6.5878,-6.5897,-6.5897,-6.5897,-6.5897,-6.5897,-6.5897,-6.5897,-6.5897,-6.5897,-6.5897,-6.5897,-6.5897,-6.5897,-6.5897,-6.5897,-6.5897,-6.5897,-6.5897,-6.5897,-6.5897,-6.5897,-6.5897,-6.5897,-6.5897,-6.5897,-6.5897,-6.5897,-6.1099,0.0,0.0,0.0,0.0,0.0,0.0,0.0,0.0,0.0,-6.1575,0.0,-6.1659,0.0,-6.1679,0.0,-6.1698,-6.1698,-6.1698,-6.1698,0.0,-6.1695,-6.1694,0.0,0.0,0.0,0.0,0.0,0.0,-6.1698,-6.1698,-6.1698,-6.1698,-6.1698,0.0,-6.1698,-6.1698,0.0,-6.1698,0.0,0.0,-6.1698,0.0,0.0,-6.1698,-6.1698,-6.1698,-6.1698,-6.1698,-6.1698,-6.1634,-6.1588,-6.1668,-6.1545,-6.1402,-6.1534,-6.1442,-6.1304,-6.1316,-6.1259,-6.1184,-6.1112,-6.1106,0.0,-6.0913,0.0,-6.109,0.0,0.0,0.0,0.0,0.0,-6.5243,-6.5801,-6.5897,-6.5897,0.0,-6.5897,0.0,0.0,0.0,0.0,0.0,0.0,-6.5897,-6.5897,-6.5897,-6.5897,-6.5897,-6.5897,-6.5897,-6.5897,-6.5897,-6.5897,-6.5897,-6.5897,-6.5897,-6.5897,-6.5897,-6.5897,-6.5897,-6.5897,-6.5897,-6.5897,-6.5897,-6.5897,-6.5897,-6.5897,-6.5897,-6.5897,-6.5897,-6.5897,-6.5897,-6.5897,-6.5897,-6.5897,0.0,0.0,0.0,0.0,-6.1209,0.0,0.0,0.0,-6.1403,0.0,-6.1407,-6.1455,-6.1573,-6.1596,-6.163,-6.1698,-6.1699,-6.1699,-6.1699,-6.1699,0.0,0.0,-6.1698,-6.1697,-6.1697,0.0,0.0,0.0,0.0,0.0,-6.1698,0.0,0.0,0.0,-6.1698,0.0,-6.1698,-6.1698,-6.1698,-6.1698,-6.1698,-6.1698,-6.1698,-6.1698,-6.1698,-6.1698,-6.1698,-6.1698,-6.1698,-6.1698,-6.1698,-6.1698,-6.1698,-6.1698,-6.1701,-6.1694,-6.1615,-6.1504,-6.1506,-6.1367,-6.124,-6.1305,-6.1311,-6.1253,-6.1056,0.0,-6.1223,0.0,0.0,0.0,0.0,0.0,-6.5852,-6.5878,-6.5897,-6.5897,0.0,0.0,0.0,0.0,0.0,0.0,0.0,-6.5897,-6.5897,-6.5897,-6.5897,0.0,0.0,-6.5897,-6.5897,-6.5897,-6.5897,-6.5897,-6.5897,-6.5897,-6.5897,-6.5897,-6.591,-6.5903,-6.5903,-6.5903,-6.5903,-6.5903,-6.591,-6.5897,-6.5897,-6.5897,-6.5897,-6.5897,-6.5897,-6.5897,-6.5897,-6.5897,-6.5897,-6.5897,-6.1099,-6.1099,-6.1099,0.0,-6.1116,-6.1152,0.0,0.0,0.0,0.0,-6.1367,-6.1411,-6.1456,-6.1456,-6.1508,-6.1621,-6.1623,0.0,0.0,0.0,0.0,-6.1699,-6.1699,-6.1698,-6.1697,-6.1691,0.0,-6.1697,0.0,0.0,-6.1698,0.0,0.0,0.0,0.0,0.0,-6.1698,-6.1698,-6.1698,-6.1698,-6.1698,-6.1698,-6.1698,0.0,-6.1698,-6.1698,-6.1698,-6.1698,-6.1698,-6.1698,-6.1698,-6.1698,-6.1698,-6.1698,-6.1701,-6.1703,-6.1681,-6.1657,-6.164,-6.161,-6.1547,-6.1471,-6.1446,-6.1408,-6.1266,-6.1155,-6.1303,-6.2141,0.0,0.0,0.0,-6.4874,-6.5197,0.0,0.0,0.0,0.0,0.0,0.0,-6.5897,0.0,0.0,0.0,-6.5897,-6.5897,-6.5897,-6.5897,0.0,-6.5897,0.0,-6.5897,-6.5897,-6.5897,-6.5897,-6.5897,-6.5897,-6.5897,-6.5897,-6.5994,-6.6044,-6.6044,-6.6044,-6.6044,-6.6033,-6.5946,-6.5897,-6.5897,-6.5897,-6.5897,-6.5897,-6.5897,-6.5897,-6.5897,-6.5897,-6.5897,-6.5897,-6.1099,0.0,0.0,-6.1099,0.0,0.0,-6.1099,-6.115,0.0,-6.1217,-6.1262,0.0,-6.1353,-6.1359,-6.1408,-6.1501,-6.1504,0.0,-6.1652,0.0,0.0,-6.1699,-6.1699,-6.1699,-6.1698,-6.1695,0.0,-6.1702,0.0,0.0,-6.1698,0.0,0.0,0.0,0.0,-6.1698,0.0,-6.1698,-6.1698,-6.1698,-6.1698,-6.1698,0.0,-6.1698,-6.1698,-6.1698,-6.1698,-6.1698,-6.1698,-6.1698,-6.1703,-6.1707,-6.1701,-6.1707,-6.1694,-6.1694,-6.1699,-6.1704,-6.1708,-6.1705,-6.1681,-6.1612,-6.1581,-6.1543,-6.1415,-6.1334,-6.1407,-6.1829,-6.2114,-6.2578,-6.3554,-6.4277,0.0,0.0,0.0,0.0,0.0,0.0,0.0,0.0,-6.5897,0.0,0.0,-6.5897,-6.5897,-6.5897,-6.5897,0.0,0.0,0.0,-6.5897,-6.5897,-6.5897,-6.5897,-6.5897,-6.5897,-6.5921,-6.599,-6.6005,-6.6033,-6.6108,-6.6041,-6.6016,-6.6005,-6.5921,-6.5897,-6.5897,-6.5897,-6.5897,-6.5897,-6.5897,-6.5897,-6.5897,-6.5897,-6.5897,-6.5897,-6.1099,0.0,0.0,0.0,0.0,0.0,0.0,-6.1099,0.0,-6.1099,0.0,-6.1143,-6.1259,-6.1274,-6.1298,-6.1383,0.0,-6.1435,-6.1571,-6.1581,-6.1621,-6.1679,-6.1699,-6.1699,-6.1699,-6.1698,-6.1695,0.0,0.0,0.0,0.0,0.0,0.0,0.0,0.0,0.0,0.0,-6.1698,-6.1698,-6.1698,-6.1698,-6.1698,-6.1698,-6.1698,-6.1698,-6.1698,-6.1701,-6.1701,-6.1698,-6.1701,-6.1709,-6.1696,-6.1707,-6.1697,-6.1709,-6.1709,-6.1709,-6.1692,-6.1696,-6.1695,-6.1692,-6.1697,-6.1697,-6.1674,-6.1547,-6.1512,-6.1472,-6.1359,-6.1843,-6.2315,-6.2478,-6.3719,0.0,0.0,0.0,0.0,0.0,0.0,0.0,0.0,0.0,0.0,0.0,0.0,0.0,0.0,0.0,0.0,0.0,0.0,-6.5897,-6.5897,-6.5916,-6.5916,-6.5897,-6.5933,-6.5994,-6.6108,-6.5994,-6.6016,-6.6119,-6.599,-6.5928,-6.5928,-6.5923,-6.5897,-6.5897,-6.5897,-6.591,-6.591,-6.591,-6.5903,-6.5903,-6.5903,-6.5903,-6.5903,0.0,0.0,0.0,0.0,0.0,-6.1099,-6.1099,-6.1099,-6.1099,-6.1099,-6.1099,-6.1108,-6.1125,-6.1134,-6.1184,-6.1311,-6.1324,0.0,0.0,0.0,0.0,-6.1616,-6.1677,-6.1699,-6.1699,-6.1698,-6.1697,0.0,0.0,0.0,0.0,0.0,0.0,0.0,0.0,0.0,-6.1698,-6.1698,0.0,-6.1698,-6.1698,-6.1698,-6.1698,-6.1698,-6.1698,-6.1701,-6.1692,-6.1709,-6.1701,-6.1692,-6.1696,-6.1699,-6.1704,-6.1707,-6.1709,-6.1709,-6.1693,-6.1696,-6.1697,-6.1697,-6.1697,-6.1699,-6.1698,-6.1697,-6.1678,-6.1626,-6.1579,-6.1549,-6.156,-6.1762,-6.2393,-6.3748,-6.5041,0.0,0.0,0.0,0.0,0.0,0.0,0.0,0.0,-6.5897,0.0,0.0,0.0,0.0,0.0,0.0,0.0,0.0,-6.5897,0.0,-6.6005,-6.6016,-6.5897,-6.6119,-6.6203,-6.6108,-6.6184,-6.6234,-6.6259,-6.6129,-6.6065,-6.6054,-6.5958,-6.5897,-6.5897,-6.5897,-6.5935,-6.5984,-6.5984,-6.597,-6.5978,-6.5978,-6.5978,-6.5986,0.0,0.0,0.0,0.0,0.0,0.0,0.0,-6.1099,-6.1099,-6.1099,-6.1099,-6.1099,-6.1099,-6.1099,-6.1136,-6.1192,-6.12,-6.1232,-6.1336,-6.1402,-6.1491,-6.1603,-6.1623,-6.1656,-6.1699,-6.1699,-6.1698,-6.1697,0.0,0.0,-6.1697,0.0,0.0,0.0,0.0,-6.1698,0.0,0.0,-6.1709,-6.169,-6.1696,-6.1697,-6.1697,-6.1697,-6.1697,-6.1697,-6.1702,-6.1701,-6.1697,-6.1702,-6.1707,-6.1691,-6.1709,-6.1694,-6.1697,-6.1695,-6.1697,-6.1698,-6.1698,-6.1698,-6.1699,-6.1699,-6.1699,-6.1699,-6.1699,-6.1677,-6.1652,-6.1652,-6.1564,-6.172,-6.2413,-6.3438,-6.4444,-6.5294,0.0,0.0,0.0,0.0,0.0,0.0,0.0,0.0,0.0,0.0,0.0,0.0,0.0,0.0,0.0,0.0,-6.5897,0.0,0.0,-6.6076,-6.6005,-6.6202,-6.6314,-6.6361,-6.6245,-6.6226,-6.6279,-6.6088,-6.6013,-6.5982,-6.594,-6.5923,-6.596,-6.5946,-6.5982,-6.6005,-6.6005,-6.5998,-6.6001,-6.6001,-6.6024,-6.6047,0.0,-6.1099,0.0,0.0,-6.1099,-6.1099,-6.1099,-6.1099,-6.1099,-6.1099,-6.1099,-6.1099,-6.1099,-6.1099,-6.1099,-6.1099,-6.1099,-6.1143,-6.1252,-6.1289,-6.1367,-6.1524,-6.1573,-6.1619,-6.1678,-6.1699,-6.1699,0.0,0.0,0.0,-6.1427,0.0,0.0,0.0,0.0,0.0,0.0,-6.1697,-6.1701,-6.1701,-6.1707,-6.1709,-6.1709,-6.1709,-6.1709,-6.1709,-6.1691,-6.1692,-6.1692,-6.1693,-6.1695,-6.1697,-6.1694,-6.1697,-6.1699,-6.1698,-6.1699,-6.1699,-6.1699,-6.1699,-6.1699,-6.1699,-6.1699,-6.1699,-6.1699,-6.1699,-6.1699,-6.1699,-6.1649,-6.1819,-6.2508,-6.3068,-6.3685,-6.4507,0.0,0.0,0.0,0.0,0.0,0.0,0.0,0.0,-6.5923,0.0,0.0,0.0,0.0,0.0,-6.5897,0.0,0.0,0.0,-6.6054,-6.6129,-6.6108,-6.6279,-6.6426,-6.6532,-6.6239,-6.6157,-6.6251,-6.6016,-6.591,-6.5923,-6.5923,-6.594,-6.6001,-6.6009,-6.6013,-6.6024,-6.6024,-6.6036,-6.6047,-6.6047,-6.608,-6.6112,0.0,0.0,0.0,0.0,0.0,-6.1099,-6.1099,-6.1099,-6.1099,-6.1099,-6.1099,-6.1099,-6.1099,-6.1099,-6.1099,-6.1099,-6.1099,-6.1108,-6.1126,-6.1229,-6.1297,-6.1324,-6.1502,-6.1607,-6.1612,-6.1676,-6.1699,0.0,0.0,-6.1305,-6.0538,-6.1331,0.0,0.0,-6.1696,-6.1701,-6.1707,-6.1708,-6.1708,-6.1708,-6.1708,-6.1709,-6.1709,-6.1709,-6.1709,-6.169,-6.1695,-6.1697,-6.1697,-6.1699,-6.1698,-6.1697,-6.1699,-6.1699,-6.1699,-6.1699,-6.1699,-6.1699,-6.1699,-6.1699,-6.1699,-6.1699,-6.1699,-6.1699,-6.1699,-6.1699,-6.1699,-6.1699,-6.1649,-6.1832,-6.2642,-6.278,-6.3001,-6.3688,-6.3876,0.0,0.0,0.0,-6.5098,-6.59,0.0,0.0,0.0,-6.5935,0.0,0.0,-6.5935,0.0,0.0,0.0,0.0,-6.5897,-6.6138,-6.6209,-6.6108,-6.6411,-6.6489,-6.6329,-6.6176,-6.6118,-6.6109,-6.5974,-6.5935,-6.5996,-6.5996,-6.5982,-6.6001,-6.6001,-6.6036,-6.6091,-6.6091,-6.6123,-6.6184,-6.6184,-6.6194,-6.6194,0.0,0.0,0.0,0.0,0.0,0.0,0.0,-6.1099,-6.1099,-6.1099,-6.1099,-6.1099,-6.1099,-6.1099,-6.1099,-6.1099,-6.1099,-6.1099,-6.1099,-6.1152,-6.1225,-6.1303,-6.1373,-6.1478,-6.1603,-6.1621,-6.1654,0.0,0.0,0.0,0.0,-6.1537,-6.1709,-6.1705,-6.1705,-6.1707,-6.1709,-6.1693,-6.1695,-6.1695,-6.1697,-6.1697,-6.1697,-6.1697,-6.1697,-6.1698,-6.1698,-6.1699,-6.1699,-6.1699,-6.1699,-6.1699,-6.1699,-6.1699,-6.1699,-6.1699,-6.1699,-6.1699,-6.1699,-6.1699,-6.1699,-6.1699,-6.1699,-6.1699,-6.1699,-6.1699,-6.1699,-6.1699,-6.1678,-6.1751,-6.2079,-6.2471,-6.2855,-6.3166,-6.3558,0.0,0.0,0.0,0.0,-6.5203,0.0,0.0,0.0,0.0,0.0,0.0,0.0,0.0,0.0,-6.5897,-6.5897,-6.5897,0.0,-6.6245,-6.6108,-6.6425,-6.6569,-6.6477,-6.6256,-6.6205,-6.6262,-6.6063,-6.5974,-6.5998,-6.6032,-6.6066,-6.6069,-6.6102,-6.6134,-6.6155,-6.6155,-6.6184,-6.6205,-6.6205,-6.6205,-6.6205,-6.1099,0.0,-6.1099,0.0,-6.1099,-6.1099,-6.1099,-6.1099,-6.1099,-6.1099,-6.1099,-6.1099,-6.1099,-6.1099,-6.1099,-6.1099,-6.1099,-6.1099,-6.1099,-6.1099,-6.1143,-6.1229,-6.1281,0.0,-6.1506,-6.153,-6.1588,-6.1677,-6.1677,0.0,-6.1326,-6.1325,-6.1441,-6.1692,-6.1692,-6.1693,-6.1695,-6.1697,-6.1698,-6.1698,-6.1699,-6.1543,-6.1328,-6.1328,-6.1172,-6.0957,-6.0957,-6.0957,-6.0957,-6.0957,-6.1113,-6.1367,-6.1621,-6.1699,-6.1699,-6.1699,-6.1699,-6.1699,-6.1699,-6.1699,-6.1699,-6.1699,-6.1699,-6.1699,-6.1699,-6.1699,-6.1699,-6.1699,-6.1699,-6.1699,-6.1699,-6.2138,-6.2484,-6.2493,-6.2891,-6.3253,0.0,-6.3463,0.0,0.0,-6.4716,-6.5073,-6.5621,-6.5895,0.0,0.0,0.0,0.0,0.0,-6.595,-6.5978,-6.599,-6.6251,-6.6346,-6.6251,-6.6476,-6.6595,-6.6595,-6.6376,-6.6303,-6.6379,-6.6221,-6.6158,-6.6158,-6.6187,-6.6177,-6.6187,-6.6245,-6.6254,-6.6254,-6.6254,-6.6272,-6.6316,-6.6282,-6.6272,-6.6323,-6.1099,-6.1099,-6.1099,-6.1099,-6.1099,-6.1099,-6.1099,-6.1099,-6.1099,-6.1099,-6.1099,-6.1099,-6.1099,-6.1099,-6.1099,-6.1099,-6.1099,-6.1099,-6.1099,-6.1099,-6.1099,0.0,0.0,-6.131,-6.129,-6.1362,-6.1479,-6.1605,0.0,-6.1199,-6.0427,-6.0423,-6.0874,-6.1697,-6.1697,-6.1698,-6.1699,-6.1699,-6.1699,-6.1699,-6.1699,-6.1172,-6.043,-6.043,-5.9922,-5.9238,-5.9238,-5.9238,-5.9238,-5.9238,-5.9765,-6.0566,-6.1426,-6.1699,-6.1699,-6.1699,-6.1699,-6.1699,-6.1699,-6.1699,-6.1699,-6.1699,-6.1699,-6.1699,-6.1699,-6.1699,-6.1699,-6.1699,-6.1699,-6.1699,-6.1699,-6.1719,-6.1677,-6.1534,-6.1576,-6.1868,0.0,-6.2608,0.0,-6.3641,-6.4356,-6.484,-6.4903,-6.5634,0.0,0.0,0.0,0.0,0.0,-6.6067,-6.6128,-6.6202,-6.646,-6.6604,-6.6584,-6.6604,-6.6608,-6.6604,-6.6466,-6.6406,-6.6406,-6.6476,-6.6493,-6.6488,-6.6417,-6.6404,-6.6404,-6.6404,-6.6404,-6.6404,-6.6404,-6.6478,-6.6574,-6.6443,-6.6484,-6.6609,-6.0286,-6.0712,-6.1099,-6.1099,-6.1099,-6.1099,-6.1099,-6.1099,-6.1099,-6.1099,-6.1099,-6.1099,-6.1099,-6.1099,-6.1099,0.0,-6.1099,-6.1099,0.0,-6.1099,-6.1099,-6.1099,-6.1143,-6.1209,-6.1303,-6.1311,-6.1376,-6.1456,-6.1565,-6.1489,-6.1289,-6.1288,-6.1425,-6.1699,-6.1699,-6.1699,-6.1699,-6.1699,-6.1699,-6.164,-6.1055,-6.0644,-6.0332,-5.9785,-5.9414,-5.9199,-5.9199,-5.9199,-5.9199,-5.9199,-5.9375,-5.9726,-6.0547,-6.1211,-6.1699,-6.1699,-6.1699,-6.1699,-6.1699,-6.1699,-6.1699,-6.1699,-6.1699,-6.1699,-6.1699,-6.1699,-6.1699,-6.1699,-6.1699,-6.1699,-6.1699,-6.1699,-6.1699,-6.1636,-6.1656,-6.1726,-6.1891,0.0,-6.2232,-6.2941,-6.3311,-6.3711,-6.4247,-6.4481,0.0,0.0,0.0,0.0,-6.624,-6.6295,-6.6305,-6.6339,-6.6503,-6.656,-6.6466,-6.656,-6.6608,-6.6608,-6.6507,-6.6488,-6.6549,-6.6555,-6.656,-6.6579,-6.6552,-6.6534,-6.6534,-6.6534,-6.6534,-6.6534,-6.6534,-6.6558,-6.659,-6.6552,-6.6563,-6.6605,-5.9416,-5.9822,-6.0267,-6.0596,-6.0654,-6.075,-6.106,-6.1099,-6.1099,-6.1099,-6.1099,-6.1099,-6.1099,-6.1099,-6.1099,-6.1099,-6.1099,-6.1099,-6.1099,-6.1099,-6.1099,-6.1099,-6.1099,-6.1134,-6.1213,-6.1213,-6.1276,-6.1351,-6.1524,-6.1618,-6.1655,-6.1698,-6.1699,-6.1699,-6.1699,-6.1699,-6.168,-6.1348,-6.1211,-6.1133,-6.0293,-5.9746,-5.9414,-5.8906,-5.8515,-5.8223,-5.8223,-5.8223,-5.8223,-5.8223,-5.8437,-5.8808,-5.9297,-6.0273,-6.1289,-6.1601,-6.1699,-6.1699,-6.1699,-6.1699,-6.1699,-6.1699,-6.1699,-6.1699,-6.1699,-6.1699,-6.1699,-6.1699,-6.1699,-6.1699,-6.1699,-6.1699,-6.1699,-6.1699,-6.1699,-6.1698,-6.1648,-6.1677,-6.1848,-6.2204,-6.26,-6.3039,-6.3494,-6.3808,-6.4184,0.0,0.0,0.0,-6.5582,-6.6151,-6.6455,-6.6508,-6.6632,-6.6667,-6.658,-6.6664,-6.6702,-6.6702,-6.6675,-6.6665,-6.6714,-6.6714,-6.6714,-6.671,-6.6662,-6.665,-6.665,-6.665,-6.665,-6.665,-6.665,-6.667,-6.671,-6.6662,-6.667,-6.672,-5.8507,-5.8574,-5.8864,-5.9667,-5.9803,-6.0054,-6.0809,-6.0925,-6.0925,-6.0925,-6.0925,-6.0925,-6.0925,-6.0983,-6.1021,-6.1021,-6.1079,-6.1099,-6.1099,-6.1099,-6.1099,-6.1099,-6.1099,-6.1099,-6.1099,-6.1099,-6.1178,-6.131,-6.1491,-6.1598,-6.1605,-6.1654,-6.1679,-6.1699,-6.1699,-6.166,-6.1543,-6.0742,-6.0371,-6.0254,-5.9433,-5.8613,-5.789,-5.7832,-5.7305,-5.6601,-5.6601,-5.6601,-5.6601,-5.6601,-5.7148,-5.7812,-5.7871,-5.9004,-6.0488,-6.1367,-6.164,-6.1699,-6.1699,-6.1699,-6.1699,-6.1699,-6.1699,-6.1699,-6.1699,-6.1699,-6.1699,-6.1699,-6.1699,-6.1699,-6.1699,-6.1699,-6.1699,-6.1699,-6.1699,-6.1699,-6.1699,-6.1699,-6.1657,-6.154,-6.2229,-6.2716,-6.2722,-6.3461,-6.4011,-6.4198,0.0,0.0,-6.4277,-6.5585,-6.6395,-6.6527,-6.6656,-6.6719,-6.6719,-6.6719,-6.6719,-6.6719,-6.6777,-6.6816,-6.6816,-6.6875,-6.6894,-6.6894,-6.6779,-6.6705,-6.6705,-6.6705,-6.6705,-6.6705,-6.6705,-6.6785,-6.6875,-6.6758,-6.6785,-6.6894,-5.7617,-5.8139,-5.8671,-5.8874,-5.8913,-5.8971,-5.9165,-5.9184,-5.9184,-5.9184,-5.9184,-5.9184,-5.9184,-5.9783,-6.017,-6.017,-6.075,-6.1099,-6.1099,-6.1099,-6.1099,-6.1099,-6.1099,-6.1099,-6.1099,-6.1099,-6.1178,-6.131,-6.1356,-6.1456,-6.1605,-6.1514,-6.1523,-6.1619,-6.1619,-6.1248,-6.0625,-6.0467,-6.0058,-5.9414,-5.8555,-5.8086,-5.7832,-5.7168,-5.6777,-5.6601,-5.6601,-5.6601,-5.6601,-5.6601,-5.6738,-5.7012,-5.7695,-5.8633,-5.9648,-6.0469,-6.1172,-6.1699,-6.1699,-6.1699,-6.1699,-6.1699,-6.1699,-6.1699,-6.1699,-6.1699,-6.1699,-6.1699,-6.1699,-6.1699,-6.1699,-6.1699,-6.1699,-6.1699,-6.1699,-6.1699,-6.1699,-6.1699,-6.1699,-6.1657,-6.1832,-6.1969,-6.1969,-6.2145,-6.2532,-6.3179,0.0,-6.3492,-6.4117,-6.4481,-6.4726,-6.4861,-6.4902,-6.4922,-6.4922,-6.4922,-6.4922,-6.4922,-6.5586,-6.5918,-6.5937,-6.6601,-6.6894,-6.6894,-6.6874,-6.6853,-6.6853,-6.6853,-6.6853,-6.6853,-6.6853,-6.6874,-6.6894,-6.6854,-6.6874,-6.6894,-5.6682,-5.7041,-5.7467,-5.7937,-5.8004,-5.8139,-5.8526,-5.8613,-5.8613,-5.8613,-5.8613,-5.8613,-5.8613,-5.901,-5.93,-5.93,-6.0402,-6.1099,-6.1099,-6.1099,-6.1099,-6.1099,-6.1099,-6.1099,-6.1099,-6.1099,-6.1134,-6.1217,-6.1274,-6.1369,-6.1465,-6.1417,-6.1248,-6.0961,-6.0961,-6.0474,-5.9638,-5.9317,-5.8919,-5.8431,-5.7636,-5.7305,-5.7246,-5.6777,-5.6601,-5.6601,-5.6601,-5.6601,-5.6601,-5.6601,-5.6601,-5.668,-5.7168,-5.8183,-5.9297,-5.9726,-6.0723,-6.1699,-6.1699,-6.1699,-6.1699,-6.1699,-6.1699,-6.1699,-6.1699,-6.1699,-6.1699,-6.1699,-6.1699,-6.1699,-6.1699,-6.1699,-6.1699,-6.1699,-6.1699,-6.1699,-6.1699,-6.1699,-6.1699,-6.1699,-6.1699,-6.1699,-6.1699,-6.1699,-6.1874,-6.2313,-6.2351,-6.2546,-6.2976,-6.2996,-6.3392,-6.4277,-6.4297,-6.4297,-6.4297,-6.4297,-6.4297,-6.4316,-6.4785,-6.5019,-6.5039,-6.5918,-6.6308,-6.6328,-6.6738,-6.6894,-6.6894,-6.6894,-6.6894,-6.6894,-6.6894,-6.6894,-6.6894,-6.6894,-6.6894,-6.6894,-5.5903,-5.5885,-5.6068,-5.6952,-5.7106,-5.7346,-5.8081,-5.8197,-5.8197,-5.8197,-5.8197,-5.8197,-5.8197,-5.8314,-5.8391,-5.8391,-5.9822,-6.0712,-6.0712,-6.0847,-6.0925,-6.0925,-6.1041,-6.1099,-6.1099,-6.1099,-6.1099,-6.1099,-6.1205,-6.1281,-6.131,-6.1211,-6.0813,-6.0171,-6.0034,-5.9489,-5.8622,-5.7977,-5.7612,-5.7438,-5.6829,-5.6581,-5.6581,-5.6601,-5.6601,-5.6601,-5.6601,-5.6601,-5.6601,-5.6601,-5.6601,-5.6601,-5.6601,-5.7793,-5.9199,-5.9199,-6.039,-6.1699,-6.1699,-6.1699,-6.1699,-6.1699,-6.1699,-6.1699,-6.1699,-6.1699,-6.1699,-6.1699,-6.1699,-6.1699,-6.1699,-6.1699,-6.1699,-6.1699,-6.1699,-6.1699,-6.1699,-6.1699,-6.1699,-6.1699,-6.1699,-6.1699,-6.1699,-6.1699,-6.1699,-6.1699,-6.1699,-6.1699,-6.1699,-6.1699,-6.2383,-6.3867,-6.3906,-6.3906,-6.3906,-6.3906,-6.3906,-6.3906,-6.4043,-6.4101,-6.4121,-6.5019,-6.5488,-6.5644,-6.6387,-6.6777,-6.6894,-6.6894,-6.6894,-6.6894,-6.6894,-6.6894,-6.6894,-6.6894,-6.6894,-6.6894,-5.5787,-5.5807,-5.5875,-5.616,-5.6197,-5.6263,-5.6379,-5.6399,-5.6399,-5.6399,-5.6399,-5.6399,-5.6399,-5.7056,-5.7492,-5.7492,-5.841,-5.899,-5.899,-5.9687,-6.0093,-6.0093,-6.0731,-6.1099,-6.1099,-6.1099,-6.1099,-6.1099,-6.1126,-6.1184,-6.1283,-6.0491,-6.0108,-5.9996,-5.9264,-5.8448,-5.7631,-5.7619,-5.719,-5.6512,-5.6519,-5.6518,-5.6522,-5.658,-5.6601,-5.6601,-5.6601,-5.6601,-5.6601,-5.6601,-5.6601,-5.6601,-5.6601,-5.7793,-5.9199,-5.9199,-6.039,-6.1699,-6.1699,-6.1699,-6.1699,-6.1699,-6.1699,-6.1699,-6.1699,-6.1699,-6.1699,-6.1699,-6.1699,-6.1699,-6.1699,-6.1699,-6.1699,-6.1699,-6.1699,-6.1699,-6.1699,-6.1699,-6.1699,-6.1699,-6.1699,-6.1699,-6.1699,-6.1699,-6.1699,-6.1699,-6.1699,-6.1699,-6.1699,-6.1699,-6.1816,-6.209,-6.2109,-6.2109,-6.2109,-6.2109,-6.2109,-6.2109,-6.2851,-6.3203,-6.3223,-6.4101,-6.4902,-6.5605,-6.5742,-6.6211,-6.6894,-6.6894,-6.6894,-6.6894,-6.6894,-6.6894,-6.6894,-6.6894,-6.6894,-6.6894,-5.5573,-5.5629,-5.5684,-5.5847,-5.5959,-5.6012,-5.6012,-5.6012,-5.6012,-5.6012,-5.6012,-5.6012,-5.6012,-5.6351,-5.6603,-5.6603,-5.6979,-5.7192,-5.7192,-5.8449,-5.9203,-5.9203,-6.0016,-6.0654,-6.1099,-6.1099,-6.1099,-6.1099,-6.0673,-6.0486,-6.0533,-5.9615,-5.8966,-5.8537,-5.813,-5.7471,-5.6645,-5.6795,-5.662,-5.6255,-5.6352,-5.6444,-5.6491,-5.6528,-5.6579,-5.6601,-5.6601,-5.6601,-5.6601,-5.6601,-5.6601,-5.668,-5.7148,-5.8164,-5.9297,-5.9726,-6.0723,-6.1699,-6.1699,-6.1699,-6.1699,-6.1699,-6.1699,-6.1699,-6.1699,-6.1699,-6.1699,-6.1699,-6.1699,-6.1699,-6.1699,-6.1699,-6.1699,-6.1699,-6.1699,-6.1699,-6.1699,-6.1699,-6.1699,-6.1699,-6.1699,-6.1699,-6.1699,-6.1699,-6.1699,-6.1699,-6.1699,-6.1699,-6.1699,-6.1699,-6.1699,-6.1699,-6.1699,-6.1699,-6.1699,-6.1699,-6.1699,-6.1699,-6.2109,-6.2305,-6.2324,-6.3203,-6.4082,-6.4922,-6.539,-6.6094,-6.6894,-6.6894,-6.6894,-6.6894,-6.6894,-6.6894,-6.6894,-6.6894,-6.6894,-6.6894,-5.5371,-5.5432,-5.5516,-5.5756,-5.5885,-5.5949,-5.6003,-5.6012,-5.6012,-5.6012,-5.6012,-5.6012,-5.6012,-5.6012,-5.6012,-5.6012,-5.6012,-5.6012,-5.6012,-5.7443,-5.8294,-5.8294,-5.9319,-6.0286,-6.1079,-6.1099,-6.1099,-6.1099,-6.0286,-5.9899,-5.988,-5.8797,-5.7946,-5.728,-5.7086,-5.6622,-5.602,-5.6109,-5.6148,-5.6154,-5.623,-5.6352,-5.6453,-5.6484,-5.6531,-5.6601,-5.6601,-5.6601,-5.6601,-5.6601,-5.6738,-5.7012,-5.7695,-5.8633,-5.9609,-6.0215,-6.1015,-6.1699,-6.1699,-6.1699,-6.1699,-6.1699,-6.1699,-6.1699,-6.1699,-6.1699,-6.1699,-6.1699,-6.1699,-6.1699,-6.1699,-6.1699,-6.1699,-6.1699,-6.1699,-6.1699,-6.1699,-6.1699,-6.1699,-6.1699,-6.1699,-6.1699,-6.1699,-6.1699,-6.1699,-6.1699,-6.1699,-6.1699,-6.1699,-6.1699,-6.1699,-6.1699,-6.1699,-6.1699,-6.1699,-6.1699,-6.1699,-6.1699,-6.1699,-6.1699,-6.1719,-6.2383,-6.3164,-6.4043,-6.4922,-6.5781,-6.6601,-6.6816,-6.6894,-6.6894,-6.6894,-6.6894,-6.6894,-6.6894,-6.6894,-6.6894,-5.5189,-5.521,-5.5339,-5.5735,-5.5807,-5.5856,-5.5986,-5.6012,-5.6012,-5.6012,-5.6012,-5.6012,-5.6012,-5.6012,-5.6012,-5.6012,-5.6012,-5.6012,-5.6012,-5.6874,-5.7396,-5.7396,-5.901,-6.0286,-6.1079,-6.1099,-6.1099,-6.1099,-6.0286,-5.9899,-5.9861,-5.8178,-5.7357,-5.726,-5.6448,-5.607,-5.6012,-5.6001,-5.601,-5.6026,-5.6154,-5.625,-5.6328,-5.645,-5.6531,-5.6601,-5.6601,-5.6601,-5.6601,-5.6601,-5.7148,-5.7812,-5.7871,-5.9004,-6.0312,-6.0371,-6.1015,-6.1699,-6.1699,-6.1699,-6.1699,-6.1699,-6.1699,-6.1699,-6.1699,-6.1699,-6.1699,-6.1699,-6.1699,-6.1699,-6.1699,-6.1699,-6.1699,-6.1699,-6.1699,-6.1699,-6.1699,-6.1699,-6.1699,-6.1699,-6.1699,-6.1699,-6.1699,-6.1699,-6.1699,-6.1699,-6.1699,-6.1699,-6.1699,-6.1699,-6.1699,-6.1699,-6.1699,-6.1699,-6.1699,-6.1699,-6.1699,-6.1699,-6.1699,-6.1699,-6.1699,-6.1777,-6.2265,-6.3144,-6.4023,-6.4883,-6.5762,-6.6562,-6.6894,-6.6894,-6.6894,-6.6894,-6.6894,-6.6894,-6.6894,-6.6894,-5.5,-5.5107,-5.5288,-5.5562,-5.5724,-5.5847,-5.5986,-5.6012,-5.6012,-5.6012,-5.6012,-5.6012,-5.6012,-5.6467,-5.6815,-5.6815,-5.7308,-5.7617,-5.7617,-5.7927,-5.8352,-5.8894,-5.9551,-6.0286,-6.1079,-6.1099,-6.1099,-6.1099,-6.0286,-5.9899,-5.9861,-5.812,-5.7299,-5.726,-5.639,-5.6012,-5.6012,-5.6012,-5.6012,-5.5993,-5.6067,-5.6148,-5.6233,-5.6295,-5.642,-5.6549,-5.6549,-5.691,-5.7402,-5.7402,-5.7988,-5.8789,-5.9297,-5.9883,-6.0508,-6.1055,-6.1445,-6.1699,-6.1699,-6.1699,-6.1699,-6.1699,-6.1699,-6.1699,-6.1699,-6.1699,-6.1699,-6.1699,-6.1699,-6.1699,-6.1699,-6.1699,-6.1699,-6.1699,-6.1699,-6.1699,-6.1699,-6.1699,-6.1699,-6.1699,-6.1699,-6.1699,-6.1699,-6.1699,-6.1699,-6.1699,-6.1699,-6.1699,-6.1699,-6.1699,-6.1699,-6.1699,-6.1699,-6.1699,-6.1699,-6.1699,-6.1699,-6.1699,-6.1699,-6.1699,-6.1699,-6.1699,-6.2187,-6.3047,-6.3926,-6.4785,-6.5664,-6.6543,-6.6894,-6.6894,-6.6894,-6.6894,-6.6894,-6.6894,-6.6894,-6.6894,-5.4901,-5.5014,-5.5176,-5.5383,-5.5527,-5.5654,-5.5827,-5.6106,-5.6308,-5.6308,-5.6604,-5.6824,-5.6824,-5.7346,-5.7714,-5.7714,-5.8255,-5.8613,-5.8613,-5.8864,-5.9281,-5.9861,-5.9899,-6.0286,-6.1079,-6.1099,-6.1099,-6.1099,-6.0286,-5.9899,-5.9861,-5.841,-5.7714,-5.7675,-5.7076,-5.6824,-5.6824,-5.6824,-5.6824,-5.6824,-5.6824,-5.6893,-5.6984,-5.6984,-5.7118,-5.7289,-5.7289,-5.7723,-5.8301,-5.8301,-5.8867,-5.9668,-6.0234,-6.0586,-6.0937,-6.1523,-6.1699,-6.1699,-6.1699,-6.1699,-6.1699,-6.1699,-6.1699,-6.1699,-6.1699,-6.1699,-6.1699,-6.1699,-6.1699,-6.1699,-6.1699,-6.1699,-6.1699,-6.1699,-6.1699,-6.1699,-6.1699,-6.1699,-6.1699,-6.1699,-6.1699,-6.1699,-6.1699,-6.1699,-6.1699,-6.1699,-6.1699,-6.1699,-6.1699,-6.1699,-6.1699,-6.1699,-6.1699,-6.1699,-6.1699,-6.1699,-6.1699,-6.1699,-6.1699,-6.1699,-6.1699,-6.1699,-6.2031,-6.2656,-6.3808,-6.4648,-6.5273,-6.6426,-6.6894,-6.6894,-6.6894,-6.6894,-6.6894,-6.6894,-6.6894,-6.6894,-5.4901,-5.4901,-5.4956,-5.5157,-5.5216,-5.5281,-5.5468,-5.6354,-5.7,-5.7011,-5.7941,-5.8604,-5.8613,-5.8613,-5.8613,-5.8613,-5.8632,-5.8632,-5.8632,-5.9435,-5.9899,-5.9899,-5.9899,-6.0286,-6.1079,-6.1099,-6.1099,-6.1099,-6.0306,-5.9899,-5.988,-5.901,-5.8613,-5.8613,-5.8613,-5.8613,-5.8613,-5.8613,-5.8613,-5.8613,-5.8613,-5.8629,-5.8706,-5.8706,-5.8827,-5.9005,-5.9005,-5.9089,-5.9219,-5.9219,-5.9746,-6.041,-6.041,-6.0996,-6.1699,-6.1699,-6.1699,-6.1699,-6.1699,-6.1699,-6.1699,-6.1699,-6.1699,-6.1699,-6.1699,-6.1699,-6.1699,-6.1699,-6.1699,-6.1699,-6.1699,-6.1699,-6.1699,-6.1699,-6.1699,-6.1699,-6.1699,-6.1699,-6.1699,-6.1699,-6.1699,-6.1699,-6.1699,-6.1699,-6.1699,-6.1699,-6.1699,-6.1699,-6.1699,-6.1699,-6.1699,-6.1699,-6.1699,-6.1699,-6.1699,-6.1699,-6.1699,-6.1699,-6.1699,-6.1699,-6.1699,-6.1699,-6.1699,-6.1797,-6.3535,-6.4297,-6.4433,-6.6172,-6.6894,-6.6894,-6.6894,-6.6894,-6.6894,-6.6894,-6.6894,-6.6894,-5.4901,-5.4901,-5.4956,-5.5157,-5.566,-5.6108,-5.6311,-5.7112,-5.7751,-5.7884,-5.8198,-5.8442,-5.8575,-5.9145,-5.9513,-5.9513,-6.0035,-6.0344,-6.0344,-6.0596,-6.0731,-6.0731,-6.0731,-6.0847,-6.1099,-6.1099,-6.1099,-6.1099,-6.0867,-6.0731,-6.0712,-5.9899,-5.9513,-5.9493,-5.8874,-5.8613,-5.8613,-5.8613,-5.8613,-5.8613,-5.8613,-5.86,-5.8624,-5.8624,-5.8697,-5.8785,-5.8785,-5.9291,-5.9961,-5.9961,-6.0561,-6.1308,-6.1308,-6.1484,-6.1699,-6.1699,-6.1699,-6.1699,-6.1699,-6.1699,-6.1699,-6.1699,-6.1699,-6.1699,-6.1699,-6.1699,-6.1699,-6.1699,-6.1699,-6.1699,-6.1699,-6.1699,-6.1699,-6.1699,-6.1699,-6.1699,-6.1699,-6.1699,-6.1699,-6.1699,-6.1699,-6.1699,-6.1699,-6.1699,-6.1699,-6.1699,-6.1699,-6.1699,-6.1699,-6.1699,-6.1699,-6.1699,-6.1699,-6.1699,-6.1699,-6.1699,-6.1699,-6.1699,-6.1699,-6.1699,-6.1699,-6.1699,-6.1699,-6.1797,-6.3535,-6.4297,-6.4433,-6.6172,-6.6894,-6.6894,-6.6894,-6.6894,-6.6894,-6.6894,-6.6894,-6.6894,-5.5356,-5.5413,-5.5553,-5.5984,-5.6469,-5.6854,-5.696,-5.7779,-5.8483,-5.8677,-5.9037,-5.9376,-5.9572,-6.0054,-6.0364,-6.0364,-6.0828,-6.1099,-6.1099,-6.1099,-6.1099,-6.1099,-6.1099,-6.1099,-6.1099,-6.1099,-6.1099,-6.1099,-6.1099,-6.1099,-6.1099,-6.0596,-6.0364,-6.0344,-5.9822,-5.959,-5.959,-5.959,-5.959,-5.959,-5.959,-5.959,-5.959,-5.959,-5.9645,-5.9723,-5.9723,-6.0155,-6.0747,-6.0747,-6.1159,-6.1675,-6.1699,-6.1699,-6.1699,-6.1699,-6.1699,-6.1699,-6.1699,-6.1699,-6.1699,-6.1699,-6.1699,-6.1699,-6.1699,-6.1699,-6.1699,-6.1699,-6.1699,-6.1699,-6.1699,-6.1699,-6.1699,-6.1699,-6.1699,-6.1699,-6.1699,-6.1699,-6.1699,-6.1699,-6.1699,-6.1699,-6.1699,-6.1699,-6.1699,-6.1699,-6.1699,-6.1699,-6.1699,-6.1699,-6.1699,-6.1699,-6.1699,-6.1699,-6.1699,-6.1699,-6.1699,-6.1699,-6.1699,-6.1699,-6.1699,-6.1699,-6.1894,-6.2285,-6.3691,-6.4492,-6.4922,-6.6328,-6.6894,-6.6894,-6.6894,-6.6894,-6.6894,-6.6894,-6.6894,-6.6894,-5.6133,-5.6304,-5.6531,-5.727,-5.746,-5.7516,-5.7516,-5.8399,-5.9163,-5.9371,-6.0207,-6.0858,-6.108,-6.1099,-6.1099,-6.1099,-6.1099,-6.1099,-6.1099,-6.1099,-6.1099,-6.1099,-6.1099,-6.1099,-6.1099,-6.1099,-6.1099,-6.1099,-6.1099,-6.1099,-6.1099,-6.1099,-6.1099,-6.1099,-6.1099,-6.1099,-6.1099,-6.1099,-6.1099,-6.1099,-6.1099,-6.1099,-6.1099,-6.1099,-6.1186,-6.1289,-6.1289,-6.1337,-6.1379,-6.1408,-6.1487,-6.1586,-6.1655,-6.1678,-6.1678,-6.1678,-6.1679,-6.1699,-6.1699,-6.1699,-6.1699,-6.1699,-6.1699,-6.1699,-6.1699,-6.1699,-6.1699,-6.1699,-6.1699,-6.1699,-6.1699,-6.1699,-6.1699,-6.1699,-6.1699,-6.1699,-6.1699,-6.1699,-6.1699,-6.1699,-6.1699,-6.1699,-6.1699,-6.1699,-6.1699,-6.1699,-6.1699,-6.1699,-6.1699,-6.1699,-6.1699,-6.1699,-6.1699,-6.1699,-6.1699,-6.1699,-6.1699,-6.1699,-6.1699,-6.1699,-6.1699,-6.1699,-6.2187,-6.3047,-6.3926,-6.4785,-6.5664,-6.6543,-6.6894,-6.6894,-6.6894,-6.6894,-6.6894,-6.6894,-6.6894,-6.6894,-5.6936,-5.7137,-5.7194,-5.7365,-5.7952,-5.8423,-5.8423,-5.9137,-5.9832,-6.0188,-6.0431,-6.0704,-6.107,-6.1099,-6.1099,-6.1099,-6.1099,-6.1099,-6.1099,-6.1099,-6.1099,-6.1099,-6.1099,-6.1099,-6.1099,-6.1099,-6.1099,-6.1099,-6.1099,-6.1099,-6.1099,-6.1099,-6.1099,-6.1099,-6.1099,-6.1099,-6.1099,-6.1099,-6.1099,-6.1099,-6.1099,-6.1099,-6.1099,-6.1099,-6.1126,-6.1143,-6.1143,-6.1221,-6.1331,-6.1383,-6.1426,-6.1448,-6.1463,-6.1471,-6.1471,-6.1471,-6.1549,-6.1619,-6.1619,-6.1655,-6.1699,-6.1699,-6.1699,-6.1699,-6.1699,-6.1699,-6.1699,-6.1699,-6.1699,-6.1699,-6.1699,-6.1699,-6.1699,-6.1699,-6.1699,-6.1699,-6.1699,-6.1699,-6.1699,-6.1699,-6.1699,-6.1699,-6.1699,-6.1699,-6.1699,-6.1699,-6.1699,-6.1699,-6.1699,-6.1699,-6.1699,-6.1699,-6.1699,-6.1699,-6.1699,-6.1699,-6.1699,-6.1699,-6.1699,-6.1699,-6.1699,-6.1699,-6.2187,-6.3047,-6.3926,-6.4785,-6.5664,-6.6543,-6.6894,-6.6894,-6.6894,-6.6894,-6.6894,-6.6894,-6.6894,-6.6894,-5.7694,-5.7962,-5.8142,-5.8521,-5.8957,-5.9276,-5.9276,-5.9636,-6.001,-6.0307,-6.0443,-6.0621,-6.0922,-6.1032,-6.1099,-6.1099,-6.1099,-6.1099,-6.1099,-6.1099,-6.1099,-6.1099,-6.1099,-6.1099,-6.1099,-6.1099,-6.1099,-6.1099,-6.1099,-6.1099,-6.1099,-6.1099,-6.1099,-6.1099,-6.1099,-6.1099,-6.1099,-6.1099,-6.1099,-6.1099,-6.1099,-6.1099,-6.1099,-6.1099,-6.1099,-6.1099,-6.1099,-6.1143,-6.1213,-6.1331,-6.1353,-6.1365,-6.1398,-6.1393,-6.1393,-6.1393,-6.1448,-6.1501,-6.1501,-6.1586,-6.1652,-6.1652,-6.1678,-6.1699,-6.1699,-6.1699,-6.1699,-6.1699,-6.1699,-6.1699,-6.1699,-6.1699,-6.1699,-6.1699,-6.1699,-6.1699,-6.1699,-6.1699,-6.1699,-6.1699,-6.1699,-6.1699,-6.1699,-6.1699,-6.1699,-6.1699,-6.1699,-6.1699,-6.1699,-6.1699,-6.1699,-6.1699,-6.1699,-6.1699,-6.1699,-6.1699,-6.1699,-6.1699,-6.1699,-6.1699,-6.1719,-6.2129,-6.2793,-6.3672,-6.4531,-6.541,-6.6269,-6.6719,-6.6894,-6.6894,-6.6894,-6.6894,-6.6894,-6.6894,-6.6894,-6.6894,-5.8429,-5.8786,-5.9124,-5.9788,-5.9902,-5.9902,-5.9902,-5.9902,-5.9963,-6.0184,-6.0349,-6.0533,-6.0727,-6.0922,-6.107,-6.1099,-6.1099,-6.1099,-6.1099,-6.1099,-6.1099,-6.1099,-6.1099,-6.1099,-6.1099,-6.1099,-6.1099,-6.1099,-6.1099,-6.1099,-6.1099,-6.1099,-6.1099,-6.1099,-6.1099,-6.1099,-6.1099,-6.1099,-6.1099,-6.1099,-6.1099,-6.1099,-6.1099,-6.1099,-6.1099,-6.1099,-6.1099,-6.1099,-6.1126,-6.124,-6.1267,-6.1289,-6.1322,-6.1356,-6.1356,-6.1356,-6.1353,-6.1388,-6.1388,-6.1479,-6.1573,-6.1583,-6.1624,-6.1657,-6.1699,-6.1699,-6.1699,-6.1699,-6.1699,-6.1699,-6.1699,-6.1699,-6.1699,-6.1699,-6.1699,-6.1699,-6.1699,-6.1699,-6.1699,-6.1699,-6.1699,-6.1699,-6.1699,-6.1699,-6.1699,-6.1699,-6.1699,-6.1699,-6.1699,-6.1699,-6.1699,-6.1699,-6.1699,-6.1699,-6.1699,-6.1699,-6.1699,-6.1699,-6.1855,-6.1914,-6.1953,-6.2676,-6.3555,-6.4551,-6.5293,-6.6094,-6.6894,-6.6894,-6.6894,-6.6894,-6.6894,-6.6894,-6.6894,-6.6894,-6.6894,-6.6894,-5.9241,-5.9599,-5.9772,-5.9866,-5.9902,-5.9902,-5.9902,-5.9902,-5.9963,-6.0184,-6.0208,-6.0321,-6.0521,-6.0716,-6.0911,-6.1089,-6.1099,-6.1099,-6.1099,-6.1099,-6.1099,-6.1099,-6.1099,-6.1099,-6.1099,-6.1099,-6.1099,-6.1099,-6.1099,-6.1099,-6.1099,-6.1099,-6.1099,-6.1099,-6.1099,-6.1099,-6.1099,-6.1099,-6.1099,-6.1099,-6.1099,-6.1099,-6.1099,-6.1099,-6.1099,-6.1099,-6.1099,-6.1099,-6.1099,-6.1126,-6.1136,-6.1125,-6.1152,-6.1133,-6.1133,-6.1133,-6.1229,-6.1318,-6.1318,-6.137,-6.1452,-6.1573,-6.1514,-6.1485,-6.1658,-6.1699,-6.1699,-6.1699,-6.1699,-6.1699,-6.1699,-6.1699,-6.1699,-6.1699,-6.1699,-6.1699,-6.1699,-6.1699,-6.1699,-6.1699,-6.1699,-6.1699,-6.1699,-6.1699,-6.1699,-6.1699,-6.1699,-6.1699,-6.1699,-6.1699,-6.1699,-6.1699,-6.1699,-6.1699,-6.1699,-6.1699,-6.1699,-6.1719,-6.2461,-6.2812,-6.2832,-6.2949,-6.3887,-6.543,-6.5547,-6.6094,-6.6894,-6.6894,-6.6894,-6.6894,-6.6894,-6.6894,-6.6894,-6.6894,-6.6894,-6.6894,-5.9178,-5.9437,-5.9597,-5.9719,-5.9736,-5.977,-5.9885,-5.9902,-5.9934,-6.0026,-6.0125,-6.0223,-6.0321,-6.0621,-6.0847,-6.0922,-6.1051,-6.1099,-6.1099,-6.1099,-6.1099,-6.1099,-6.1099,-6.1099,-6.1099,-6.1099,-6.1099,-6.1099,-6.1099,-6.1099,-6.1099,-6.1099,-6.1099,-6.1099,-6.1099,-6.1099,-6.1099,-6.1099,-6.1099,-6.1099,-6.1099,-6.1099,-6.1099,-6.1099,-6.1099,-6.1099,-6.1099,-6.1099,-6.1099,-6.1099,-6.1099,-6.1099,-6.1099,-6.1099,-6.1099,-6.1099,-6.1143,-6.1184,-6.1184,-6.1269,-6.1353,-6.1427,-6.1422,-6.1448,-6.1618,-6.1649,-6.1653,-6.1699,-6.1699,-6.1699,-6.1699,-6.1699,-6.1699,-6.1699,-6.1699,-6.1699,-6.1699,-6.1699,-6.1699,-6.1699,-6.1699,-6.1699,-6.1699,-6.1699,-6.1699,-6.1699,-6.1699,-6.1699,-6.1699,-6.1699,-6.1699,-6.1699,-6.1699,-6.1699,-6.1699,-6.1699,-6.1933,-6.2422,-6.2812,-6.3008,-6.3027,-6.4004,-6.4863,-6.5625,-6.6113,-6.6543,-6.6894,-6.6894,-6.6894,-6.6894,-6.6894,-6.6894,-6.6894,-6.6894,-6.6894,-6.6894]},{"header":{"parameterUnit":"m.s-1","parameterCategory":1,"la1":30.6,"la2":28.766,"lo1":-90.7593,"lo2":-88.6598,"dy":0.0162,"dx":0.0183,"nx":116,"ny":114,"refTime":"2023-03-22T06:00:00:Z","depth":0,"parameterNumber":3,"parameterNumberName":"V-component_of_WINDS"},"data":[0.0,0.0,0.0,0.0,0.0,0.0,0.0,0.0,0.0,0.0,0.0,0.0,0.0,0.0,0.0,0.0,0.0,0.0,0.0,0.0,0.0,0.0,0.0,0.0,0.0,0.0,0.0,0.0,0.0,0.0,0.0,0.0,0.0,0.0,0.0,0.0,0.0,0.0,0.0,0.0,0.0,0.0,0.0,0.0,0.0,0.0,0.0,0.0,0.0,0.0,0.0,0.0,0.0,0.0,0.0,0.0,0.0,0.0,0.0,0.0,0.0,0.0,0.0,0.0,0.0,0.0,0.0,0.0,0.0,0.0,0.0,0.0,0.0,0.0,0.0,0.0,0.0,0.0,0.0,0.0,0.0,0.0,0.0,0.0,0.0,0.0,0.0,0.0,0.0,0.0,0.0,0.0,0.0,0.0,0.0,0.0,0.0,0.0,0.0,0.0,0.0,0.0,0.0,0.0,0.0,0.0,0.0,0.0,0.0,0.0,0.0,0.0,0.0,0.0,0.0,0.0,0.0,0.0,0.0,0.0,0.0,0.0,0.0,0.0,0.0,0.0,0.0,0.0,0.0,0.0,0.0,0.0,0.0,0.0,0.0,0.0,0.0,0.0,0.0,0.0,0.0,0.0,0.0,0.0,0.0,0.0,0.0,0.0,0.0,0.0,0.0,0.0,0.0,0.0,0.0,0.0,0.0,0.0,0.0,0.0,0.0,0.0,0.0,0.0,0.0,0.0,0.0,0.0,0.0,0.0,0.0,0.0,0.0,0.0,0.0,0.0,0.0,0.0,0.0,0.0,0.0,0.0,0.0,0.0,0.0,0.0,0.0,0.0,0.0,0.0,0.0,0.0,0.0,0.0,0.0,0.0,0.0,0.0,0.0,0.0,0.0,0.0,0.0,0.0,0.0,0.0,0.0,0.0,0.0,0.0,0.0,0.0,0.0,0.0,0.0,0.0,0.0,0.0,0.0,0.0,0.0,0.0,0.0,0.0,0.0,0.0,0.0,0.0,0.0,0.0,0.0,0.0,0.0,0.0,0.0,0.0,0.0,0.0,0.0,0.0,0.0,0.0,0.0,0.0,0.0,0.0,0.0,0.0,0.0,0.0,0.0,0.0,0.0,0.0,0.0,0.0,0.0,0.0,0.0,0.0,0.0,0.0,0.0,0.0,0.0,0.0,0.0,0.0,0.0,0.0,0.0,0.0,0.0,0.0,0.0,0.0,0.0,0.0,0.0,0.0,0.0,0.0,0.0,0.0,0.0,0.0,0.0,0.0,0.0,0.0,0.0,0.0,0.0,0.0,0.0,0.0,0.0,0.0,0.0,0.0,0.0,0.0,0.0,0.0,0.0,0.0,0.0,0.0,0.0,0.0,0.0,0.0,0.0,0.0,0.0,0.0,0.0,0.0,0.0,0.0,0.0,0.0,0.0,0.0,0.0,0.0,0.0,0.0,0.0,0.0,0.0,0.0,0.0,0.0,0.0,0.0,0.0,0.0,0.0,0.0,0.0,0.0,0.0,0.0,0.0,0.0,0.0,0.0,0.0,0.0,0.0,0.0,0.0,0.0,0.0,0.0,0.0,0.0,0.0,0.0,0.0,0.0,0.0,0.0,0.0,0.0,0.0,0.0,0.0,0.0,0.0,0.0,0.0,0.0,0.0,0.0,0.0,0.0,0.0,0.0,0.0,0.0,0.0,0.0,0.0,0.0,0.0,0.0,0.0,0.0,0.0,0.0,0.0,0.0,0.0,0.0,0.0,0.0,0.0,0.0,0.0,0.0,0.0,0.0,0.0,0.0,0.0,0.0,0.0,0.0,0.0,0.0,0.0,0.0,0.0,0.0,0.0,0.0,0.0,0.0,0.0,0.0,0.0,0.0,0.0,0.0,0.0,0.0,0.0,0.0,0.0,0.0,0.0,0.0,0.0,0.0,0.0,0.0,0.0,0.0,0.0,0.0,0.0,0.0,0.0,0.0,0.0,0.0,0.0,0.0,0.0,0.0,0.0,0.0,0.0,0.0,0.0,0.0,0.0,0.0,0.0,0.0,0.0,0.0,0.0,0.0,0.0,0.0,0.0,0.0,0.0,0.0,0.0,0.0,0.0,0.0,0.0,0.0,0.0,0.0,0.0,0.0,0.0,0.0,0.0,0.0,0.0,0.0,0.0,0.0,0.0,0.0,0.0,0.0,0.0,0.0,0.0,0.0,0.0,0.0,0.0,0.0,0.0,0.0,0.0,0.0,0.0,0.0,0.0,0.0,0.0,0.0,0.0,0.0,0.0,0.0,0.0,0.0,0.0,0.0,0.0,0.0,0.0,0.0,0.0,0.0,0.0,0.0,0.0,0.0,0.0,0.0,0.0,0.0,0.0,0.0,0.0,0.0,0.0,0.0,0.0,0.0,0.0,0.0,0.0,0.0,0.0,0.0,0.0,0.0,0.0,0.0,0.0,0.0,0.0,0.0,0.0,0.0,0.0,0.0,0.0,0.0,0.0,0.0,0.0,0.0,0.0,0.0,0.0,0.0,0.0,0.0,0.0,0.0,0.0,0.0,0.0,0.0,0.0,0.0,0.0,0.0,0.0,0.0,0.0,0.0,0.0,0.0,0.0,0.0,0.0,0.0,0.0,0.0,0.0,0.0,0.0,0.0,0.0,0.0,0.0,0.0,0.0,0.0,0.0,0.0,0.0,0.0,0.0,0.0,0.0,0.0,0.0,0.0,0.0,0.0,0.0,0.0,0.0,0.0,0.0,0.0,0.0,0.0,0.0,0.0,0.0,0.0,0.0,0.0,0.0,0.0,0.0,0.0,0.0,0.0,0.0,0.0,0.0,0.0,0.0,0.0,0.0,0.0,0.0,0.0,0.0,0.0,0.0,0.0,0.0,0.0,0.0,0.0,0.0,0.0,0.0,0.0,0.0,0.0,0.0,0.0,0.0,0.0,0.0,0.0,0.0,0.0,0.0,0.0,0.0,0.0,0.0,0.0,0.0,0.0,0.0,0.0,0.0,0.0,0.0,0.0,0.0,0.0,0.0,0.0,0.0,0.0,0.0,0.0,0.0,0.0,0.0,0.0,0.0,0.0,0.0,0.0,0.0,0.0,0.0,0.0,0.0,0.0,0.0,0.0,0.0,0.0,0.0,0.0,0.0,0.0,0.0,0.0,0.0,0.0,0.0,0.0,0.0,0.0,0.0,0.0,0.0,0.0,0.0,0.0,0.0,0.0,0.0,0.0,0.0,0.0,0.0,0.0,0.0,0.0,0.0,0.0,0.0,0.0,0.0,0.0,0.0,0.0,0.0,0.0,0.0,0.0,0.0,0.0,0.0,0.0,0.0,0.0,0.0,0.0,0.0,0.0,0.0,0.0,0.0,0.0,0.0,0.0,0.0,0.0,0.0,0.0,0.0,0.0,0.0,0.0,0.0,0.0,0.0,0.0,0.0,0.0,0.0,0.0,0.0,0.0,0.0,0.0,0.0,0.0,0.0,0.0,0.0,0.0,0.0,0.0,0.0,0.0,0.0,0.0,0.0,0.0,0.0,0.0,0.0,0.0,0.0,0.0,0.0,0.0,0.0,0.0,0.0,0.0,0.0,0.0,0.0,0.0,0.0,0.0,0.0,0.0,0.0,0.0,0.0,0.0,0.0,0.0,0.0,0.0,0.0,0.0,0.0,0.0,0.0,0.0,0.0,0.0,0.0,0.0,0.0,0.0,0.0,0.0,0.0,0.0,0.0,0.0,0.0,0.0,0.0,0.0,0.0,0.0,0.0,0.0,0.0,0.0,0.0,0.0,0.0,0.0,0.0,0.0,0.0,0.0,0.0,0.0,0.0,0.0,0.0,0.0,0.0,0.0,0.0,0.0,0.0,0.0,0.0,0.0,0.0,0.0,0.0,0.0,0.0,0.0,0.0,0.0,0.0,0.0,0.0,0.0,0.0,0.0,0.0,0.0,0.0,0.0,0.0,0.0,0.0,0.0,0.0,0.0,0.0,0.0,0.0,0.0,0.0,0.0,0.0,0.0,0.0,0.0,0.0,0.0,0.0,0.0,0.0,0.0,0.0,0.0,0.0,0.0,0.0,0.0,0.0,0.0,0.0,0.0,0.0,0.0,0.0,0.0,0.0,0.0,0.0,0.0,0.0,0.0,0.0,0.0,0.0,0.0,0.0,0.0,0.0,0.0,0.0,0.0,0.0,0.0,0.0,0.0,0.0,0.0,0.0,0.0,0.0,0.0,0.0,0.0,0.0,0.0,0.0,0.0,0.0,0.0,0.0,0.0,0.0,0.0,0.0,0.0,0.0,0.0,0.0,0.0,0.0,0.0,0.0,0.0,0.0,0.0,0.0,0.0,0.0,0.0,0.0,0.0,0.0,0.0,0.0,0.0,0.0,0.0,0.0,0.0,0.0,0.0,0.0,0.0,0.0,0.0,0.0,0.0,0.0,0.0,0.0,0.0,0.0,0.0,0.0,0.0,0.0,0.0,0.0,0.0,0.0,0.0,0.0,0.0,0.0,0.0,0.0,0.0,0.0,0.0,0.0,0.0,0.0,0.0,0.0,0.0,0.0,0.0,0.0,0.0,0.0,0.0,0.0,0.0,0.0,0.0,0.0,0.0,0.0,0.0,0.0,0.0,0.0,0.0,0.0,0.0,0.0,0.0,0.0,0.0,0.0,0.0,0.0,0.0,0.0,0.0,0.0,0.0,0.0,0.0,0.0,0.0,0.0,0.0,0.0,0.0,0.0,0.0,0.0,0.0,0.0,0.0,0.0,0.0,0.0,0.0,0.0,0.0,0.0,0.0,0.0,0.0,0.0,0.0,0.0,0.0,0.0,0.0,0.0,0.0,0.0,0.0,0.0,0.0,0.0,0.0,0.0,0.0,0.0,0.0,0.0,0.0,0.0,0.0,0.0,0.0,0.0,0.0,0.0,0.0,0.0,0.0,0.0,0.0,0.0,0.0,0.0,0.0,0.0,0.0,0.0,0.0,0.0,0.0,0.0,0.0,0.0,0.0,0.0,0.0,0.0,0.0,0.0,0.0,0.0,0.0,0.0,0.0,0.0,0.0,0.0,0.0,0.0,0.0,0.0,0.0,0.0,0.0,0.0,0.0,0.0,0.0,0.0,0.0,0.0,0.0,0.0,0.0,0.0,0.0,0.0,0.0,0.0,0.0,0.0,0.0,0.0,0.0,0.0,0.0,0.0,0.0,0.0,0.0,0.0,0.0,0.0,0.0,0.0,0.0,0.0,0.0,0.0,0.0,0.0,0.0,0.0,0.0,0.0,0.0,0.0,0.0,0.0,0.0,0.0,0.0,0.0,0.0,0.0,0.0,0.0,0.0,0.0,0.0,0.0,0.0,0.0,0.0,0.0,0.0,0.0,0.0,0.0,0.0,0.0,0.0,0.0,0.0,0.0,0.0,0.0,0.0,0.0,0.0,0.0,0.0,0.0,0.0,0.0,0.0,0.0,0.0,0.0,0.0,0.0,0.0,0.0,0.0,0.0,0.0,0.0,0.0,0.0,0.0,0.0,0.0,0.0,0.0,0.0,0.0,0.0,0.0,0.0,0.0,0.0,0.0,0.0,0.0,0.0,0.0,0.0,0.0,0.0,0.0,0.0,0.0,0.0,0.0,0.0,0.0,0.0,0.0,0.0,0.0,0.0,0.0,0.0,0.0,0.0,0.0,0.0,0.0,0.0,0.0,0.0,0.0,0.0,0.0,0.0,0.0,0.0,0.0,0.0,0.0,0.0,0.0,0.0,0.0,0.0,0.0,0.0,0.0,0.0,0.0,0.0,0.0,0.0,0.0,0.0,0.0,0.0,0.0,0.0,0.0,0.0,0.0,0.0,0.0,0.0,0.0,0.0,0.0,0.0,0.0,0.0,0.0,0.0,0.0,0.0,0.0,0.0,0.0,0.0,0.0,0.0,0.0,0.0,0.0,0.0,0.0,0.0,0.0,0.0,0.0,0.0,0.0,0.0,0.0,0.0,0.0,0.0,0.0,0.0,0.0,0.0,0.0,0.0,0.0,0.0,0.0,0.0,0.0,0.0,0.0,0.0,0.0,0.0,0.0,0.0,0.0,0.0,0.0,0.0,0.0,0.0,0.0,-1.6328,0.0,0.0,0.0,0.0,0.0,0.0,0.0,0.0,0.0,0.0,0.0,0.0,0.0,0.0,0.0,0.0,0.0,0.0,0.0,0.0,0.0,0.0,0.0,0.0,0.0,0.0,0.0,0.0,0.0,0.0,0.0,0.0,0.0,0.0,0.0,0.0,0.0,0.0,0.0,-1.0117,-1.0019,-1.0023,-1.0604,-1.106,-1.1453,0.0,0.0,0.0,0.0,0.0,0.0,0.0,0.0,0.0,0.0,0.0,0.0,0.0,0.0,0.0,0.0,0.0,0.0,0.0,0.0,0.0,0.0,0.0,0.0,0.0,0.0,0.0,0.0,0.0,0.0,0.0,0.0,0.0,0.0,0.0,0.0,0.0,0.0,0.0,0.0,0.0,0.0,0.0,0.0,0.0,0.0,0.0,0.0,0.0,0.0,0.0,0.0,0.0,0.0,0.0,0.0,0.0,0.0,0.0,0.0,0.0,0.0,0.0,0.0,0.0,0.0,0.0,0.0,0.0,0.0,0.0,-1.6392,0.0,0.0,0.0,0.0,0.0,0.0,0.0,0.0,0.0,0.0,0.0,0.0,0.0,0.0,0.0,0.0,0.0,0.0,0.0,0.0,0.0,0.0,0.0,0.0,-1.4959,-1.4852,-1.4784,0.0,0.0,0.0,0.0,0.0,0.0,0.0,0.0,0.0,0.0,0.0,-0.9826,-0.9579,-0.9579,-0.9579,-0.9786,-1.0075,-1.0257,0.0,0.0,0.0,0.0,0.0,0.0,0.0,0.0,0.0,0.0,0.0,0.0,0.0,0.0,0.0,0.0,0.0,0.0,0.0,0.0,0.0,0.0,0.0,0.0,0.0,0.0,0.0,0.0,0.0,0.0,0.0,0.0,0.0,0.0,0.0,0.0,0.0,0.0,0.0,0.0,0.0,0.0,0.0,0.0,0.0,0.0,0.0,0.0,0.0,0.0,0.0,0.0,0.0,0.0,0.0,0.0,0.0,0.0,0.0,0.0,0.0,0.0,0.0,-1.2503,-1.2634,-1.277,-1.277,-1.277,-1.2836,-1.4002,-1.4651,-1.5103,-1.7361,0.0,0.0,0.0,0.0,0.0,0.0,0.0,0.0,0.0,0.0,0.0,0.0,0.0,0.0,0.0,0.0,0.0,0.0,0.0,0.0,0.0,-1.4046,-1.4798,-1.4326,-1.4901,-1.5108,0.0,0.0,0.0,0.0,0.0,0.0,0.0,-1.0507,-1.0167,-0.9723,-0.9628,-0.9579,-0.9579,-0.9579,-0.9603,-0.9705,-0.988,-1.0075,-1.0335,0.0,0.0,0.0,0.0,0.0,0.0,0.0,0.0,0.0,0.0,0.0,0.0,0.0,0.0,0.0,0.0,0.0,0.0,0.0,0.0,0.0,0.0,0.0,0.0,0.0,0.0,0.0,0.0,0.0,0.0,0.0,0.0,0.0,0.0,0.0,0.0,0.0,0.0,0.0,0.0,0.0,-1.0118,-0.9662,0.0,0.0,0.0,0.0,0.0,0.0,0.0,0.0,0.0,0.0,0.0,0.0,0.0,-0.9726,-0.9726,-0.9783,-1.0373,-1.1431,-1.1431,-1.1897,-1.277,-1.277,-1.277,-1.2836,-1.303,0.0,-1.4907,-1.5298,0.0,0.0,0.0,0.0,0.0,0.0,0.0,0.0,0.0,0.0,0.0,0.0,0.0,0.0,0.0,0.0,0.0,0.0,0.0,0.0,0.0,-1.2427,-1.297,-1.2762,-1.3047,-1.3265,-1.3185,0.0,0.0,0.0,0.0,0.0,0.0,-1.0275,-1.0075,-0.9929,-0.9929,-0.9872,-0.977,-0.977,-0.9721,-0.9583,-0.956,-0.9688,-1.0018,-1.0205,0.0,0.0,0.0,0.0,0.0,0.0,0.0,0.0,0.0,0.0,0.0,0.0,0.0,0.0,0.0,0.0,0.0,0.0,0.0,0.0,0.0,0.0,0.0,0.0,0.0,0.0,0.0,0.0,0.0,0.0,0.0,0.0,0.0,0.0,0.0,0.0,0.0,0.0,0.0,-1.1292,-1.0587,-0.8733,-0.9048,-0.9336,0.0,0.0,0.0,0.0,0.0,0.0,0.0,0.0,0.0,-0.8539,-0.8531,-0.8559,-0.8559,-0.855,-0.9456,-1.1109,-1.1109,-1.1749,-1.277,-1.277,-1.277,-1.277,-1.277,-1.3161,-1.3809,-1.4586,-1.5619,-1.678,0.0,0.0,0.0,0.0,-2.0392,-2.1109,0.0,0.0,0.0,0.0,0.0,0.0,0.0,0.0,0.0,0.0,0.0,0.0,-1.1131,-1.1404,-1.1623,-1.1623,-1.1732,-1.181,-1.1868,-1.1491,0.0,0.0,0.0,0.0,-1.0582,-1.0165,-1.0073,-1.0212,-1.0212,-1.0143,-0.9957,-0.9957,-0.9809,-0.9544,-0.9345,-0.9442,-0.9726,-0.9812,-0.9947,-1.019,0.0,0.0,0.0,0.0,0.0,0.0,0.0,0.0,0.0,0.0,0.0,0.0,0.0,0.0,0.0,0.0,0.0,0.0,0.0,0.0,0.0,0.0,0.0,0.0,0.0,0.0,0.0,0.0,0.0,0.0,0.0,0.0,0.0,0.0,0.0,0.0,0.0,-1.0337,-0.9809,-0.762,-0.8025,-0.8472,0.0,0.0,0.0,0.0,0.0,0.0,-0.8245,-0.8251,-0.7981,-0.7314,-0.7343,-0.7358,-0.7358,-0.7382,-0.8333,-1.0239,-1.0497,-1.1207,-1.2307,-1.2616,-1.2767,-1.2771,-1.2816,-1.277,-1.2902,-1.394,-1.4586,-1.4973,-1.6073,-1.749,-1.8972,-1.8972,-1.9877,-2.1109,0.0,0.0,0.0,0.0,0.0,0.0,0.0,0.0,0.0,0.0,0.0,-1.1732,-1.2273,-1.1896,-1.1623,-1.1623,-1.206,-1.2027,-1.1296,-1.1274,-1.1182,-1.0941,-1.046,-1.0252,-1.0252,-1.02,-1.0204,-1.0212,-1.0212,-1.0208,-1.02,-1.02,-0.9947,-0.9521,-0.947,-0.9388,-0.9198,-0.8996,-0.9092,-0.9463,-0.964,0.0,0.0,0.0,0.0,0.0,0.0,0.0,0.0,0.0,0.0,0.0,0.0,0.0,0.0,0.0,0.0,0.0,0.0,0.0,0.0,0.0,0.0,0.0,0.0,0.0,0.0,0.0,0.0,0.0,0.0,0.0,0.0,0.0,0.0,0.0,0.0,0.0,0.0,-0.6122,-0.6106,0.0,0.0,0.0,0.0,-0.6039,-0.6039,-0.6041,-0.6046,-0.6046,-0.6048,-0.599,-0.6077,-0.6059,-0.6059,-0.6203,-0.6823,-0.798,-0.8875,-0.9834,-1.0926,-1.2114,-1.258,-1.2653,-1.2759,-1.277,-1.2836,-1.2902,-1.3678,-1.4907,-1.4973,-1.6651,-1.8972,-1.8972,-1.9877,-2.1109,0.0,0.0,0.0,0.0,0.0,0.0,0.0,0.0,0.0,-1.1021,-1.135,-1.1514,-1.1345,-1.1459,-1.1459,-1.1076,-1.1185,-1.1156,-1.0875,-1.0921,-1.0891,-1.077,-1.0502,-1.0339,-1.0339,-1.0339,-1.0391,-1.0501,-1.0501,-1.0444,-1.0339,-1.0171,-0.9918,-0.9597,-0.929,-0.9046,-0.8888,-0.8824,-0.8896,-0.9037,-0.9625,-0.983,0.0,0.0,0.0,0.0,0.0,0.0,0.0,0.0,0.0,0.0,0.0,0.0,0.0,0.0,0.0,0.0,0.0,0.0,0.0,0.0,0.0,0.0,0.0,0.0,0.0,0.0,0.0,0.0,0.0,0.0,0.0,0.0,0.0,0.0,0.0,0.0,0.0,-0.6114,-0.5912,0.0,-0.5916,-0.5916,-0.5916,-0.5916,-0.5916,-0.5916,-0.5916,-0.5916,-0.5916,-0.5916,-0.5949,-0.5965,-0.5965,-0.5996,-0.6538,-0.7668,-0.8677,-0.9727,-1.0837,-1.192,-1.2398,-1.2402,-1.2467,-1.2495,-1.2503,-1.2617,-1.2988,-1.3613,-1.452,-1.6073,-1.7812,-1.8652,-1.9877,-2.1109,0.0,0.0,0.0,0.0,0.0,0.0,0.0,0.0,-1.1131,-1.1514,-1.1732,-1.1732,-1.1295,-1.1459,-1.135,-1.0747,-1.0692,-1.0692,-1.0692,-1.0692,-1.0692,-1.0692,-1.0582,-1.0521,-1.0521,-1.0521,-1.0578,-1.0692,-1.0692,-1.0581,-1.0359,-1.0189,-0.9881,-0.9516,-0.9149,-0.8849,-0.8639,-0.8632,-0.8582,-0.8617,-0.9354,-0.9494,-0.9436,0.0,0.0,0.0,0.0,0.0,0.0,0.0,0.0,0.0,0.0,0.0,0.0,0.0,0.0,0.0,0.0,0.0,0.0,0.0,0.0,0.0,0.0,0.0,0.0,0.0,0.0,0.0,0.0,0.0,0.0,0.0,0.0,0.0,0.0,0.0,-0.7353,-0.6114,-0.5912,-0.5916,-0.5916,-0.5916,-0.5916,-0.5916,-0.5916,-0.5916,-0.5916,-0.5916,-0.5916,-0.5916,-0.5916,-0.5916,-0.5916,-0.5916,-0.6253,-0.7058,-0.8358,-0.9392,-1.0173,-1.1553,-1.2215,-1.2219,-1.228,-1.2308,-1.2316,-1.243,-1.2548,-1.2795,-1.434,-1.5494,-1.6527,-1.8326,-1.9616,-2.0462,0.0,0.0,0.0,0.0,0.0,0.0,0.0,-1.1614,-1.1996,-1.3142,-1.2758,-1.2377,-1.2382,-1.1896,-1.135,-1.0747,-1.0692,-1.0692,-1.0692,-1.0692,-1.0692,-1.0692,-1.0692,-1.0692,-1.0692,-1.0692,-1.0692,-1.0692,-1.0692,-1.0527,-1.0312,-1.0257,-0.9894,-0.9201,-0.9201,-0.8952,-0.8479,-0.8388,-0.8191,-0.8079,-0.8674,-0.8926,-0.9019,0.0,0.0,0.0,0.0,0.0,0.0,0.0,0.0,0.0,0.0,0.0,0.0,0.0,0.0,0.0,0.0,0.0,0.0,0.0,0.0,0.0,0.0,0.0,0.0,0.0,0.0,0.0,0.0,0.0,0.0,0.0,0.0,0.0,-0.788,-0.6801,-0.599,-0.5986,-0.5972,-0.5916,-0.5916,-0.5916,-0.5916,-0.5916,-0.5916,-0.5916,-0.5916,-0.5916,-0.5916,-0.5916,-0.5916,-0.5916,-0.5916,-0.5916,-0.5916,-0.5916,-0.7864,-0.8775,-0.8903,-1.1014,-1.202,-1.197,-1.2215,-1.2288,-1.2288,-1.2296,-1.23,-1.2455,-1.4221,-1.4893,-1.5284,-1.7993,-1.903,-1.9234,0.0,0.0,0.0,0.0,0.0,0.0,0.0,-1.1679,-1.2098,-1.2365,-1.2272,-1.2114,-1.1823,-1.1678,-1.135,-1.0747,-1.0692,-1.0692,-1.0692,-1.0692,-1.0692,-1.0692,-1.0692,-1.0692,-1.0692,-1.0692,-1.0692,-1.0692,-1.0527,-1.0366,-1.0312,-0.9871,-0.9519,-0.9311,-0.9095,-0.8845,-0.8638,-0.8703,-0.8612,-0.8419,-0.8758,-0.9072,-0.941,0.0,0.0,0.0,0.0,0.0,0.0,0.0,0.0,0.0,0.0,0.0,0.0,0.0,0.0,0.0,0.0,0.0,0.0,0.0,0.0,0.0,0.0,0.0,0.0,0.0,0.0,0.0,0.0,0.0,0.0,0.0,0.0,-0.8762,-0.7969,-0.6755,-0.5966,-0.5961,-0.5933,-0.5916,-0.5916,-0.5916,-0.5916,-0.5916,-0.5916,-0.5916,-0.5916,-0.5916,-0.5916,-0.5916,-0.5916,-0.5916,-0.5916,-0.5916,-0.5916,-0.5916,-0.7864,-0.8775,-0.8839,-1.0902,-1.1845,-1.1849,-1.1898,-1.1922,-1.1931,-1.2056,-1.2105,-1.2254,-1.3861,-1.5247,-1.6392,-1.8173,-1.9575,-2.0589,0.0,0.0,0.0,0.0,0.0,0.0,0.0,-1.1695,-1.1928,-1.2316,-1.1949,-1.1574,-1.1367,-1.1393,-1.1229,-1.0637,-1.0586,-1.0615,-1.0688,-1.0692,-1.0692,-1.0692,-1.0692,-1.0692,-1.0692,-1.0692,-1.0692,-1.0692,-1.0527,-1.0417,-1.0312,-0.9926,-0.9706,-0.9544,-0.9379,-0.9216,-0.9175,-0.9073,-0.9005,-0.8892,-0.8839,-0.9026,-0.9423,-1.0052,-1.0567,-1.0961,-1.1238,-1.1522,-1.1776,-1.1776,0.0,0.0,0.0,0.0,0.0,0.0,0.0,0.0,0.0,0.0,0.0,0.0,0.0,0.0,0.0,0.0,0.0,0.0,0.0,0.0,0.0,0.0,0.0,0.0,-0.8522,-0.7961,-0.7224,-0.6486,-0.5958,-0.5927,-0.5916,-0.5916,-0.5916,-0.5916,-0.5916,-0.5916,-0.5916,-0.5916,-0.5916,-0.5916,-0.5916,-0.5916,-0.5916,-0.5916,-0.5916,-0.5916,-0.5916,-0.5916,-0.7864,-0.8775,-0.8897,-1.0857,-1.1776,-1.1776,-1.1776,-1.1776,-1.1784,-1.1882,-1.1922,0.0,0.0,0.0,0.0,0.0,-1.9461,-2.0742,0.0,0.0,0.0,0.0,0.0,0.0,0.0,-1.1624,-1.1652,-1.2467,-1.1643,-1.0966,-1.0988,-1.1085,-1.0977,-1.0404,-1.0404,-1.0477,-1.0651,-1.068,-1.0692,-1.0692,-1.0692,-1.0692,-1.0692,-1.0692,-1.0692,-1.0692,-1.0692,-1.0527,-1.0312,-1.0257,-1.0091,-0.9816,-0.9816,-0.9761,-0.975,-0.937,-0.9309,-0.9374,-0.8928,-0.8941,-0.9341,-1.0007,-1.0506,-1.091,-1.1212,-1.1522,-1.1776,-1.1776,0.0,0.0,0.0,0.0,0.0,0.0,0.0,0.0,0.0,0.0,0.0,0.0,0.0,0.0,0.0,0.0,0.0,0.0,0.0,0.0,0.0,0.0,0.0,0.0,-0.725,-0.6591,-0.6283,-0.6123,-0.5968,-0.5929,-0.5916,-0.5916,-0.5916,-0.5916,-0.5916,-0.5916,-0.5916,-0.5916,-0.5916,0.0,0.0,0.0,0.0,-0.5916,-0.5916,-0.5916,-0.5978,-0.6099,-0.7925,-0.8836,-0.9022,-1.0917,-1.1776,-1.1776,-1.1776,-1.1776,-1.1776,-1.1776,-1.1893,-1.2168,-1.3924,-1.4624,-1.4931,-1.7497,-1.9181,-2.0173,0.0,0.0,0.0,0.0,0.0,0.0,0.0,-1.1567,-1.1761,-1.1925,-1.1271,-1.0821,-1.0975,-1.0659,-1.037,-1.0269,-1.0213,-1.0294,-1.0473,-1.0615,-1.0692,-1.0692,-1.0692,-1.0692,-1.0692,-1.0692,-1.0692,-1.0692,-1.0472,-1.0366,-1.0312,-1.0036,-0.9871,-0.9816,-0.9816,-0.9706,-0.9478,-0.9475,-0.9266,-0.8992,-0.9028,-0.9329,-0.9854,-0.9957,-1.0506,-1.1212,-1.1273,-1.1522,-1.1776,-1.1776,-1.1776,-1.1776,-1.1776,0.0,0.0,0.0,0.0,0.0,0.0,0.0,0.0,0.0,0.0,0.0,0.0,0.0,0.0,0.0,0.0,0.0,0.0,0.0,0.0,-0.831,-0.7843,-0.7403,-0.6435,-0.6212,-0.6096,-0.5937,-0.5916,-0.5916,-0.5916,-0.5916,-0.5916,-0.5916,-0.5916,-0.5916,-0.5916,-0.5916,-0.5916,-0.5916,-0.5916,-0.5916,-0.5916,-0.5916,-0.6283,-0.7131,0.0,0.0,-1.0058,-1.1224,-1.1776,-1.1776,-1.1776,-1.1776,-1.1776,-1.1776,-1.2427,-1.3513,-1.5089,-1.6287,-1.74,-1.9153,-1.9985,-2.0173,0.0,0.0,0.0,0.0,0.0,0.0,0.0,-1.1406,-1.1513,-1.136,-1.0719,-1.0332,-1.0425,-1.0228,-1.0073,-1.0073,-1.0159,-1.0253,-1.0294,-1.0465,-1.0603,-1.0688,-1.0692,-1.0692,-1.0692,-1.0692,-1.0692,-1.0692,-1.0582,-1.0472,-1.0472,-1.0308,-1.0253,-1.0253,-1.0088,-0.9981,-0.9812,-0.9563,-0.9359,-0.9158,-0.9316,-0.9678,-1.0135,-1.0098,-1.0624,-1.1333,-1.1462,-1.1651,-1.1776,-1.1776,-1.1776,-1.1776,-1.1776,-1.1776,-1.1776,0.0,0.0,0.0,0.0,0.0,0.0,0.0,0.0,0.0,0.0,0.0,0.0,0.0,0.0,-1.2305,0.0,0.0,-0.9706,-0.7581,-0.725,-0.7016,-0.6395,-0.6237,-0.6131,-0.6,-0.5945,-0.5916,-0.5916,-0.5916,-0.5916,-0.5916,-0.5916,-0.5916,-0.5916,-0.5916,-0.5916,-0.5916,-0.5916,-0.5916,-0.5916,-0.5916,-0.6403,-0.7434,-0.8349,-0.9326,-1.0304,-1.1345,-1.1776,-1.1776,-1.1776,-1.1776,-1.1837,-1.2487,-1.3495,-1.4808,-1.617,-1.7114,-1.7844,-1.9259,-1.98,-1.98,0.0,0.0,0.0,0.0,0.0,0.0,0.0,0.0,-1.1058,-1.0854,-1.0308,-0.9937,-0.9937,-0.9904,-0.9872,-0.9839,-1.0053,-1.0159,-1.0159,-1.0314,-1.0443,-1.0635,-1.0676,-1.0692,-1.0692,-1.0692,-1.0692,-1.0692,-1.0692,-1.0692,-1.0692,-1.0692,-1.0692,-1.0692,-1.0421,-1.0257,-1.0147,-0.9655,-0.9396,-0.9432,-0.9553,-0.9945,-1.0465,-1.0465,-1.0831,-1.1458,-1.1712,-1.1776,-1.1776,-1.1776,-1.1776,-1.1776,-1.1776,-1.1776,-1.1776,-1.1776,-1.1776,0.0,0.0,0.0,0.0,0.0,0.0,0.0,0.0,0.0,-1.277,-1.277,-1.277,-1.2239,-1.0243,-0.9709,-0.8981,-0.7118,-0.6652,-0.6494,-0.6353,-0.6264,-0.6176,-0.6025,-0.5984,-0.5916,-0.5916,-0.5916,-0.5916,-0.5916,-0.5916,-0.5916,-0.5916,-0.5916,-0.5916,-0.5916,-0.5916,-0.5978,-0.616,-0.6221,-0.6768,-0.7983,-0.8714,-0.9633,-1.0611,-1.1409,-1.1776,-1.1776,-1.1776,-1.1776,-1.1893,-1.3435,-1.4679,-1.5747,-1.7285,-1.787,-1.7987,-1.901,-1.9424,-1.9424,0.0,0.0,0.0,0.0,0.0,0.0,0.0,0.0,0.0,-1.0457,-1.0298,-1.0184,-1.0184,-1.0033,-0.9823,-0.9669,-0.9815,-0.9916,-0.9916,-1.0241,-1.0391,-1.0411,-1.0611,-1.0692,-1.0692,-1.0692,-1.0692,-1.0692,-1.0692,-1.0692,-1.0692,-1.0692,-1.0692,-1.0692,-1.0421,-1.0147,-0.9816,-0.9544,-0.9453,-0.9578,-0.9592,-1.0187,-1.1,-1.1,-1.13,-1.1776,-1.1776,-1.1776,-1.1776,-1.1776,-1.1776,-1.1776,-1.1776,-1.1776,-1.1776,-1.1776,0.0,-1.1813,-1.1983,-1.2276,-1.2584,-1.2787,-1.277,-1.277,0.0,0.0,-1.277,-1.277,-1.277,-1.2437,-1.1233,-1.024,-0.9244,-0.8046,-0.7049,-0.6518,-0.6508,-0.6359,-0.6268,-0.6178,-0.6019,-0.5916,-0.5916,-0.5916,-0.5916,-0.5916,-0.5916,-0.5916,-0.5916,-0.5916,-0.5916,-0.5916,-0.5916,-0.6342,-0.7253,-0.7253,-0.8166,-0.9997,-1.0061,-1.0671,-1.1651,-1.1776,-1.1776,-1.1776,-1.1776,-1.1776,-1.2018,-1.4386,-1.5451,-1.5871,-1.824,-1.9191,-1.9185,-1.9366,-1.9424,-1.9424,0.0,0.0,0.0,0.0,0.0,0.0,0.0,0.0,0.0,0.0,-1.0428,-1.0322,-1.0322,-1.0156,-0.9973,-0.9791,-0.9843,-0.9884,-0.9884,-1.003,-1.0164,-1.027,-1.0448,-1.0542,-1.0542,-1.0639,-1.0692,-1.0692,-1.0692,-1.0692,-1.0692,-1.0692,-1.0637,-1.0472,-1.0366,-1.02,-0.9954,-0.9842,-0.9878,-1.0036,-1.0362,-1.0724,-1.1158,-1.1383,-1.1651,-1.1776,-1.1776,-1.1776,0.0,0.0,-1.1776,-1.1776,-1.1776,-1.1776,-1.1776,-1.1776,-1.1776,0.0,-1.2117,-1.23,0.0,0.0,-1.277,-1.277,-1.277,-1.277,-1.277,-1.277,-1.277,-1.2503,-1.1431,-1.0303,-0.9244,0.0,-0.7183,-0.652,-0.652,-0.6374,-0.6302,-0.6264,-0.6104,-0.5914,-0.5923,-0.5916,-0.5916,-0.5916,-0.5916,-0.5916,-0.5916,-0.5916,-0.5916,-0.5916,-0.5916,-0.6403,-0.7373,-0.7373,-0.8352,-1.0304,-1.0304,-1.0857,-1.1776,-1.1776,-1.1776,-1.1776,-1.1776,-1.2191,-1.308,-1.4862,-1.6042,-1.6868,-1.8713,-1.9424,-1.9424,-1.9424,-1.9424,-1.9424,0.0,0.0,0.0,0.0,0.0,0.0,0.0,0.0,0.0,0.0,-1.0582,-1.0435,-1.0387,-1.0318,-1.0164,-0.9977,-0.9961,-0.9961,-0.9961,-1.0006,-1.0075,-1.0208,-1.0335,-1.0358,-1.0363,-1.0534,-1.0623,-1.0623,-1.0668,-1.0692,-1.0692,-1.0692,-1.061,-1.0493,-1.0382,-1.0308,-1.0292,-1.0179,-1.0276,-1.0557,-1.0918,-1.1177,-1.1355,-1.1667,-1.1776,-1.1776,-1.1776,-1.1776,0.0,0.0,-1.1776,-1.1776,-1.1776,-1.1776,-1.1776,-1.1776,-1.1776,-1.1853,-1.2211,0.0,0.0,-1.2747,-1.277,-1.277,-1.277,-1.277,-1.277,-1.277,-1.277,-1.2568,-1.1765,-1.077,-0.9775,-0.9042,-0.7781,-0.6918,-0.6918,-0.6593,-0.6345,-0.6321,-0.614,-0.6027,-0.5998,-0.5945,-0.5916,-0.5916,-0.5916,-0.5916,-0.5916,-0.5916,-0.5916,-0.5916,-0.616,-0.6768,-0.78,-0.8044,-0.9022,-1.0732,-1.0732,-1.1099,-1.1776,-1.1776,-1.1776,-1.1776,-1.1776,-1.2548,-1.3784,-1.5095,-1.6338,-1.763,-1.8887,-1.9424,-1.9424,-1.9424,-1.9424,-1.9424,0.0,0.0,0.0,0.0,0.0,0.0,0.0,0.0,0.0,0.0,0.0,0.0,0.0,0.0,-1.0355,-1.022,-1.0204,-1.0204,-1.0204,-1.0318,-1.0343,-1.0224,-1.0335,-1.0351,-1.0228,-1.0351,-1.0391,-1.0391,-1.0611,-1.0692,-1.0692,-1.0692,-1.0789,-1.096,-1.0622,-1.0603,-1.0755,-1.0409,-1.0627,-1.1083,-1.1087,-1.1371,-1.1768,-1.1776,-1.1776,-1.1776,-1.1776,0.0,0.0,0.0,-1.1776,-1.1776,-1.1776,-1.1776,0.0,-1.1776,-1.1776,0.0,0.0,0.0,-1.2393,-1.2747,-1.277,-1.277,-1.277,-1.277,-1.277,-1.277,-1.277,-1.277,-1.277,-1.1901,-1.1163,-1.1097,-0.9305,-0.7977,-0.7977,-0.7114,-0.6417,-0.6327,-0.6313,-0.6272,0.0,-0.6016,-0.5916,-0.5916,-0.5916,-0.5916,-0.5916,-0.5916,-0.5916,-0.5916,-0.6827,-0.78,-0.8775,-0.9754,-1.0732,-1.1776,-1.1776,-1.1776,-1.1776,-1.1776,-1.1776,-1.1776,-1.1776,-1.2548,-1.3784,-1.5095,-1.6338,-1.763,-1.8887,-1.9424,-1.9424,-1.9424,-1.9424,-1.9424,0.0,0.0,0.0,0.0,0.0,0.0,0.0,0.0,0.0,0.0,0.0,0.0,0.0,0.0,0.0,0.0,0.0,0.0,-1.0224,-1.0217,-1.0229,-1.0216,-1.0335,-1.0404,-1.0343,-1.0513,-1.0607,-1.0607,-1.0789,-1.0875,-1.0879,-1.0992,-1.0964,-1.0853,-1.0967,-1.1009,-1.1001,-1.1055,-1.128,-1.1567,-1.1567,-1.1663,-1.1776,-1.1776,-1.1776,-1.1776,0.0,0.0,0.0,0.0,0.0,0.0,-1.1776,0.0,0.0,-1.1776,0.0,0.0,0.0,0.0,-1.2536,-1.2775,-1.277,-1.277,-1.277,-1.277,-1.277,-1.277,-1.277,-1.277,-1.277,-1.1901,-1.123,-1.123,-0.9971,-0.8845,-0.811,-0.7712,-0.7236,-0.6544,-0.6353,0.0,0.0,0.0,0.0,-0.5944,-0.5951,-0.5916,-0.5916,-0.6523,-0.6888,-0.6888,-0.7803,-0.8879,-0.9958,-1.0331,-1.1071,-1.213,-1.213,-1.2065,-1.1947,-1.1947,-1.1882,-1.1837,-1.2664,-1.3789,-1.5035,-1.6338,-1.7636,-1.8829,-1.9243,-1.9424,-1.9424,-1.9424,-1.9424,-1.9424,0.0,0.0,0.0,0.0,0.0,0.0,0.0,0.0,0.0,0.0,0.0,0.0,0.0,0.0,0.0,0.0,0.0,0.0,0.0,-1.0404,-1.0327,-1.0262,-1.0371,-1.0404,-1.0339,-1.0509,-1.0631,-1.0692,-1.0879,-1.1001,-1.1062,-1.1171,-1.1141,-1.1035,-1.1205,-1.1306,-1.1363,-1.1538,-1.1667,-1.1776,-1.1776,-1.1776,-1.1784,-1.1845,-1.1866,0.0,-1.1943,0.0,0.0,0.0,0.0,0.0,0.0,0.0,0.0,0.0,0.0,0.0,0.0,-1.2479,-1.2609,-1.2791,-1.277,-1.277,-1.277,-1.277,-1.277,-1.277,-1.277,-1.277,-1.277,-1.2235,-1.1765,-1.1765,-1.0836,-0.9905,-0.9238,-0.8507,-0.7779,-0.7118,-0.6666,-0.6366,0.0,0.0,0.0,-0.61,-0.6045,-0.6197,-0.6571,-0.7189,-0.7743,-0.8113,-0.9042,-0.9891,-1.0676,-1.1058,-1.1556,-1.2308,-1.2308,-1.2243,-1.213,-1.213,-1.2069,-1.2024,-1.3348,-1.4675,-1.5937,-1.7255,-1.8523,-1.9679,-1.9679,-1.9679,-1.9679,-1.9679,-1.9679,-1.9646,0.0,0.0,0.0,0.0,0.0,0.0,0.0,0.0,0.0,0.0,0.0,0.0,0.0,0.0,0.0,0.0,0.0,0.0,0.0,-1.0692,-1.0619,-1.0399,-1.0456,-1.0379,-1.0257,-1.0383,-1.0554,-1.072,-1.0907,-1.1078,-1.1236,-1.1244,-1.1342,-1.1516,-1.1516,-1.1614,-1.1776,-1.1776,-1.1776,-1.1776,-1.1784,-1.1788,-1.1809,-1.1979,-1.2044,-1.2065,0.0,0.0,0.0,0.0,0.0,0.0,0.0,0.0,0.0,0.0,0.0,-1.2357,-1.2519,-1.2637,-1.2621,-1.2791,-1.277,-1.277,-1.277,-1.277,-1.277,-1.277,-1.277,-1.277,0.0,0.0,-1.277,-1.277,-1.1967,-1.123,-1.123,-0.9437,-0.811,0.0,0.0,0.0,0.0,0.0,0.0,-0.6393,0.0,-0.6757,-0.7842,-0.7909,-0.8417,-0.943,-1.0386,-1.0901,-1.0908,-1.1877,-1.2333,-1.2333,-1.2333,-1.2328,-1.232,-1.232,-1.2316,-1.2367,-1.3797,-1.5095,-1.6387,-1.7743,-1.9046,-2.0173,-2.0173,-2.0173,-2.0173,-2.0173,-2.0173,-2.0154,0.0,0.0,0.0,0.0,0.0,0.0,0.0,0.0,0.0,0.0,0.0,0.0,0.0,0.0,0.0,0.0,0.0,0.0,0.0,-1.0692,-1.0672,-1.0627,-1.0761,-1.081,-1.082,-1.0936,-1.1045,-1.1086,-1.1273,-1.1386,-1.1431,-1.1569,-1.1663,-1.1707,-1.1707,-1.1732,-1.1776,-1.1776,-1.1776,-1.1788,-1.1914,-1.1963,-1.1983,-1.2166,-1.2235,0.0,0.0,0.0,0.0,0.0,0.0,0.0,0.0,0.0,-1.2308,0.0,0.0,-1.2507,-1.2616,-1.2661,-1.2779,-1.2758,-1.277,-1.277,-1.277,-1.277,-1.277,-1.277,-1.277,-1.277,0.0,0.0,0.0,-1.277,-1.2568,0.0,-1.1299,-1.07,0.0,-0.931,0.0,-0.8781,-0.8781,-0.8753,0.0,0.0,-0.7873,-0.7842,-0.8921,-0.9688,-1.0133,-1.045,-1.1407,-1.198,-1.217,-1.2503,-1.2702,-1.2702,-1.2702,-1.2629,-1.2499,-1.2499,-1.243,-1.2367,-1.3667,-1.5027,-1.6387,-1.7687,-1.8991,-2.0173,-2.0173,-2.0173,-2.0173,-2.0173,-2.0173,-2.0153,0.0,0.0,0.0,0.0,0.0,0.0,0.0,0.0,0.0,0.0,0.0,0.0,0.0,0.0,0.0,0.0,0.0,0.0,0.0,-1.0769,-1.0814,-1.0814,-1.0984,-1.1082,-1.1082,-1.1175,-1.1261,-1.1342,-1.1447,-1.1541,-1.1622,-1.1727,-1.1776,-1.1776,-1.1776,-1.1776,-1.178,-1.1857,-1.189,0.0,0.0,-1.215,-1.217,-1.2353,-1.2422,0.0,0.0,0.0,0.0,0.0,0.0,-1.254,-1.254,-1.254,-1.254,-1.254,0.0,-1.2682,-1.2682,-1.2759,-1.277,-1.277,-1.277,-1.277,-1.277,-1.277,-1.277,-1.277,-1.277,0.0,0.0,0.0,0.0,0.0,0.0,0.0,-1.1967,-1.1497,-1.0965,0.0,-0.9908,0.0,-0.9579,-0.9579,-0.9775,0.0,-0.9243,-0.903,-1.0126,-1.0711,-1.1167,-1.169,-1.2214,-1.2584,-1.2682,-1.2787,-1.277,-1.277,-1.277,-1.2783,-1.2682,-1.2682,-1.2629,-1.26,0.0,-1.4935,-1.5818,-1.7776,-1.8976,-1.9728,-2.0361,-2.0615,-2.0615,-2.0615,-2.0615,-2.0615,0.0,0.0,0.0,0.0,0.0,0.0,0.0,0.0,0.0,0.0,0.0,0.0,0.0,0.0,0.0,0.0,0.0,0.0,0.0,0.0,0.0,0.0,-1.1167,-1.1256,0.0,0.0,0.0,0.0,0.0,0.0,-1.1776,-1.1776,-1.1776,-1.1776,-1.1801,-1.1809,-1.1821,-1.1996,-1.2065,-1.2081,-1.2268,-1.2341,-1.2361,0.0,0.0,0.0,0.0,0.0,0.0,0.0,-1.277,-1.277,-1.277,-1.277,-1.277,-1.277,-1.277,-1.277,-1.277,-1.277,-1.277,-1.277,-1.2968,-1.303,-1.2836,-1.2968,-1.3034,-1.2836,0.0,-1.277,-1.277,0.0,-1.277,-1.277,0.0,-1.277,-1.277,-1.2033,-1.1431,-1.1431,-1.0571,-1.0041,-1.0041,-1.0041,-1.0439,-1.1365,-1.0571,-1.0439,-1.1365,-1.1431,-1.1831,-1.277,-1.277,-1.277,-1.277,-1.277,-1.277,-1.277,-1.277,-1.277,-1.277,-1.277,-1.277,-1.2902,-1.4067,-1.4842,-1.5364,-1.7748,-1.8972,-1.9425,-2.0589,-2.1109,-2.1109,-2.1109,-2.1109,-2.1109,0.0,0.0,0.0,0.0,0.0,0.0,0.0,0.0,0.0,0.0,-1.0692,-1.0692,0.0,0.0,0.0,0.0,0.0,0.0,0.0,0.0,0.0,0.0,-1.1354,-1.1451,0.0,0.0,0.0,0.0,0.0,0.0,-1.1776,-1.1776,-1.1776,-1.1784,-1.1922,-1.1983,-1.2,-1.2182,-1.2259,-1.2276,-1.2446,-1.2519,-1.254,0.0,0.0,0.0,0.0,0.0,0.0,0.0,-1.277,-1.277,-1.277,-1.277,-1.277,-1.277,-1.277,-1.277,-1.277,-1.277,-1.277,-1.277,-1.3678,-1.4263,-1.3095,-1.3678,0.0,0.0,0.0,-1.277,-1.277,-1.277,0.0,-1.277,0.0,0.0,0.0,0.0,-1.2503,0.0,0.0,0.0,0.0,0.0,0.0,0.0,0.0,-1.2305,-1.2503,-1.2503,-1.2634,-1.277,-1.277,-1.277,-1.277,-1.277,-1.277,-1.277,-1.277,-1.277,-1.277,-1.277,-1.277,-1.2836,-1.303,0.0,-1.6651,-1.7168,-1.8716,-2.0786,-2.0982,-2.1109,-2.1109,-2.1109,-2.1109,-2.1109,0.0,0.0,0.0,0.0,0.0,0.0,0.0,-1.0968,-1.0968,-1.0968,-1.0968,-1.0899,-1.0712,-1.0692,-1.0729,0.0,0.0,0.0,0.0,0.0,0.0,0.0,0.0,0.0,0.0,0.0,0.0,0.0,0.0,0.0,0.0,0.0,0.0,0.0,0.0,0.0,0.0,0.0,0.0,0.0,0.0,0.0,0.0,0.0,0.0,0.0,0.0,0.0,0.0,0.0,-1.297,-1.2954,-1.2798,-1.277,-1.277,-1.277,-1.277,-1.277,-1.277,-1.3354,-1.3875,-1.3875,-1.439,-1.4912,-1.4973,0.0,0.0,0.0,0.0,-1.277,-1.277,0.0,0.0,0.0,0.0,0.0,0.0,0.0,0.0,0.0,0.0,0.0,0.0,0.0,0.0,0.0,0.0,-1.277,-1.277,-1.277,-1.277,-1.277,-1.277,-1.277,-1.277,-1.277,-1.277,-1.277,-1.277,-1.277,-1.277,-1.277,-1.277,-1.277,-1.277,-1.4002,-1.5944,-1.6721,-1.8203,-2.0075,-2.0786,-2.1109,-2.1109,-2.1109,-2.1109,-2.1109,0.0,0.0,0.0,0.0,0.0,0.0,0.0,-1.1224,-1.1224,-1.1224,-1.1224,-1.1114,-1.0838,-1.0806,-1.0863,0.0,0.0,0.0,0.0,0.0,0.0,0.0,0.0,0.0,0.0,0.0,0.0,0.0,0.0,0.0,0.0,0.0,0.0,0.0,0.0,0.0,0.0,0.0,0.0,0.0,0.0,0.0,0.0,0.0,0.0,0.0,0.0,0.0,0.0,0.0,-1.3153,-1.3124,-1.295,-1.2798,-1.277,-1.277,-1.277,-1.2902,-1.3161,-1.3809,-1.452,-1.4842,-1.5103,-1.5489,-1.6009,-1.4842,0.0,0.0,-1.3607,-1.2905,-1.2942,0.0,0.0,0.0,0.0,0.0,0.0,0.0,0.0,0.0,0.0,0.0,0.0,0.0,0.0,0.0,0.0,0.0,-1.277,-1.2704,-1.2704,-1.277,-1.277,-1.277,-1.277,-1.277,-1.277,-1.277,-1.277,-1.277,-1.277,-1.2704,-1.2704,-1.277,-1.2704,-1.3678,-1.5429,-1.6527,-1.7941,-1.9553,-2.0652,-2.1109,-2.1109,-2.1046,-2.0982,-2.0982,0.0,0.0,0.0,0.0,0.0,0.0,0.0,-1.1224,-1.1224,-1.1224,-1.1224,-1.1208,-1.1179,-1.1171,-1.1179,0.0,0.0,0.0,0.0,0.0,0.0,0.0,0.0,0.0,0.0,0.0,0.0,0.0,0.0,0.0,0.0,0.0,0.0,0.0,0.0,0.0,0.0,0.0,0.0,0.0,0.0,0.0,0.0,0.0,0.0,0.0,0.0,0.0,0.0,0.0,0.0,-1.3315,-1.3128,-1.2962,-1.277,-1.277,0.0,0.0,-1.439,-1.3875,-1.3293,-1.4586,-1.5879,-1.6138,-1.3744,0.0,0.0,-1.3761,-1.3135,-1.312,-1.3291,-1.3323,0.0,0.0,0.0,0.0,0.0,0.0,0.0,0.0,0.0,0.0,0.0,0.0,0.0,0.0,0.0,0.0,-1.277,-1.2507,-1.2507,-1.277,-1.277,-1.277,-1.277,-1.277,-1.277,-1.277,-1.277,-1.277,-1.277,-1.2507,-1.2507,-1.277,-1.2507,-1.4063,0.0,-1.698,-1.8524,-2.0912,-2.1046,-2.1109,-2.1046,-2.0736,-2.0672,-2.0609,0.0,0.0,0.0,0.0,0.0,0.0,-1.1498,-1.1553,-1.1553,-1.1553,-1.1553,-1.1553,-1.1553,-1.1553,-1.1508,-1.1399,0.0,0.0,0.0,0.0,0.0,0.0,0.0,0.0,0.0,0.0,0.0,0.0,0.0,0.0,0.0,0.0,0.0,0.0,0.0,0.0,0.0,0.0,0.0,0.0,0.0,0.0,0.0,0.0,0.0,0.0,0.0,0.0,0.0,0.0,0.0,0.0,-1.3319,-1.3214,0.0,0.0,-1.277,-1.2902,-1.3486,-1.4455,-1.5489,-1.6009,-1.6592,-1.691,-1.6586,0.0,0.0,-1.4401,-1.3781,-1.3283,-1.336,-1.3372,-1.3348,-1.3275,0.0,0.0,0.0,0.0,0.0,0.0,0.0,0.0,0.0,0.0,0.0,0.0,0.0,-1.1776,-1.2177,-1.2243,-1.2441,-1.277,-1.277,-1.277,-1.277,-1.277,-1.277,-1.277,-1.2572,-1.2507,-1.2507,-1.2177,-1.2045,-1.2243,-1.2964,-1.4455,0.0,-1.7243,-1.8734,-2.0482,-2.0482,-2.0482,-2.0482,-2.0361,-2.0297,-2.0297,0.0,0.0,0.0,0.0,0.0,-1.0611,-1.1655,-1.1776,-1.1776,-1.1776,-1.1776,-1.1776,-1.1776,-1.1776,-1.1723,-1.1593,-1.1581,0.0,0.0,0.0,0.0,0.0,0.0,0.0,0.0,0.0,-1.1776,-1.1776,-1.1776,0.0,0.0,0.0,0.0,0.0,0.0,0.0,0.0,0.0,0.0,0.0,0.0,0.0,0.0,0.0,0.0,0.0,0.0,0.0,0.0,0.0,0.0,0.0,0.0,0.0,0.0,0.0,-1.2913,-1.2967,-1.3305,-1.4842,-1.6462,-1.6915,-1.7028,-1.7212,0.0,0.0,-1.3988,-1.4585,-1.4036,-1.347,-1.3518,-1.3526,-1.351,-1.3461,0.0,-1.3157,0.0,0.0,0.0,0.0,0.0,0.0,0.0,0.0,0.0,0.0,0.0,-1.1314,-1.1582,-1.1843,-1.2177,-1.2638,-1.277,-1.277,-1.277,-1.277,-1.277,-1.2638,-1.2441,-1.2243,-1.2111,-1.178,-1.171,-1.1843,-1.3174,-1.4534,0.0,-1.7394,-1.8828,-2.0106,-2.0106,-2.0106,-2.0106,-1.9973,-1.9973,-1.9915,0.0,0.0,0.0,0.0,0.0,0.0,-1.1655,-1.1776,-1.1776,-1.1776,-1.1776,-1.1776,-1.1776,-1.1776,-1.1776,-1.1776,-1.1776,0.0,0.0,0.0,0.0,0.0,0.0,0.0,0.0,0.0,-1.1776,-1.1776,-1.1776,-1.1861,-1.197,-1.2219,0.0,0.0,0.0,0.0,0.0,0.0,0.0,0.0,0.0,0.0,0.0,0.0,0.0,0.0,0.0,0.0,0.0,0.0,0.0,0.0,0.0,0.0,0.0,0.0,-1.3092,-1.3386,-1.4576,-1.4907,-1.5233,-1.6656,-1.7092,-1.6868,0.0,0.0,-1.5042,-1.3874,-1.364,-1.3693,-1.3863,-1.3896,-1.3839,-1.3598,-1.349,0.0,0.0,0.0,0.0,0.0,0.0,0.0,0.0,0.0,0.0,0.0,0.0,0.0,-1.1181,-1.1181,-1.1582,-1.2309,-1.2638,-1.277,-1.277,-1.277,-1.2638,-1.2309,-1.2309,-1.2111,-1.178,-1.1383,-1.1442,-1.1831,-1.2889,-1.4304,0.0,-1.7422,-1.8799,-2.0106,-2.0106,-2.0106,-2.0043,-1.9711,-1.9641,-1.9577,0.0,0.0,0.0,0.0,0.0,0.0,0.0,-1.1776,-1.1776,-1.1776,-1.1776,-1.1776,-1.1776,-1.1776,-1.1776,-1.1776,-1.1776,0.0,0.0,0.0,0.0,0.0,0.0,0.0,0.0,-1.1776,-1.1776,-1.1776,-1.1776,-1.1931,-1.2219,-1.228,-1.2467,-1.2751,0.0,0.0,0.0,0.0,0.0,0.0,0.0,0.0,0.0,0.0,0.0,0.0,0.0,0.0,0.0,0.0,0.0,0.0,0.0,0.0,0.0,0.0,0.0,0.0,-1.3751,-1.4535,-1.5328,-1.5797,-1.5913,-1.5832,-1.5422,0.0,-1.405,-1.3702,-1.3738,-1.3835,-1.3892,-1.39,-1.3884,-1.3827,-1.3567,0.0,0.0,0.0,0.0,0.0,0.0,0.0,0.0,0.0,0.0,0.0,0.0,-1.0853,-1.0853,-1.1049,-1.1446,-1.1912,-1.2045,-1.2111,-1.2111,-1.2111,-1.2045,-1.1978,-1.171,-1.1516,-1.138,-1.1052,-1.0916,-1.1181,-1.3392,-1.4693,-1.5414,-1.7787,-1.9026,-1.9398,-1.9398,-1.9398,-1.9398,-1.9328,-1.9264,-1.9264,0.0,0.0,0.0,0.0,0.0,0.0,0.0,-1.1776,-1.1776,-1.1776,-1.1776,-1.1776,-1.1776,-1.1776,-1.1776,-1.1776,-1.1776,0.0,0.0,0.0,0.0,0.0,0.0,0.0,-1.1776,-1.1776,-1.1776,-1.1776,-1.1776,-1.1959,-1.2308,-1.2308,-1.2495,-1.277,-1.277,-1.277,0.0,0.0,0.0,0.0,0.0,0.0,-1.3409,0.0,0.0,0.0,0.0,0.0,0.0,0.0,0.0,0.0,0.0,0.0,0.0,0.0,0.0,0.0,0.0,-1.4382,-1.5391,-1.5391,-1.5451,0.0,0.0,0.0,-1.4367,-1.3808,-1.4248,-1.4533,-1.3971,-1.39,-1.39,-1.39,-1.3604,0.0,0.0,0.0,0.0,0.0,0.0,0.0,0.0,0.0,0.0,0.0,-1.0916,-1.0721,-1.0721,-1.092,-1.1118,-1.1383,-1.1648,-1.178,-1.178,-1.178,-1.1714,-1.1582,-1.1314,-1.1115,-1.0982,-1.0787,-1.0721,-1.0853,-1.3133,-1.4124,0.0,-1.6555,-1.7812,-1.8302,-1.8337,-1.8617,-1.9078,-1.9078,-1.9078,-1.9078,0.0,0.0,0.0,0.0,0.0,0.0,0.0,-1.1776,-1.1776,-1.1776,-1.1776,-1.1776,-1.1776,-1.1776,-1.1776,-1.1776,0.0,0.0,0.0,0.0,0.0,0.0,0.0,0.0,-1.1776,-1.1776,-1.1776,-1.1776,-1.1788,-1.1971,-1.2308,-1.232,-1.2507,-1.277,-1.277,-1.277,-1.277,-1.277,-1.277,-1.2869,-1.3226,-1.3372,0.0,0.0,0.0,0.0,0.0,0.0,0.0,0.0,0.0,0.0,0.0,0.0,0.0,0.0,0.0,0.0,0.0,0.0,0.0,0.0,0.0,0.0,0.0,0.0,0.0,0.0,0.0,-1.5523,-1.4181,-1.39,-1.39,-1.39,0.0,0.0,0.0,0.0,0.0,0.0,0.0,0.0,0.0,0.0,0.0,0.0,-1.085,-1.0721,-1.0721,-1.0721,-1.0721,-1.0721,-1.1383,-1.1714,-1.1714,-1.1714,-1.1516,-1.1181,-1.1181,-1.0982,-1.0721,-1.0721,-1.0721,0.0,-1.2164,-1.2767,-1.2921,-1.4308,-1.5729,-1.7017,-1.7012,-1.7888,-1.9078,-1.9078,-1.9078,-1.9078,0.0,0.0,0.0,0.0,0.0,0.0,0.0,0.0,0.0,0.0,-1.1776,-1.1776,-1.1776,-1.1776,-1.1776,0.0,0.0,0.0,0.0,0.0,0.0,0.0,0.0,0.0,-1.1776,-1.1776,-1.1776,-1.1776,-1.1906,-1.2085,-1.2308,-1.2442,-1.2621,-1.277,-1.277,-1.277,-1.277,-1.277,-1.277,-1.2869,-1.3226,-1.3372,0.0,0.0,0.0,0.0,-1.4324,-1.4395,0.0,0.0,0.0,0.0,0.0,0.0,0.0,0.0,-1.5589,-1.5287,-1.4082,0.0,-1.4264,-1.4264,-1.4298,0.0,0.0,0.0,0.0,0.0,0.0,0.0,0.0,0.0,0.0,0.0,0.0,0.0,0.0,0.0,0.0,0.0,0.0,0.0,0.0,0.0,0.0,-1.0853,-1.0721,-1.0721,-1.0721,-1.0721,-1.0721,-1.0721,-1.0853,-1.0986,-1.0986,-1.0986,-1.092,-1.0853,-1.0853,-1.0787,-1.0721,-1.0721,-1.0721,-1.079,-1.2164,-1.2815,-1.289,-1.4315,-1.571,-1.6981,-1.698,-1.7831,-1.9078,-1.9078,-1.9078,-1.9078,0.0,0.0,0.0,0.0,0.0,0.0,0.0,0.0,0.0,0.0,0.0,-1.1776,-1.1776,-1.1776,0.0,0.0,0.0,0.0,0.0,0.0,0.0,0.0,0.0,-1.1813,-1.189,-1.1894,-1.1935,-1.202,-1.2109,-1.2247,-1.2426,-1.2519,-1.2661,-1.277,-1.277,-1.277,-1.277,-1.277,-1.277,-1.2869,-1.3226,0.0,0.0,0.0,0.0,0.0,-1.4884,-1.5376,0.0,-1.6916,-1.671,-1.6226,0.0,0.0,0.0,0.0,-1.4809,-1.4671,-1.3825,-1.3757,-1.39,-1.39,-1.39,-1.39,0.0,0.0,0.0,0.0,0.0,0.0,0.0,0.0,0.0,0.0,0.0,0.0,0.0,0.0,0.0,0.0,0.0,0.0,0.0,0.0,0.0,-1.0916,-1.0787,-1.0721,-1.0721,-1.0721,-1.0721,-1.0721,-1.0721,-1.0721,-1.0721,-1.0721,-1.0721,-1.0721,-1.0721,-1.0721,-1.0721,-1.0721,-1.0721,-1.0721,-1.1541,-1.1817,-1.1888,-1.2648,-1.3825,-1.5134,-1.5769,-1.6878,-1.8221,-1.888,-1.9078,-1.9078,0.0,0.0,0.0,0.0,0.0,0.0,0.0,0.0,0.0,0.0,0.0,0.0,0.0,0.0,0.0,0.0,0.0,0.0,0.0,0.0,0.0,0.0,-1.1857,-1.1926,-1.2069,-1.2073,-1.215,-1.2308,-1.2333,-1.2422,-1.2628,-1.2592,-1.2686,-1.277,-1.277,-1.277,-1.277,-1.277,-1.277,-1.2798,-1.3197,0.0,0.0,0.0,0.0,0.0,0.0,0.0,0.0,-1.8309,-1.7479,-1.6433,-1.6433,0.0,0.0,0.0,0.0,0.0,-1.3325,-1.3543,-1.3757,-1.39,-1.3829,-1.3829,0.0,0.0,0.0,0.0,0.0,0.0,0.0,0.0,0.0,0.0,0.0,0.0,0.0,0.0,0.0,0.0,0.0,0.0,0.0,-1.092,-1.0853,-1.1115,-1.0853,-1.0721,-1.0721,-1.0721,-1.0721,-1.0721,-1.0721,-1.0721,-1.0721,-1.0721,-1.0721,-1.0721,-1.0721,-1.0721,-1.0721,-1.0721,-1.0721,-1.0721,-1.0721,0.0,-1.0719,-1.0719,-1.1591,-1.299,-1.4438,-1.5864,-1.7255,-1.8706,-1.9217,-1.9199,0.0,0.0,0.0,0.0,0.0,0.0,0.0,0.0,0.0,0.0,0.0,0.0,0.0,0.0,0.0,0.0,0.0,0.0,0.0,0.0,0.0,-1.2227,-1.2227,-1.2235,-1.2264,-1.2264,-1.228,-1.2308,-1.245,-1.254,-1.2568,-1.2722,-1.2808,-1.277,-1.277,-1.277,-1.277,-1.277,-1.277,-1.2786,-1.3055,0.0,0.0,0.0,0.0,0.0,0.0,0.0,0.0,-1.8035,-1.7965,-1.8035,-1.8035,0.0,0.0,0.0,0.0,0.0,-1.3535,-1.3111,-1.3111,-1.3757,-1.3615,-1.3396,0.0,0.0,0.0,0.0,0.0,0.0,0.0,0.0,0.0,0.0,0.0,0.0,0.0,0.0,0.0,0.0,0.0,0.0,0.0,-1.092,-1.0721,-1.0787,-1.0721,-1.0721,-1.0721,-1.0721,-1.0721,-1.0721,-1.0721,-1.0721,-1.0721,-1.0721,-1.0721,-1.0721,-1.0721,-1.0721,-1.0721,-1.0721,-1.0721,-1.0721,0.0,-1.073,-1.0896,-1.0896,-1.1836,-1.3356,-1.4842,-1.6243,-1.7668,-1.9221,-1.9814,-1.9766,0.0,0.0,0.0,0.0,0.0,0.0,0.0,0.0,0.0,0.0,0.0,0.0,0.0,0.0,0.0,0.0,0.0,0.0,0.0,0.0,-1.2446,-1.2446,-1.254,-1.2548,-1.2446,-1.2446,-1.2495,-1.2592,-1.2674,-1.271,-1.2714,-1.2795,-1.277,-1.277,-1.277,-1.277,-1.277,-1.277,-1.277,-1.2852,0.0,0.0,0.0,0.0,0.0,0.0,0.0,0.0,0.0,0.0,-1.7884,-1.8094,-1.8105,0.0,0.0,0.0,0.0,0.0,-1.3111,-1.3039,-1.3163,-1.3428,-1.3196,-1.2839,0.0,0.0,0.0,0.0,0.0,0.0,0.0,0.0,0.0,0.0,0.0,0.0,0.0,0.0,0.0,0.0,0.0,0.0,-1.092,-1.0787,-1.0721,-1.0721,-1.0721,-1.0721,-1.0721,-1.0721,-1.0721,-1.0721,-1.0721,-1.0721,-1.0721,-1.0721,-1.0721,-1.0721,-1.0721,-1.0708,-1.0813,-1.0813,-1.0843,-1.0958,0.0,-1.1045,-1.1087,-1.1069,-1.1519,-1.2311,-1.3719,-1.4741,-1.5553,-1.7798,-1.9192,-1.9887,0.0,0.0,0.0,0.0,0.0,0.0,0.0,0.0,0.0,0.0,0.0,0.0,0.0,0.0,0.0,0.0,0.0,0.0,0.0,-1.2552,-1.2625,-1.2625,-1.2763,-1.2771,-1.2629,-1.2625,-1.2698,-1.277,-1.277,-1.277,-1.277,-1.277,-1.277,-1.277,-1.277,-1.277,-1.277,-1.277,-1.277,-1.2782,0.0,0.0,0.0,0.0,0.0,0.0,0.0,0.0,0.0,0.0,0.0,0.0,0.0,0.0,0.0,-1.4524,-1.3535,-1.2617,-1.2685,-1.2798,-1.2951,-1.2829,-1.2659,0.0,0.0,0.0,0.0,0.0,0.0,0.0,0.0,0.0,0.0,0.0,0.0,0.0,0.0,0.0,0.0,0.0,0.0,-1.0721,-1.0721,-1.0721,-1.0721,-1.0721,-1.0721,-1.0721,-1.0721,-1.0721,-1.0721,-1.0721,-1.0721,-1.0721,-1.0721,-1.0755,-1.0772,-1.0772,-1.0772,-1.0803,-1.0981,-1.094,-1.1059,-1.1202,-1.1177,-1.1197,-1.1274,-1.1285,-1.1245,-1.1449,-1.2886,-1.3884,-1.4707,-1.6553,-1.8202,-1.9522,0.0,0.0,0.0,0.0,0.0,0.0,0.0,0.0,0.0,0.0,0.0,0.0,0.0,0.0,0.0,0.0,0.0,0.0,0.0,-1.2808,-1.282,-1.282,-1.2766,-1.2832,-1.282,-1.282,-1.2758,-1.277,-1.277,-1.277,-1.277,-1.277,-1.277,-1.277,-1.277,-1.277,-1.277,-1.277,-1.277,-1.2774,-1.2848,0.0,0.0,0.0,0.0,0.0,0.0,0.0,0.0,0.0,0.0,0.0,0.0,0.0,-1.4955,-1.4524,-1.4093,-1.3531,-1.2545,-1.2155,-1.2037,-1.21,-1.2307,0.0,-1.1905,-1.1721,0.0,0.0,0.0,0.0,0.0,0.0,0.0,0.0,0.0,0.0,0.0,0.0,0.0,0.0,-1.0721,-1.0721,-1.0721,-1.0721,-1.0721,-1.0721,-1.0721,-1.0721,-1.0721,-1.0721,-1.0721,-1.0721,-1.0721,-1.0721,-1.0721,-1.0793,-1.0863,-1.0863,-1.0863,-1.1009,-1.1155,-1.118,-1.1161,-1.1174,-1.1213,-1.1289,-1.1367,-1.1374,-1.1452,-1.1736,-1.3282,-1.5534,-1.7863,-1.6651,-1.7147,-1.8497,0.0,0.0,0.0,0.0,0.0,0.0,0.0,0.0,0.0,0.0,0.0,0.0,0.0,0.0,0.0,0.0,0.0,0.0,0.0,-1.2704,-1.2704,-1.2507,-1.2704,-1.277,-1.277,-1.277,-1.277,-1.277,-1.277,-1.277,-1.277,-1.277,-1.277,-1.277,-1.277,-1.277,-1.277,-1.277,-1.2704,-1.2507,-1.2507,-1.2516,0.0,0.0,0.0,0.0,0.0,0.0,0.0,0.0,-1.5287,-1.6413,-1.7203,-1.7489,-1.7203,-1.5858,-1.5358,-1.477,-1.2634,-1.2696,-1.3079,-1.1986,-1.1805,0.0,0.0,-1.1158,-1.1156,-1.1358,0.0,0.0,0.0,0.0,0.0,0.0,0.0,0.0,0.0,0.0,0.0,-1.0721,-1.0721,-1.0721,-1.0721,-1.0721,-1.0721,-1.0721,-1.0721,-1.0721,-1.0721,-1.0721,-1.0721,-1.0721,-1.0721,-1.0765,-1.0793,-1.0853,-1.0971,-1.1223,-1.1128,-1.1162,-1.1307,-1.1345,-1.1342,-1.1436,-1.1439,-1.1472,-1.1544,-1.1544,-1.1548,-1.1688,-1.2255,-1.3741,-1.5509,-1.4937,-1.5712,-1.7127,0.0,0.0,0.0,0.0,0.0,0.0,0.0,0.0,0.0,0.0,0.0,0.0,0.0,0.0,0.0,0.0,0.0,0.0,-1.2309,-1.2441,-1.2441,-1.2309,-1.2507,-1.2704,-1.277,-1.277,-1.277,-1.277,-1.277,-1.277,-1.277,-1.277,-1.277,-1.277,-1.277,-1.277,-1.2638,-1.2638,-1.2441,-1.2111,-1.2111,-1.2073,0.0,0.0,0.0,0.0,0.0,0.0,0.0,0.0,-1.4512,-1.6202,-1.7414,-1.8336,-1.867,-1.7177,-1.6382,-1.5504,-1.3099,-1.2874,-1.3053,0.0,0.0,0.0,-1.0944,-1.0795,-1.0787,0.0,0.0,0.0,0.0,0.0,0.0,0.0,0.0,0.0,0.0,0.0,-1.0721,-1.0721,-1.0721,-1.0721,-1.0721,-1.0721,-1.0721,-1.0721,-1.0721,-1.0721,-1.0721,-1.0721,-1.0721,-1.0721,-1.0721,-1.0729,-1.088,-1.0992,-1.1141,-1.1392,-1.1335,-1.1362,-1.1463,-1.1463,-1.1521,-1.1619,-1.1619,-1.1619,-1.1619,-1.1619,-1.1619,-1.1619,-1.1619,-1.2538,-1.3812,-1.3317,-1.4089,-1.5571,0.0,0.0,0.0,0.0,0.0,0.0,0.0,0.0,0.0,0.0,0.0,0.0,0.0,0.0,0.0,0.0,0.0,0.0,-1.2309,-1.1978,-1.1978,-1.2309,-1.2309,-1.2441,-1.277,-1.277,-1.277,-1.277,-1.277,-1.277,-1.277,-1.277,-1.277,-1.277,-1.277,-1.2638,-1.2309,-1.2309,-1.2111,-1.178,-1.178,-1.1873,-1.1959,0.0,0.0,0.0,0.0,0.0,0.0,0.0,-1.4369,-1.4946,-1.8045,-1.8971,-1.8863,-1.8179,-1.7003,-1.551,-1.3736,-1.2414,0.0,0.0,0.0,0.0,0.0,-1.0721,-1.0721,0.0,0.0,0.0,0.0,0.0,0.0,0.0,0.0,0.0,0.0,0.0,-1.0721,-1.0721,-1.0721,-1.0721,-1.0721,-1.0721,-1.0721,-1.0721,-1.0721,-1.0721,-1.0721,-1.0721,-1.0721,-1.0721,-1.0721,-1.0795,-1.088,-1.1094,-1.1243,-1.1396,-1.1548,-1.1619,-1.1619,-1.1619,-1.1619,-1.1619,-1.1619,-1.1619,-1.1619,-1.1619,-1.1619,-1.1619,-1.1619,-1.2538,-1.367,-1.2183,-1.2538,-1.3884,0.0,0.0,0.0,0.0,0.0,0.0,0.0,0.0,0.0,0.0,0.0,0.0,0.0,0.0,0.0,0.0,0.0,0.0,-1.1512,-1.1714,-1.1714,-1.1512,-1.178,-1.1978,-1.2111,-1.2309,-1.2572,-1.277,-1.277,-1.277,-1.277,-1.277,-1.277,-1.277,-1.2572,-1.2375,-1.2309,-1.2045,-1.1714,-1.138,-1.138,-1.1276,-1.1066,0.0,0.0,0.0,0.0,0.0,0.0,0.0,0.0,0.0,-1.6705,-1.7097,-1.6753,-1.6614,-1.6142,-1.516,-1.2403,-1.212,0.0,0.0,0.0,0.0,0.0,0.0,0.0,0.0,0.0,0.0,0.0,0.0,0.0,0.0,-1.0721,-1.0721,-1.0721,-1.0721,-1.0721,-1.0721,-1.0721,-1.0721,-1.0721,-1.0721,-1.0721,-1.0721,-1.0721,-1.0721,-1.0721,-1.0721,-1.0721,-1.0721,-1.0756,-1.0951,-1.1097,-1.125,-1.1399,-1.1552,-1.1599,-1.1619,-1.1619,-1.1619,-1.1619,-1.1619,-1.1619,-1.1619,-1.1619,-1.1619,-1.1619,-1.1619,-1.1619,-1.1903,-1.2259,-1.176,-1.1903,-1.247,0.0,0.0,0.0,0.0,0.0,0.0,0.0,0.0,0.0,0.0,-1.085,0.0,0.0,0.0,0.0,0.0,0.0,0.0,0.0,-1.1317,-1.1317,-1.1181,-1.1446,-1.1714,-1.1978,-1.2045,-1.2309,-1.277,-1.277,-1.277,-1.277,-1.277,-1.2704,-1.2572,-1.2375,-1.2111,-1.1843,-1.1648,-1.1317,-1.0982,-1.0982,-1.085,-1.0738,0.0,0.0,0.0,0.0,0.0,0.0,0.0,0.0,0.0,-1.5198,-1.5654,-1.5874,-1.5704,-1.5227,-1.4275,-1.2227,0.0,0.0,0.0,0.0,0.0,0.0,0.0,0.0,0.0,0.0,0.0,0.0,0.0,0.0,-1.0721,-1.0721,-1.0721,-1.0721,-1.0721,-1.0721,-1.0721,-1.0721,-1.0721,-1.0721,-1.0721,-1.0721,-1.0721,-1.0721,-1.0721,-1.0721,-1.0721,-1.0721,-1.0721,-1.0803,-1.1019,-1.1231,-1.1314,-1.1467,-1.1619,-1.1619,-1.1619,-1.1619,-1.1619,-1.1619,-1.1619,-1.1619,-1.1619,-1.1619,-1.1619,-1.1619,-1.1619,-1.1619,-1.1619,-1.1619,-1.1619,-1.1619,-1.1763,0.0,0.0,0.0,0.0,0.0,0.0,0.0,0.0,0.0,0.0,-1.0721,-1.0721,0.0,0.0,0.0,0.0,0.0,0.0,0.0,-1.0853,-1.0853,-1.1115,-1.1181,-1.1446,-1.2177,-1.1912,-1.2045,-1.2704,-1.277,-1.277,-1.277,-1.277,-1.2572,-1.2243,-1.2243,-1.1846,-1.1181,-1.1185,-1.0982,-1.0721,-1.0721,-1.0721,-1.0734,-1.0806,0.0,0.0,0.0,0.0,0.0,0.0,0.0,0.0,-1.3636,-1.4475,-1.5431,-1.5189,-1.4067,-1.2889,0.0,0.0,0.0,0.0,0.0,0.0,0.0,0.0,0.0,0.0,0.0,0.0,0.0,0.0,0.0,-1.0721,-1.0721,-1.0721,-1.0721,-1.0721,-1.0721,-1.0721,-1.0721,-1.0721,-1.0721,-1.0721,-1.0721,-1.0721,-1.0721,-1.0721,-1.0721,-1.0721,-1.0727,-1.0741,-1.0823,-1.1036,-1.1251,-1.1335,-1.1484,-1.1619,-1.1619,-1.1619,-1.1619,-1.1619,-1.1619,-1.1619,-1.1619,-1.1619,-1.1619,-1.1619,-1.1619,-1.1619,-1.1619,-1.1619,-1.1619,-1.1619,-1.1619,-1.1619,0.0,0.0,0.0,0.0,0.0,0.0,0.0,0.0,0.0,0.0,0.0,0.0,0.0,0.0,0.0,0.0,0.0,0.0,0.0,-1.0721,-1.0721,-1.0787,-1.0787,-1.0982,-1.1446,-1.138,-1.1582,-1.2045,-1.2309,-1.2441,-1.2441,-1.2441,-1.2243,-1.1912,-1.1578,-1.138,-1.1181,-1.092,-1.0787,-1.0721,-1.0721,-1.0721,-1.0724,-1.0758,-1.0843,0.0,0.0,0.0,0.0,0.0,0.0,0.0,-1.3145,-1.2768,-1.2176,-1.3302,-1.2516,-1.122,0.0,0.0,0.0,0.0,0.0,0.0,0.0,0.0,0.0,0.0,0.0,0.0,0.0,0.0,0.0,-1.0721,-1.0721,-1.0721,-1.0721,-1.0721,-1.0721,-1.0721,-1.0721,-1.0721,-1.0721,-1.0721,-1.0721,-1.0721,-1.0721,-1.0721,-1.0721,-1.0721,-1.0775,-1.083,-1.104,-1.1189,-1.1341,-1.1494,-1.1586,-1.1619,-1.1619,-1.1619,-1.1619,-1.1619,-1.1619,-1.1619,-1.1619,-1.1619,-1.1619,-1.1619,-1.1619,-1.1619,-1.1619,-1.1619,-1.1619,-1.1619,-1.1619,-1.1619,0.0,0.0,0.0,0.0,0.0,0.0,0.0,0.0,0.0,0.0,0.0,0.0,0.0,0.0,0.0,0.0,0.0,0.0,0.0,0.0,-1.0721,-1.0721,-1.0721,-1.0853,-1.1181,-1.1049,-1.1251,-1.178,-1.178,-1.1846,-1.2045,-1.2243,-1.2045,-1.1516,-1.1314,-1.1115,-1.092,-1.0787,-1.0721,-1.0721,-1.0721,-1.0721,-1.0721,-1.0721,-1.0768,-1.0772,-1.0772,0.0,0.0,0.0,0.0,0.0,0.0,0.0,-1.1066,-1.1788,-1.1374,-1.0721,0.0,0.0,0.0,0.0,0.0,0.0,0.0,0.0,0.0,0.0,0.0,0.0,0.0,0.0,-1.0721,-1.0721,-1.0721,-1.0721,-1.0721,-1.0721,-1.0721,-1.0721,-1.0721,-1.0721,-1.0721,-1.0721,-1.0721,-1.0721,-1.0721,-1.0721,-1.0721,-1.0721,-1.0792,-1.0877,-1.1087,-1.1236,-1.1389,-1.1541,-1.1619,-1.1619,-1.1619,-1.1619,-1.1619,-1.1619,-1.1619,-1.1619,-1.1619,-1.1619,-1.1619,-1.1619,-1.1619,-1.1619,-1.1619,-1.1619,-1.1619,-1.1619,-1.1619,-1.1619,0.0,0.0,0.0,0.0,0.0,0.0,0.0,0.0,0.0,0.0,0.0,0.0,0.0,0.0,0.0,0.0,0.0,0.0,0.0,0.0,0.0,-1.0721,-1.0721,-1.085,-1.1115,-1.0853,-1.0986,-1.1582,-1.1317,-1.1317,-1.1648,-1.1978,-1.178,-1.1115,-1.1115,-1.0986,-1.0721,-1.0721,-1.0721,-1.0721,-1.0721,-1.0721,-1.0721,-1.0721,-1.0721,-1.0721,-1.0721,-1.0802,-1.0843,-1.0843,0.0,0.0,0.0,0.0,-1.0816,-1.0758,-1.0721,-1.0721,0.0,0.0,0.0,0.0,0.0,0.0,0.0,0.0,0.0,0.0,0.0,0.0,0.0,0.0,-1.0721,-1.0721,-1.0721,-1.0721,-1.0721,-1.0721,-1.0721,-1.0721,-1.0721,-1.0721,-1.0721,-1.0721,-1.0721,-1.0721,-1.0721,-1.0721,-1.0721,-1.0744,-1.0829,-1.0982,-1.1128,-1.1274,-1.143,-1.1555,-1.1619,-1.1619,-1.1619,-1.1619,-1.1619,-1.1619,-1.1619,-1.1619,-1.1619,-1.1619,-1.1619,-1.1619,-1.1619,-1.1619,-1.1619,-1.1619,-1.1619,-1.1619,-1.1619,-1.1619,0.0,0.0,0.0,0.0,0.0,0.0,0.0,0.0,0.0,0.0,0.0,0.0,0.0,0.0,0.0,0.0,0.0,0.0,0.0,0.0,0.0,-1.0721,-1.0721,-1.0721,-1.0787,-1.0721,-1.0721,-1.0853,-1.1049,-1.1052,-1.0853,-1.1181,-1.1115,-1.0787,-1.0787,-1.0721,-1.0721,-1.0721,-1.0721,-1.0721,-1.0721,-1.0721,-1.0721,-1.0721,-1.0721,-1.0721,-1.0721,-1.0731,-1.0751,-1.0751,-1.0761,0.0,0.0,0.0,-1.0748,-1.0724,-1.0721,0.0,0.0,0.0,0.0,0.0,0.0,0.0,0.0,0.0,0.0,0.0,0.0,0.0,0.0,0.0,-1.0721,-1.0721,-1.0721,-1.0721,-1.0721,-1.0721,-1.0721,-1.0721,-1.0721,-1.0721,-1.0721,-1.0721,-1.0721,-1.0721,-1.0721,-1.0721,-1.0721,-1.0779,-1.0985,-1.1128,-1.128,-1.1433,-1.1589,-1.1609,-1.1619,-1.1619,-1.1619,-1.1619,-1.1619,-1.1619,-1.1619,-1.1619,-1.1619,-1.1619,-1.1619,-1.1619,-1.1619,-1.1619,-1.1619,-1.1619,-1.1619,-1.1619,-1.1619,-1.1619,0.0,0.0,0.0,0.0,0.0,0.0,0.0,0.0,0.0,0.0,0.0,0.0,0.0,0.0,0.0,0.0,0.0,0.0,0.0,0.0,0.0,-1.0721,-1.0721,-1.0721,-1.0721,-1.0721,-1.0721,-1.0721,-1.0853,-1.0853,-1.0721,-1.0853,-1.0853,-1.0721,-1.0721,-1.0721,-1.0721,-1.0721,-1.0721,-1.0721,-1.0721,-1.0721,-1.0721,-1.0721,-1.0721,-1.0721,-1.0721,-1.0721,-1.0721,-1.0721,-1.0721,-1.0721,-1.0721,0.0,0.0,0.0,0.0,0.0,0.0,0.0,0.0,0.0,0.0,0.0,0.0,0.0,0.0,0.0,0.0,0.0,0.0,-1.0721,-1.0721,-1.0721,-1.0721,-1.0721,-1.0721,-1.0721,-1.0721,-1.0721,-1.0721,-1.0721,-1.0721,-1.0721,-1.0721,-1.0721,-1.0721,-1.0721,-1.0721,-1.0799,-1.1016,-1.1158,-1.1311,-1.1463,-1.1616,-1.1619,-1.1619,-1.1619,-1.1619,-1.1619,-1.1619,-1.1619,-1.1619,-1.1619,-1.1619,-1.1619,-1.1619,-1.1619,-1.1619,-1.1619,-1.1619,-1.1619,-1.1619,-1.1619,-1.1619,-1.1619,0.0,0.0,0.0,0.0,0.0,0.0,0.0,0.0,0.0,0.0,0.0,0.0,0.0,0.0,0.0,0.0,0.0,0.0,0.0,0.0,0.0,-1.0721,-1.0721,-1.0721,-1.0721,-1.0721,-1.0721,-1.0721,-1.0721,-1.0721,-1.0721,-1.0721,-1.0721,-1.0721,-1.0721,-1.0721,-1.0721,-1.0721,-1.0721,-1.0721,-1.0721,-1.0721,-1.0721,-1.0721,-1.0721,-1.0721,-1.0721,-1.0721,-1.0721,-1.0721,-1.0721,-1.0721,-1.0721,-1.0721,0.0,0.0,0.0,0.0,0.0,0.0,0.0,0.0,0.0,0.0,0.0,0.0,0.0,0.0,0.0,0.0,0.0,-1.0721,-1.0721,-1.0721,-1.0721,-1.0721,-1.0721,-1.0721,-1.0721,-1.0721,-1.0721,-1.0721,-1.0721,-1.0721,-1.0721,-1.0721,-1.0721,-1.0721,-1.0721,-1.09,-1.1053,-1.1227,-1.1348,-1.1504,-1.1616,-1.1619,-1.1619,-1.1619,-1.1619,-1.1619,-1.1619,-1.1619,-1.1619,-1.1619,-1.1619,-1.1619,-1.1619,-1.1619,-1.1619,-1.1619,-1.1619,-1.1619,-1.1619,-1.1619,-1.1619,-1.1619,0.0,0.0,0.0,0.0,0.0,0.0,0.0,0.0,0.0,0.0,0.0,0.0,-1.0721,-1.0721,-1.0721,-1.0721,-1.0721,-1.0721,-1.0721,-1.0721,-1.0721,-1.0721,-1.0721,0.0,-1.0721,-1.0721,-1.0721,-1.0721,-1.0721,-1.0721,-1.0721,-1.0721,-1.0721,-1.0721,-1.0721,-1.0721,-1.0721,-1.0721,-1.0721,-1.0721,-1.0721,-1.0721,-1.0721,-1.0721,-1.0721,-1.0721,-1.0721,-1.0721,-1.0721,-1.0721,-1.0721,-1.0721,0.0,0.0,0.0,0.0,0.0,0.0,0.0,0.0,0.0,0.0,0.0,0.0,0.0,0.0,0.0,0.0,0.0,0.0,0.0,-1.0721,-1.0721,-1.0721,-1.0721,-1.0721,-1.0721,-1.0721,-1.0721,-1.0721,-1.0721,-1.0721,-1.0721,-1.0721,-1.0721,-1.0721,-1.0721,-1.0721,-1.0721,-1.0995,-1.1155,-1.1231,-1.1453,-1.1609,-1.1619,-1.1619,-1.1619,-1.1619,-1.1619,-1.1619,-1.1619,-1.1619,-1.1619,-1.1619,-1.1619,-1.1619,-1.1619,-1.1619,-1.1619,-1.1619,-1.1619,-1.1619,-1.1619,-1.1619,-1.1619,-1.1619,0.0,0.0,0.0,0.0,0.0,0.0,0.0,0.0,0.0,0.0,0.0,0.0,0.0,-1.0721,-1.0721,-1.0721,-1.0721,-1.0721,-1.0721,-1.0721,-1.0721,-1.0721,-1.0721,-1.0721,-1.0721,-1.0721,-1.0721,-1.0721,-1.0721,-1.0721,-1.0721,-1.0721,-1.0721,-1.0721,-1.0721,-1.0721,-1.0721,-1.0721,0.0,0.0,0.0,0.0,0.0,0.0,0.0,0.0,0.0,0.0,0.0,0.0,0.0,0.0,0.0,0.0,0.0,0.0,0.0,0.0,0.0,0.0,0.0,0.0,0.0,0.0,0.0,0.0,0.0,0.0,0.0,0.0,0.0,-1.0721,-1.0721,-1.0721,-1.0721,-1.0721,-1.0721,-1.0721,-1.0721,-1.0721,-1.0721,-1.0721,-1.0721,-1.0721,-1.0721,-1.0721,-1.0721,-1.0721,-1.0721,-1.1002,-1.1231,-1.1231,-1.146,-1.1619,-1.1619,-1.1619,-1.1619,-1.1619,-1.1619,-1.1619,-1.1619,-1.1619,-1.1619,-1.1619,-1.1619,-1.1619,-1.1619,-1.1619,-1.1619,-1.1619,-1.1619,-1.1619,-1.1619,-1.1619,-1.1619,-1.1619,0.0,0.0,0.0,0.0,0.0,0.0,0.0,0.0,0.0,-0.7772,0.0,0.0,0.0,0.0,-1.0721,-1.0721,-1.0721,-1.0721,-1.0721,-1.0721,-1.0721,-1.0721,-1.0721,-1.0721,-1.0721,-1.0622,-1.0622,-1.0721,-1.0622,-1.0622,-1.0721,-1.0721,-1.0721,-1.0721,-1.0721,-1.0721,0.0,0.0,0.0,-1.0721,0.0,0.0,-1.0721,0.0,0.0,0.0,0.0,0.0,0.0,0.0,0.0,0.0,0.0,0.0,0.0,0.0,0.0,0.0,0.0,0.0,0.0,0.0,0.0,0.0,0.0,0.0,0.0,0.0,0.0,0.0,0.0,-1.0721,-1.0721,-1.0721,-1.0721,-1.0721,-1.0721,-1.0721,-1.0721,-1.0721,-1.0721,-1.0721,-1.0721,-1.0721,-1.0721,-1.0721,-1.0721,0.0,-1.0721,-1.0955,-1.1138,-1.1236,-1.1487,-1.1619,-1.1619,-1.1619,-1.1619,-1.1619,-1.1619,-1.1619,-1.1619,-1.1619,-1.1619,-1.1619,-1.1619,-1.1619,-1.1619,-1.1619,-1.1619,-1.1619,-1.1619,-1.1619,-1.1619,-1.1619,-1.1619,-1.1619,0.0,0.0,0.0,0.0,0.0,0.0,0.0,0.0,-0.4768,-0.6166,0.0,0.0,0.0,0.0,0.0,-1.0654,-1.0654,-1.0721,-1.0721,-1.0721,-1.0721,-1.0721,-1.0721,-1.0721,-1.0721,-1.0439,-1.0432,-1.0721,-1.0432,-1.0439,-1.0721,-1.0721,-1.0721,-1.0721,-1.0721,-1.0654,-1.0654,0.0,-1.0721,-1.0721,0.0,-1.0721,-1.0721,0.0,0.0,0.0,-1.0721,-1.0721,0.0,-1.0721,0.0,0.0,0.0,0.0,0.0,0.0,0.0,0.0,0.0,0.0,0.0,0.0,0.0,0.0,0.0,0.0,0.0,0.0,0.0,0.0,0.0,-1.0721,-1.0721,-1.0721,-1.0721,-1.0721,-1.0721,-1.0721,-1.0721,-1.0721,-1.0721,-1.0721,-1.0721,-1.0721,-1.0721,-1.0721,-1.0721,-1.0721,-1.0721,-1.0803,-1.1087,-1.1382,-1.1541,-1.1619,-1.1619,-1.1619,-1.1619,-1.1619,-1.1619,-1.1619,-1.1619,-1.1619,-1.1619,-1.1619,-1.1619,-1.1619,-1.1619,-1.1619,-1.1619,-1.1619,-1.1619,-1.1619,-1.1619,-1.1619,-1.1619,-1.1619,0.0,0.0,0.0,0.0,0.0,0.0,-0.2221,-0.3226,-0.4164,0.0,0.0,0.0,-0.7034,-0.8304,-0.9175,-0.9175,-1.0117,-1.0721,-1.0721,-1.0721,-1.0721,-1.0721,-1.0721,-1.0721,-1.0721,-1.0639,-1.0639,-1.0721,-1.0639,-1.0639,-1.0721,-1.0721,-1.0721,-1.0721,-1.0721,-1.0114,-0.9244,-1.025,0.0,-1.0721,-1.0721,-1.0721,0.0,0.0,0.0,0.0,0.0,-1.0721,-1.0721,0.0,-1.0721,-1.0721,0.0,0.0,0.0,0.0,0.0,0.0,-1.0721,0.0,0.0,0.0,0.0,0.0,0.0,0.0,0.0,0.0,0.0,0.0,0.0,-1.0721,-1.0721,-1.0721,-1.0721,-1.0721,-1.0721,-1.0721,-1.0721,-1.0721,-1.0721,-1.0721,-1.0721,-1.0721,-1.0721,0.0,-1.0721,-1.0721,-1.0721,-1.0965,-1.1192,-1.1385,-1.1541,-1.1619,-1.1619,-1.1619,-1.1619,-1.1619,-1.1619,-1.1619,-1.1619,-1.1619,-1.1619,-1.1619,-1.1619,-1.1619,-1.1619,-1.1619,-1.1619,-1.1619,-1.1619,-1.1619,-1.1619,-1.1619,-1.1619,-1.1619,0.0,0.0,0.0,0.0,0.0,-0.0942,-0.1346,-0.222,-0.2958,0.0,0.0,0.0,-0.6366,-0.7167,-0.7905,-0.8573,-0.8773,-0.9175,-0.9782,-0.9244,-0.8909,-0.8909,-0.951,-0.9845,-0.9845,-1.0267,-1.0599,-1.0721,-1.0599,-1.0599,-1.0721,-1.0117,-1.0114,-1.0651,-0.9443,0.0,0.0,0.0,0.0,0.0,-0.9175,0.0,0.0,-0.9111,-0.931,0.0,0.0,0.0,-1.0721,-1.0721,-1.0721,0.0,0.0,0.0,0.0,0.0,0.0,0.0,0.0,0.0,0.0,0.0,0.0,0.0,-1.0721,-1.0721,-1.0721,0.0,-1.0721,0.0,0.0,-1.0721,-1.0721,-1.0721,-1.0721,-1.0721,-1.0721,-1.0721,-1.0721,-1.0721,-1.0721,-1.0721,-1.0721,-1.0721,-1.0721,-1.0721,-1.0721,-1.0748,-1.0812,-1.1036,-1.1233,-1.1385,-1.1541,-1.1619,-1.1619,-1.1619,-1.1619,-1.1619,-1.1619,-1.1619,-1.1619,-1.1619,-1.1619,-1.1619,-1.1619,-1.1619,-1.1619,-1.1619,-1.1619,-1.1619,-1.1619,-1.1619,-1.1619,-1.1619,-1.1619,-1.1619,0.0,0.0,0.0,-0.0404,-0.0471,-0.0606,-0.0942,-0.1346,-0.1548,0.0,-0.3026,-0.4567,-0.5767,-0.6099,-0.6702,-0.8041,-0.7034,-0.6967,-0.8238,-0.71,-0.6433,-0.6433,-0.7636,-0.844,-0.8573,-0.9414,-1.0065,-1.0452,-1.0065,-1.0003,-1.0183,-0.8909,-0.9042,-1.0114,0.0,0.0,0.0,0.0,0.0,-0.8038,-0.6833,-0.7167,0.0,0.0,-0.7236,-0.8371,-0.8371,-0.9244,-1.0518,-1.0654,-1.0721,0.0,0.0,0.0,0.0,0.0,-1.0721,0.0,0.0,0.0,0.0,0.0,0.0,0.0,-1.0721,-1.0721,-1.0721,-1.0721,-1.0721,0.0,0.0,0.0,-1.0721,-1.0721,-1.0721,-1.0721,-1.0721,-1.0721,-1.0721,-1.0721,-1.0721,-1.0721,-1.0721,-1.0721,-1.0721,-1.0721,-1.0734,-1.0739,-1.0873,-1.1101,-1.125,-1.1389,-1.1541,-1.1619,-1.1619,-1.1619,-1.1619,-1.1619,-1.1619,-1.1619,-1.1619,-1.1619,-1.1619,-1.1619,-1.1619,-1.1619,-1.1619,-1.1619,-1.1619,-1.1619,-1.1619,-1.1619,-1.1619,-1.1619,-1.1619,-1.1619,0.0,0.0,0.0,-0.0067,-0.0067,-0.0202,-0.0538,-0.0942,-0.1279,-0.1548,-0.2221,-0.2692,-0.2959,-0.4031,-0.4835,-0.5103,-0.59,-0.65,-0.6833,-0.6566,-0.6433,-0.6433,-0.67,-0.7369,-0.8573,-0.7663,-0.7793,-0.9042,-0.7793,-0.7197,-0.7234,-0.6967,-0.6967,-0.7234,-0.6633,0.0,0.0,0.0,0.0,-0.5235,-0.6032,0.0,-0.6767,-0.65,-0.6564,-0.6833,-0.6833,-0.7769,-0.9175,-1.0319,-1.0721,-1.0721,0.0,0.0,0.0,-1.0721,0.0,0.0,0.0,0.0,0.0,0.0,0.0,0.0,-1.0721,-1.0721,-1.0721,0.0,-1.0721,0.0,0.0,0.0,-1.0721,-1.0721,-1.0721,-1.0721,-1.0721,-1.0721,-1.0721,-1.0721,-1.0721,-1.0721,-1.0721,-1.0721,-1.0721,-1.0721,-1.0766,-1.085,-1.088,-1.1202,-1.1358,-1.1389,-1.1541,-1.1619,-1.1619,-1.1619,-1.1619,-1.1619,-1.1619,-1.1619,-1.1619,-1.1619,-1.1619,-1.1619,-1.1619,-1.1619,-1.1619,-1.1619,-1.1619,-1.1619,-1.1619,-1.1619,-1.1619,-1.1619,-1.1619,-1.1619,0.0,0.0,0.0,0.0,0.0,-0.0067,-0.0202,-0.0538,-0.0875,-0.101,-0.1548,-0.1953,-0.2155,-0.2826,-0.3564,-0.4234,-0.4298,-0.4632,-0.53,-0.4698,-0.4297,-0.4297,-0.4966,-0.5702,-0.6437,-0.6435,-0.6767,-0.7503,-0.6767,-0.6433,-0.6364,-0.57,-0.57,-0.6366,-0.4964,-0.4298,0.0,0.0,-0.3228,-0.3295,-0.403,0.0,-0.53,-0.4564,-0.4766,-0.5367,-0.5367,-0.6769,-0.8706,-0.9443,-1.0117,0.0,0.0,-1.0721,-1.0721,0.0,-1.0721,-1.0721,0.0,0.0,0.0,-1.0721,0.0,0.0,0.0,-1.0721,-1.0721,-1.0721,-1.0721,0.0,0.0,0.0,0.0,-1.0721,-1.0721,-1.0721,-1.0721,-1.0721,-1.0721,-1.0721,-1.0721,-1.0721,-1.0721,-1.0721,-1.0751,-1.0762,-1.0836,-1.0944,-1.1162,-1.1311,-1.1426,-1.1501,-1.1579,-1.1619,-1.1619,-1.1619,-1.1619,-1.1619,-1.1619,-1.1619,-1.1619,-1.1619,-1.1619,-1.1619,-1.1619,-1.1619,-1.1619,-1.1619,-1.1619,-1.1619,-1.1619,-1.1619,-1.1619,-1.1619,-1.1619,-1.1619,0.0,0.0,0.0,0.0,0.0,0.0,0.0,-0.0269,-0.0538,-0.0673,-0.1144,-0.1683,-0.202,-0.202,-0.2422,-0.3563,-0.2624,-0.249,-0.3697,-0.2691,-0.2087,-0.2222,-0.3295,-0.4033,-0.43,-0.5166,-0.5698,-0.5967,-0.5698,-0.5566,-0.5564,-0.4433,-0.45,-0.5499,-0.3227,-0.2826,0.0,0.0,0.0,-0.2222,0.0,-0.2893,-0.3764,-0.2625,-0.2893,-0.3899,-0.4234,-0.577,-0.7841,-0.844,-0.9377,-1.0316,-1.0588,-1.0721,0.0,0.0,0.0,0.0,0.0,0.0,0.0,0.0,0.0,-1.0721,0.0,0.0,0.0,0.0,0.0,0.0,0.0,0.0,0.0,0.0,0.0,0.0,0.0,-1.0768,0.0,-1.0727,-1.0721,-1.0721,-1.0721,-1.0721,-1.0795,-1.0907,-1.0989,-1.1107,-1.1375,-1.1419,-1.1491,-1.1616,-1.1619,-1.1619,-1.1619,-1.1619,-1.1619,-1.1619,-1.1619,-1.1619,-1.1619,-1.1619,-1.1619,-1.1619,-1.1619,-1.1619,-1.1619,-1.1619,-1.1619,-1.1619,-1.1619,-1.1619,-1.1619,-1.1619,-1.1619,-1.1619,0.0,0.0,0.0,0.0,0.0,0.0,0.0,-0.0269,-0.074,-0.1414,-0.1279,-0.1279,-0.1616,-0.1414,0.0,-0.1481,-0.1346,-0.1413,-0.1884,-0.175,-0.1818,-0.2155,-0.2357,-0.3027,-0.43,-0.3228,-0.3294,-0.4568,-0.3294,-0.2691,-0.2691,-0.249,-0.249,-0.2691,-0.2356,0.0,0.0,0.0,-0.2222,0.0,-0.2222,-0.2289,0.0,-0.2289,-0.2289,-0.2625,-0.3831,-0.4501,-0.517,0.0,-0.8706,-0.9042,0.0,-1.0721,-1.0721,-1.0721,0.0,0.0,0.0,0.0,0.0,0.0,-1.0721,0.0,0.0,0.0,-1.0721,-1.0721,0.0,0.0,0.0,0.0,0.0,0.0,0.0,0.0,-1.0741,-1.0948,-1.1012,-1.0751,-1.0721,-1.0721,-1.0721,-1.0721,-1.0836,-1.1118,-1.1138,-1.1212,-1.1382,-1.1518,-1.1603,-1.1619,-1.1619,-1.1619,-1.1619,-1.1619,-1.1619,-1.1619,-1.1619,-1.1619,-1.1619,-1.1619,-1.1619,-1.1619,-1.1619,-1.1619,-1.1619,-1.1619,-1.1619,-1.1619,-1.1619,-1.1619,-1.1619,-1.1619,-1.1619,-1.1619,0.0336,0.0,0.0,0.0,0.0,0.0,0.0,-0.0135,-0.0404,-0.0875,-0.101,-0.1212,0.0,0.0,0.0,0.0,0.0,-0.1481,0.0,0.0,-0.175,-0.2155,-0.2222,-0.249,-0.3095,-0.249,-0.249,-0.3095,-0.249,-0.2222,-0.2222,-0.2222,-0.2222,-0.2222,-0.2222,0.0,-0.2222,0.0,-0.2222,0.0,0.0,0.0,0.0,-0.2222,-0.2222,-0.2289,-0.2893,-0.3631,-0.4501,0.0,-0.7238,0.0,0.0,0.0,0.0,0.0,0.0,0.0,0.0,0.0,0.0,0.0,0.0,0.0,-1.0721,0.0,-1.0721,0.0,0.0,0.0,0.0,0.0,0.0,0.0,-1.0989,0.0,0.0,0.0,-1.1118,0.0,0.0,0.0,-1.0975,-1.0975,-1.1067,-1.1277,-1.1294,-1.1362,-1.1514,-1.1586,-1.1619,-1.1619,-1.1619,-1.1619,-1.1619,-1.1619,-1.1619,-1.1619,-1.1619,-1.1619,-1.1619,-1.1619,-1.1619,-1.1619,-1.1619,-1.1619,-1.1619,-1.1619,-1.1619,-1.1619,-1.1619,-1.1619,-1.1619,-1.1619,-1.1619,-1.1619,0.1613,0.0,0.0,0.0,0.0,0.0,0.0606,0.0269,-0.0135,-0.0471,-0.074,0.0,-0.1414,-0.1616,0.0,0.0,-0.1212,-0.1212,0.0,0.0,-0.1481,0.0,0.0,0.0,0.0,-0.2155,-0.2222,-0.2222,-0.2222,-0.2222,-0.2222,-0.2222,-0.2222,-0.2222,0.0,-0.2222,-0.2222,0.0,-0.2222,-0.2222,-0.2222,-0.2222,-0.2222,-0.2222,-0.2222,-0.2222,-0.2222,-0.2826,-0.3764,-0.4167,-0.5704,0.0,-0.6633,-0.7836,0.0,0.0,0.0,0.0,-1.0114,0.0,0.0,0.0,0.0,0.0,0.0,0.0,0.0,0.0,0.0,0.0,0.0,0.0,0.0,-1.1094,0.0,-1.1209,0.0,0.0,0.0,0.0,0.0,0.0,0.0,-1.1189,-1.1243,-1.144,-1.1416,-1.1457,-1.1609,-1.1619,-1.1619,-1.1619,-1.1619,-1.1619,-1.1619,-1.1619,-1.1619,-1.1619,-1.1619,-1.1619,-1.1619,-1.1619,-1.1619,-1.1619,-1.1619,-1.1619,-1.1619,-1.1619,-1.1619,-1.1619,-1.1619,-1.1619,-1.1619,-1.1619,-1.1619,-1.1619,0.4159,0.4159,0.0,0.0,0.0,0.0,0.0,0.0,0.0,0.0,0.0,0.0,0.0,0.0,0.0,0.0,0.0,-0.0202,-0.0538,0.0,-0.074,0.0,0.0,-0.1616,0.0,0.0,-0.2222,-0.2222,-0.2222,-0.2222,-0.2222,-0.2222,-0.2222,-0.2222,-0.2222,-0.2222,-0.2222,-0.2222,-0.2222,-0.2222,-0.2222,-0.2222,-0.2222,0.0,-0.2222,-0.2222,-0.2222,0.0,0.0,-0.3831,-0.4367,-0.4701,-0.5965,0.0,0.0,0.0,0.0,0.0,0.0,0.0,0.0,-1.0721,0.0,0.0,0.0,0.0,-1.0761,0.0,0.0,0.0,0.0,0.0,-1.1114,-1.0911,-1.1196,0.0,0.0,0.0,0.0,0.0,0.0,0.0,0.0,-1.125,-1.1287,-1.1589,-1.1474,-1.1457,-1.1609,-1.1619,-1.1619,-1.1619,-1.1619,-1.1619,-1.1619,-1.1619,-1.1619,-1.1619,-1.1619,-1.1619,-1.1619,-1.1619,-1.1619,-1.1619,-1.1619,-1.1619,-1.1619,-1.1619,-1.1619,-1.1619,-1.1619,-1.1619,-1.1619,-1.1619,-1.1619,-1.1619,0.0,0.0,0.0,0.0,0.0,0.0,0.0,0.2351,0.0,0.0,0.0,0.0,0.0,-0.0808,-0.0808,0.0,0.0,-0.0404,-0.0471,-0.0471,0.0,0.0,0.0,-0.1346,0.0,0.0,0.0,0.0,-0.2222,-0.2222,-0.2222,-0.2222,-0.2222,-0.2222,0.0,-0.2222,0.0,0.0,0.0,0.0,0.0,-0.2222,-0.2222,0.0,-0.2222,-0.2222,-0.2222,-0.2222,-0.2289,-0.2759,-0.3497,-0.4233,-0.3763,-0.4899,-0.6233,-0.53,-0.6034,-0.7167,-0.7167,-0.7503,-0.8105,-0.9042,0.0,0.0,0.0,0.0,0.0,0.0,0.0,0.0,0.0,0.0,-1.1331,-1.1385,-1.1477,-1.1525,0.0,0.0,0.0,0.0,0.0,0.0,0.0,0.0,-1.1508,-1.1613,-1.1572,-1.1565,-1.1616,-1.1619,-1.1619,-1.1619,-1.1619,-1.1619,-1.1619,-1.1619,-1.1619,-1.1619,-1.1619,-1.1619,-1.1619,-1.1619,-1.1619,-1.1619,-1.1619,-1.1619,-1.1619,-1.1619,-1.1619,-1.1619,-1.1619,-1.1619,-1.1619,-1.1619,-1.1619,-1.1619,0.8587,0.0,0.0,0.0,0.0,0.0,0.0,0.0,0.0,0.0,0.1814,0.0,0.0336,0.0,-0.0269,0.0,-0.0404,-0.0337,-0.0337,-0.0337,0.0,-0.0673,-0.0808,0.0,0.0,0.0,0.0,0.0,0.0,-0.2222,-0.2222,-0.2222,-0.2222,-0.2222,0.0,-0.2222,-0.2222,0.0,-0.2222,0.0,0.0,-0.2222,0.0,0.0,-0.2222,-0.2222,-0.2222,-0.2222,-0.2222,-0.2222,-0.2826,-0.3362,-0.249,-0.3427,-0.4698,-0.3629,-0.4431,-0.5633,-0.5499,-0.5899,-0.6633,-0.7436,-0.7638,0.0,-0.9443,0.0,-0.9949,0.0,0.0,0.0,0.0,0.0,-1.1504,-1.1603,-1.1619,-1.1619,0.0,-1.1619,0.0,0.0,0.0,0.0,0.0,0.0,-1.1619,-1.1619,-1.1619,-1.1619,-1.1619,-1.1619,-1.1619,-1.1619,-1.1619,-1.1619,-1.1619,-1.1619,-1.1619,-1.1619,-1.1619,-1.1619,-1.1619,-1.1619,-1.1619,-1.1619,-1.1619,-1.1619,-1.1619,-1.1619,-1.1619,-1.1619,-1.1619,-1.1619,-1.1619,-1.1619,-1.1619,-1.1619,0.0,0.0,0.0,0.0,0.7448,0.0,0.0,0.0,0.4428,0.0,0.4092,0.3288,0.1881,0.1747,0.1143,-0.0269,-0.0067,0.0067,0.0,0.0,0.0,0.0,-0.0337,-0.0471,-0.0471,0.0,0.0,0.0,0.0,0.0,-0.2222,0.0,0.0,0.0,-0.2222,0.0,-0.2222,-0.2222,-0.2222,-0.2222,-0.2222,-0.2222,-0.2222,-0.2222,-0.2222,-0.2222,-0.2222,-0.2222,-0.2222,-0.2222,-0.2222,-0.2222,-0.2222,-0.2222,-0.2155,-0.175,-0.2825,-0.4099,-0.3762,-0.4897,-0.6099,-0.5835,-0.5769,-0.6168,-0.7564,0.0,-0.84,0.0,0.0,0.0,0.0,0.0,-1.1537,-1.1616,-1.1619,-1.1619,0.0,0.0,0.0,0.0,0.0,0.0,0.0,-1.1619,-1.1619,-1.1619,-1.1619,0.0,0.0,-1.1619,-1.1619,-1.1619,-1.1619,-1.1619,-1.1619,-1.1619,-1.1619,-1.1619,-1.1548,-1.1472,-1.1472,-1.1472,-1.1472,-1.1472,-1.1548,-1.1619,-1.1619,-1.1619,-1.1619,-1.1619,-1.1619,-1.1619,-1.1619,-1.1619,-1.1619,-1.1619,0.8587,0.8587,0.8587,0.0,0.8318,0.8051,0.0,0.0,0.0,0.0,0.4897,0.4025,0.3624,0.3624,0.3022,0.1546,0.1479,0.0,0.0,0.0,0.0,0.0,-0.0067,-0.0269,-0.0471,-0.101,0.0,-0.1616,0.0,0.0,-0.2222,0.0,0.0,0.0,0.0,0.0,-0.2222,-0.2222,-0.2222,-0.2222,-0.2222,-0.2222,-0.2222,0.0,-0.2222,-0.2222,-0.2222,-0.2222,-0.2222,-0.2222,-0.2222,-0.2222,-0.2222,-0.2222,-0.2155,-0.2087,-0.2154,-0.2288,-0.222,-0.2488,-0.3024,-0.3692,-0.4095,-0.4631,-0.5832,-0.69,-0.7799,-0.8319,0.0,0.0,0.0,-1.1002,-1.1203,0.0,0.0,0.0,0.0,0.0,0.0,-1.1619,0.0,0.0,0.0,-1.1619,-1.1619,-1.1619,-1.1619,0.0,-1.1619,0.0,-1.1619,-1.1619,-1.1619,-1.1619,-1.1619,-1.1619,-1.1619,-1.1619,-1.0452,-0.987,-0.987,-0.987,-0.987,-0.9942,-1.1109,-1.1619,-1.1619,-1.1619,-1.1619,-1.1619,-1.1619,-1.1619,-1.1619,-1.1619,-1.1619,-1.1619,0.8587,0.0,0.0,0.8587,0.0,0.0,0.8587,0.7915,0.0,0.7381,0.6642,0.0,0.53,0.5233,0.4631,0.3156,0.3089,0.0,0.1009,0.0,0.0,0.0,0.0,-0.0067,-0.0269,-0.0673,0.0,-0.1414,0.0,0.0,-0.2222,0.0,0.0,0.0,0.0,-0.2222,0.0,-0.2222,-0.2222,-0.2222,-0.2222,-0.2222,0.0,-0.2222,-0.2222,-0.2222,-0.2222,-0.2222,-0.2222,-0.2222,-0.2087,-0.1953,-0.2155,-0.1953,-0.175,-0.175,-0.1548,-0.1346,-0.1144,-0.1279,-0.1481,-0.1882,-0.2218,-0.2687,-0.3958,-0.4827,-0.5575,-0.6294,-0.7764,-0.9004,-0.9215,-1.018,0.0,0.0,0.0,0.0,0.0,0.0,0.0,0.0,-1.1619,0.0,0.0,-1.1619,-1.1619,-1.1619,-1.1619,0.0,0.0,0.0,-1.1619,-1.1619,-1.1619,-1.1619,-1.1619,-1.1619,-1.1253,-1.0599,-1.038,-0.9942,-0.9291,-1.0017,-1.0308,-1.038,-1.1253,-1.1619,-1.1619,-1.1619,-1.1619,-1.1619,-1.1619,-1.1619,-1.1619,-1.1619,-1.1619,-1.1619,0.8587,0.0,0.0,0.0,0.0,0.0,0.0,0.8587,0.0,0.8587,0.0,0.8117,0.6844,0.6711,0.6105,0.4696,0.0,0.3959,0.2486,0.2218,0.1546,0.0336,0.0067,0.0,0.0,-0.0337,-0.0673,0.0,0.0,0.0,0.0,0.0,0.0,0.0,0.0,0.0,0.0,-0.2222,-0.2222,-0.2222,-0.2222,-0.2222,-0.2222,-0.2222,-0.2222,-0.2222,-0.2155,-0.2155,-0.2222,-0.2155,-0.1885,-0.1683,-0.1953,-0.1616,-0.1077,-0.1077,-0.1077,-0.0942,-0.0606,-0.074,-0.0942,-0.0538,-0.0471,-0.0807,-0.2082,-0.2484,-0.2953,-0.4223,-0.5955,-0.7238,-0.7188,-0.9168,0.0,0.0,0.0,0.0,0.0,0.0,0.0,0.0,0.0,0.0,0.0,0.0,0.0,0.0,0.0,0.0,0.0,0.0,-1.1619,-1.1619,-1.14,-1.14,-1.1619,-1.1181,-1.0452,-0.9291,-1.0452,-1.0308,-0.9072,-1.0599,-1.1329,-1.1329,-1.1476,-1.1619,-1.1619,-1.1619,-1.1548,-1.1548,-1.1548,-1.1472,-1.1472,-1.1472,-1.1472,-1.1472,0.0,0.0,0.0,0.0,0.0,0.8587,0.8587,0.8587,0.8587,0.8587,0.8587,0.852,0.8251,0.8184,0.7648,0.6174,0.604,0.0,0.0,0.0,0.0,0.1748,0.0606,0.0,0.0,-0.0337,-0.0538,0.0,0.0,0.0,0.0,0.0,0.0,0.0,0.0,0.0,-0.2222,-0.2222,0.0,-0.2222,-0.2222,-0.2222,-0.2222,-0.2222,-0.2222,-0.2155,-0.1818,-0.1885,-0.2155,-0.1818,-0.1683,-0.1548,-0.1346,-0.1212,-0.1077,-0.1077,-0.0875,-0.0606,-0.0538,-0.0538,-0.0538,-0.0202,-0.0269,-0.0471,-0.0471,-0.1345,-0.2285,-0.2553,-0.3833,-0.5336,-0.6902,-0.8959,-1.0593,0.0,0.0,0.0,0.0,0.0,0.0,0.0,0.0,-1.1619,0.0,0.0,0.0,0.0,0.0,0.0,0.0,0.0,-1.1619,0.0,-1.038,-1.0308,-1.1619,-0.9072,-0.8275,-0.9291,-0.8273,-0.7693,-0.7476,-0.9,-0.9726,-0.9798,-1.1038,-1.1619,-1.1619,-1.1619,-1.1404,-1.1116,-1.1116,-1.0966,-1.0671,-1.0671,-1.0671,-1.0746,0.0,0.0,0.0,0.0,0.0,0.0,0.0,0.8587,0.8587,0.8587,0.8587,0.8587,0.8587,0.8587,0.832,0.7581,0.7514,0.6909,0.5501,0.4698,0.3694,0.2151,0.1479,0.074,0.0,-0.0135,-0.0337,-0.0471,0.0,0.0,-0.1616,0.0,0.0,0.0,0.0,-0.2222,0.0,0.0,-0.1885,-0.1885,-0.1683,-0.1616,-0.1616,-0.1616,-0.1616,-0.1616,-0.1414,-0.1481,-0.1616,-0.1414,-0.1212,-0.101,-0.1077,-0.0808,-0.0538,-0.074,-0.0538,-0.0269,-0.0269,-0.0269,-0.0202,-0.0067,-0.0135,-0.0202,-0.0067,-0.0538,-0.1009,-0.1009,-0.215,-0.3775,-0.5735,-0.7719,-0.92,-0.9467,0.0,0.0,0.0,0.0,0.0,0.0,0.0,0.0,0.0,0.0,0.0,0.0,0.0,0.0,0.0,0.0,-1.1619,0.0,0.0,-0.9654,-1.038,-0.8129,-0.697,-0.6902,-0.7767,-0.7765,-0.7112,-0.9435,-1.0455,-1.0524,-1.1257,-1.1476,-1.126,-1.1109,-1.0894,-1.075,-1.075,-1.0675,-1.0527,-1.0527,-1.0383,-1.0239,0.0,0.8587,0.0,0.0,0.8587,0.8587,0.8587,0.8587,0.8587,0.8587,0.8587,0.8587,0.8587,0.8587,0.8587,0.8587,0.8587,0.8117,0.6911,0.6577,0.5369,0.309,0.2419,0.1614,0.0471,0.0135,-0.0135,0.0,0.0,0.0,-0.1474,0.0,0.0,0.0,0.0,0.0,0.0,-0.1616,-0.1481,-0.1481,-0.1212,-0.1077,-0.1077,-0.1077,-0.1077,-0.1077,-0.101,-0.0942,-0.0942,-0.0875,-0.0673,-0.0538,-0.0808,-0.0471,-0.0067,-0.0337,-0.0202,0.0,0.0,0.0,0.0,0.0,0.0,0.0,0.0,0.0,0.0,0.0,-0.1143,-0.2632,-0.4302,-0.6073,-0.7467,-0.7992,0.0,0.0,0.0,0.0,0.0,0.0,0.0,0.0,-1.1476,0.0,0.0,0.0,0.0,0.0,-1.1619,0.0,0.0,0.0,-0.9798,-0.9,-0.9291,-0.7478,-0.6031,-0.5236,-0.7986,-0.8636,-0.7548,-1.0308,-1.1548,-1.1476,-1.1476,-1.1257,-1.0897,-1.0603,-1.0455,-1.0383,-1.0383,-1.0311,-1.0239,-1.0239,-1.0023,-0.9807,0.0,0.0,0.0,0.0,0.0,0.8587,0.8587,0.8587,0.8587,0.8587,0.8587,0.8587,0.8587,0.8587,0.8587,0.8587,0.8587,0.852,0.8387,0.7111,0.6307,0.604,0.3492,0.2017,0.1882,0.0673,0.0,0.0,0.0,-0.0669,-0.1057,-0.1405,0.0,0.0,-0.1683,-0.1481,-0.1212,-0.1144,-0.1144,-0.1144,-0.1144,-0.1077,-0.1077,-0.1077,-0.1077,-0.1077,-0.0673,-0.0538,-0.0538,-0.0202,-0.0269,-0.0471,-0.0202,-0.0067,0.0,-0.0067,0.0,0.0,0.0,0.0,0.0,0.0,0.0,0.0,0.0,0.0,0.0,0.0,-0.1143,-0.2294,-0.3009,-0.4046,-0.5512,-0.7608,-0.7843,0.0,0.0,0.0,-1.0967,-1.1028,0.0,0.0,0.0,-1.1404,0.0,0.0,-1.1404,0.0,0.0,0.0,0.0,-1.1619,-0.8781,-0.791,-0.9291,-0.6395,-0.5525,-0.6825,-0.8492,-0.9219,-0.9144,-1.0818,-1.1404,-1.1044,-1.1044,-1.0894,-1.0527,-1.0527,-1.0311,-0.9951,-0.9951,-0.9735,-0.9449,-0.9449,-0.9377,-0.9377,0.0,0.0,0.0,0.0,0.0,0.0,0.0,0.8587,0.8587,0.8587,0.8587,0.8587,0.8587,0.8587,0.8587,0.8587,0.8587,0.8587,0.8587,0.8051,0.7314,0.6443,0.5302,0.3895,0.2151,0.1546,0.0874,0.0,0.0,0.0,0.0,-0.0873,-0.1077,-0.1279,-0.1279,-0.1212,-0.1077,-0.0875,-0.074,-0.074,-0.0538,-0.0471,-0.0471,-0.0471,-0.0471,-0.0404,-0.0269,-0.0202,-0.0202,-0.0067,-0.0067,-0.0202,-0.0067,0.0,0.0,0.0,0.0,0.0,0.0,0.0,0.0,0.0,0.0,0.0,0.0,0.0,0.0,0.0,-0.0471,-0.0876,-0.1151,-0.2454,-0.3776,-0.4417,-0.5421,0.0,0.0,0.0,0.0,-1.0327,0.0,0.0,0.0,0.0,0.0,0.0,0.0,0.0,0.0,-1.1619,-1.1619,-1.1619,0.0,-0.7767,-0.9291,-0.625,-0.502,-0.567,-0.7842,-0.8422,-0.7623,-0.9873,-1.0818,-1.0675,-1.0458,-1.0242,-1.0095,-0.9879,-0.9663,-0.9518,-0.9518,-0.9449,-0.9304,-0.9304,-0.9304,-0.9157,0.8587,0.0,0.8587,0.0,0.8587,0.8587,0.8587,0.8587,0.8587,0.8587,0.8587,0.8587,0.8587,0.8587,0.8587,0.8587,0.8587,0.8587,0.8587,0.8587,0.8117,0.7111,0.6644,0.0,0.3425,0.2956,0.2016,0.0606,0.0606,0.0,-0.0535,-0.0602,-0.0737,-0.0942,-0.0942,-0.0875,-0.074,-0.0471,-0.0337,-0.0337,-0.0067,0.0,0.0,0.0,0.0,0.0,0.0,0.0,0.0,0.0,0.0,0.0,0.0,0.0,0.0,0.0,0.0,0.0,0.0,0.0,0.0,0.0,0.0,0.0,0.0,0.0,0.0,0.0,0.0,0.0,0.0,-0.1152,-0.2114,-0.2387,-0.3502,-0.4839,0.0,-0.5831,0.0,0.0,-0.8807,-0.8639,-0.9661,-1.0069,0.0,0.0,0.0,0.0,0.0,-1.0962,-1.0671,-1.0599,-0.7548,-0.6461,-0.7548,-0.5451,-0.4365,-0.4365,-0.6757,-0.7261,-0.6319,-0.8131,-0.893,-0.893,-0.9008,-0.908,-0.9008,-0.8721,-0.8649,-0.8649,-0.8649,-0.8357,-0.7996,-0.8432,-0.8357,-0.7776,0.8587,0.8587,0.8587,0.8587,0.8587,0.8587,0.8587,0.8587,0.8587,0.8587,0.8587,0.8587,0.8587,0.8587,0.8587,0.8587,0.8587,0.8587,0.8587,0.8587,0.8587,0.0,0.0,0.6376,0.6374,0.4964,0.3558,0.2084,0.0,0.1202,-0.0527,-0.0857,-0.0797,-0.0538,-0.0538,-0.0337,0.0,0.0,0.0,0.0,0.0,0.0,0.0,0.0,0.0,0.0,0.0,0.0,0.0,0.0,0.0,0.0,0.0,0.0,0.0,0.0,0.0,0.0,0.0,0.0,0.0,0.0,0.0,0.0,0.0,0.0,0.0,0.0,0.0,0.0,0.0,0.0,-0.0606,-0.2418,-0.2352,-0.2836,0.0,-0.5065,0.0,-0.7673,-0.8401,-0.8464,-0.7969,-0.8422,0.0,0.0,0.0,0.0,0.0,-0.9579,-0.8559,-0.8129,-0.5158,-0.3563,-0.3562,-0.3563,-0.3491,-0.3563,-0.5085,-0.581,-0.581,-0.5451,-0.5233,-0.5306,-0.6541,-0.7053,-0.7053,-0.7053,-0.7053,-0.7053,-0.7053,-0.6108,-0.4947,-0.6471,-0.6036,-0.4731,0.8473,0.8532,0.8587,0.8587,0.8587,0.8587,0.8587,0.8587,0.8587,0.8587,0.8587,0.8587,0.8587,0.8587,0.8587,0.0,0.8587,0.8587,0.0,0.8587,0.8587,0.8587,0.8117,0.7448,0.6443,0.5971,0.5033,0.3624,0.2621,0.1342,-0.0134,-0.0267,-0.0268,-0.0135,-0.0135,-0.0067,0.0,0.0,0.0,0.0,0.0,0.0,0.0,0.0,0.0,0.0,0.0,0.0,0.0,0.0,0.0,0.0,0.0,0.0,0.0,0.0,0.0,0.0,0.0,0.0,0.0,0.0,0.0,0.0,0.0,0.0,0.0,0.0,0.0,0.0,0.0,0.0,-0.0202,-0.074,-0.074,-0.1212,-0.277,0.0,-0.2581,-0.5299,-0.4844,-0.4735,-0.5621,-0.6067,0.0,0.0,0.0,0.0,-0.7474,-0.6968,-0.6677,-0.6534,-0.4577,-0.3998,-0.5085,-0.3998,-0.3491,-0.3491,-0.4796,-0.5306,-0.5018,-0.4946,-0.4873,-0.4875,-0.5238,-0.5456,-0.5456,-0.5456,-0.5456,-0.5456,-0.5456,-0.5165,-0.4729,-0.5238,-0.5093,-0.4511,0.835,0.8407,0.847,0.8516,0.8524,0.8538,0.8581,0.8587,0.8587,0.8587,0.8587,0.8587,0.8587,0.8587,0.8587,0.8587,0.8587,0.8587,0.8587,0.8587,0.8587,0.8587,0.8587,0.8184,0.7245,0.7245,0.6508,0.5098,0.309,0.1681,0.0807,0.0269,0.0,0.0,0.0,0.0,0.0,0.0,0.0,0.0,0.0,0.0,0.0,0.0,0.0,0.0,0.0,0.0,0.0,0.0,0.0,0.0,0.0,0.0,0.0,0.0,0.0,0.0,0.0,0.0,0.0,0.0,0.0,0.0,0.0,0.0,0.0,0.0,0.0,0.0,0.0,0.0,0.0,0.0,0.0,-0.0337,-0.1211,-0.0538,-0.0945,-0.3532,-0.3075,-0.289,-0.3883,-0.4182,-0.4418,0.0,0.0,0.0,-0.3652,-0.4843,-0.523,-0.4505,-0.2982,-0.2619,-0.3635,-0.2692,-0.2184,-0.2184,-0.2911,-0.3129,-0.2913,-0.2913,-0.2913,-0.2986,-0.3567,-0.3785,-0.3785,-0.3785,-0.3785,-0.3785,-0.3785,-0.3421,-0.2986,-0.3567,-0.3421,-0.2767,0.8223,0.8167,0.8207,0.8386,0.8405,0.844,0.8546,0.8562,0.8562,0.8562,0.8562,0.8562,0.8562,0.8571,0.8576,0.8576,0.8584,0.8587,0.8587,0.8587,0.8587,0.8587,0.8587,0.8587,0.8587,0.8587,0.7851,0.6376,0.3694,0.2286,0.2084,0.0874,0.0269,0.0135,0.0135,0.0135,0.0134,0.0066,0.0,0.0,0.0,0.0,0.0,0.0,0.0,0.0,0.0,0.0,0.0,0.0,0.0,0.0,0.0,0.0,0.0,0.0,0.0,0.0,0.0,0.0,0.0,0.0,0.0,0.0,0.0,0.0,0.0,0.0,0.0,0.0,0.0,0.0,0.0,0.0,0.0,0.0,0.0,0.0,-0.0605,-0.2283,-0.2649,-0.267,-0.2533,-0.2632,-0.2026,-0.028,0.0,0.0,-0.014,-0.3222,-0.4134,-0.2178,-0.0727,0.0,0.0,0.0,0.0,0.0,0.0,0.0,0.0,0.0,0.0,-0.0073,-0.153,-0.2111,-0.2111,-0.2111,-0.2111,-0.2111,-0.2111,-0.1239,-0.0146,-0.1602,-0.1239,0.0,0.8098,0.8171,0.818,0.8274,0.828,0.8288,0.8315,0.8318,0.8318,0.8318,0.8318,0.8318,0.8318,0.8402,0.8456,0.8456,0.8538,0.8587,0.8587,0.8587,0.8587,0.8587,0.8587,0.8587,0.8587,0.8587,0.7851,0.6376,0.5705,0.423,0.2084,0.2887,0.2686,0.1614,0.1614,0.1604,0.1521,0.0462,0.0,0.0,0.0,0.0,0.0,0.0,0.0,0.0,0.0,0.0,0.0,0.0,0.0,0.0,0.0,0.0,0.0,0.0,0.0,0.0,0.0,0.0,0.0,0.0,0.0,0.0,0.0,0.0,0.0,0.0,0.0,0.0,0.0,0.0,0.0,0.0,0.0,0.0,0.0,0.0,-0.0135,-0.0605,-0.0675,-0.0676,-0.0676,-0.0678,-0.0955,-0.1723,0.0,-0.1732,-0.1749,-0.2533,-0.226,-0.0566,-0.0212,0.0,0.0,0.0,0.0,0.0,0.0,0.0,0.0,0.0,0.0,0.0,-0.0365,-0.051,-0.051,-0.051,-0.051,-0.051,-0.051,-0.0292,-0.0073,-0.0438,-0.0292,0.0,0.8155,0.8398,0.8589,0.8207,0.8152,0.8171,0.8225,0.8172,0.8172,0.8172,0.8172,0.8172,0.8172,0.8293,0.8334,0.8334,0.8489,0.8587,0.8587,0.8587,0.8587,0.8587,0.8587,0.8587,0.8587,0.8587,0.8184,0.7381,0.6711,0.5571,0.4096,0.4227,0.3813,0.2995,0.2995,0.2971,0.2865,0.1489,0.09,0.0892,0.0251,0.0,0.0,0.0,0.0,0.0,0.0,0.0,0.0,0.0,0.0,0.0,0.0,0.0,0.0,0.0,0.0,0.0,0.0,0.0,0.0,0.0,0.0,0.0,0.0,0.0,0.0,0.0,0.0,0.0,0.0,0.0,0.0,0.0,0.0,0.0,0.0,0.0,0.0,0.0,0.0,0.0,0.0,0.0,-0.0337,-0.1156,-0.1224,-0.1228,-0.1237,-0.1237,-0.0899,0.0,0.0,0.0,0.0,0.0,0.0,0.0,0.0,0.0,0.0,0.0,0.0,0.0,0.0,0.0,0.0,0.0,0.0,0.0,0.0,0.0,0.0,0.0,0.0,0.0,0.848,0.8726,0.9068,0.8194,0.8089,0.806,0.8163,0.8179,0.8179,0.8179,0.8179,0.8179,0.8179,0.8195,0.8206,0.8206,0.8407,0.8532,0.8532,0.8552,0.8562,0.8562,0.8579,0.8587,0.8587,0.8587,0.8587,0.8587,0.7312,0.6644,0.6376,0.5355,0.4719,0.4405,0.4395,0.4356,0.4163,0.2848,0.2264,0.2194,0.0868,0.0309,0.0309,0.0062,0.0,0.0,0.0,0.0,0.0,0.0,0.0,0.0,0.0,0.0,0.0,0.0,0.0,0.0,0.0,0.0,0.0,0.0,0.0,0.0,0.0,0.0,0.0,0.0,0.0,0.0,0.0,0.0,0.0,0.0,0.0,0.0,0.0,0.0,0.0,0.0,0.0,0.0,0.0,0.0,0.0,0.0,0.0,0.0,0.0,0.0,0.0,0.0,0.0,0.0,0.0,0.0,0.0,0.0,0.0,0.0,0.0,0.0,0.0,0.0,0.0,0.0,0.0,0.0,0.0,0.0,0.0,0.0,0.0,0.0,0.0,0.0,0.9335,0.9214,0.9037,0.808,0.796,0.7907,0.7924,0.7926,0.7926,0.7926,0.7926,0.7926,0.7926,0.8019,0.8144,0.8144,0.8209,0.8291,0.8291,0.8388,0.8446,0.8446,0.8535,0.8587,0.8587,0.8587,0.8587,0.8587,0.8387,0.7648,0.6441,0.736,0.7114,0.5975,0.5837,0.5757,0.5676,0.4219,0.3623,0.3518,0.2221,0.1665,0.1542,0.0432,0.0,0.0,0.0,0.0,0.0,0.0,0.0,0.0,0.0,0.0,0.0,0.0,0.0,0.0,0.0,0.0,0.0,0.0,0.0,0.0,0.0,0.0,0.0,0.0,0.0,0.0,0.0,0.0,0.0,0.0,0.0,0.0,0.0,0.0,0.0,0.0,0.0,0.0,0.0,0.0,0.0,0.0,0.0,0.0,0.0,0.0,0.0,0.0,0.0,0.0,0.0,0.0,0.0,0.0,0.0,0.0,0.0,0.0,0.0,0.0,0.0,0.0,0.0,0.0,0.0,0.0,0.0,0.0,0.0,0.0,0.0,0.0,1.0425,1.0122,0.9819,0.8845,0.8238,0.7872,0.7872,0.7872,0.7872,0.7872,0.7872,0.7872,0.7872,0.7982,0.8018,0.8018,0.8008,0.8038,0.8038,0.8214,0.832,0.832,0.8435,0.8524,0.8587,0.8587,0.8587,0.8587,0.8527,0.8165,0.75,0.8047,0.7894,0.7252,0.7202,0.712,0.6955,0.5594,0.4954,0.486,0.357,0.2588,0.1911,0.1295,0.0617,0.0,0.0,0.0,0.0,0.0,0.0,0.0,0.0,0.0,0.0,0.0,0.0,0.0,0.0,0.0,0.0,0.0,0.0,0.0,0.0,0.0,0.0,0.0,0.0,0.0,0.0,0.0,0.0,0.0,0.0,0.0,0.0,0.0,0.0,0.0,0.0,0.0,0.0,0.0,0.0,0.0,0.0,0.0,0.0,0.0,0.0,0.0,0.0,0.0,0.0,0.0,0.0,0.0,0.0,0.0,0.0,0.0,0.0,0.0,0.0,0.0,0.0,0.0,0.0,0.0,0.0,0.0,0.0,0.0,0.0,0.0,1.1454,1.1152,1.0728,0.9518,0.8726,0.8175,0.7933,0.7872,0.7872,0.7872,0.7872,0.7872,0.7872,0.7872,0.7872,0.7872,0.7872,0.7872,0.7872,0.8073,0.8193,0.8193,0.8337,0.8473,0.8584,0.8587,0.8587,0.8587,0.8473,0.8418,0.8416,0.8263,0.8144,0.8114,0.8086,0.8021,0.7811,0.6827,0.6335,0.6274,0.492,0.357,0.2403,0.2096,0.1172,0.0,0.0,0.0,0.0,0.0,0.0,0.0,0.0,0.0,0.0,0.0,0.0,0.0,0.0,0.0,0.0,0.0,0.0,0.0,0.0,0.0,0.0,0.0,0.0,0.0,0.0,0.0,0.0,0.0,0.0,0.0,0.0,0.0,0.0,0.0,0.0,0.0,0.0,0.0,0.0,0.0,0.0,0.0,0.0,0.0,0.0,0.0,0.0,0.0,0.0,0.0,0.0,0.0,0.0,0.0,0.0,0.0,0.0,0.0,0.0,0.0,0.0,0.0,0.0,0.0,0.0,0.0,0.0,0.0,0.0,0.0,1.2298,1.2113,1.1511,0.964,0.9214,0.8909,0.8055,0.7872,0.7872,0.7872,0.7872,0.7872,0.7872,0.7872,0.7872,0.7872,0.7872,0.7872,0.7872,0.8056,0.813,0.813,0.8293,0.8473,0.8584,0.8587,0.8587,0.8587,0.8473,0.8418,0.8413,0.8176,0.8125,0.8111,0.7996,0.788,0.7872,0.7808,0.7747,0.7625,0.6274,0.4921,0.363,0.2465,0.1172,0.0,0.0,0.0,0.0,0.0,0.0,0.0,0.0,0.0,0.0,0.0,0.0,0.0,0.0,0.0,0.0,0.0,0.0,0.0,0.0,0.0,0.0,0.0,0.0,0.0,0.0,0.0,0.0,0.0,0.0,0.0,0.0,0.0,0.0,0.0,0.0,0.0,0.0,0.0,0.0,0.0,0.0,0.0,0.0,0.0,0.0,0.0,0.0,0.0,0.0,0.0,0.0,0.0,0.0,0.0,0.0,0.0,0.0,0.0,0.0,0.0,0.0,0.0,0.0,0.0,0.0,0.0,0.0,0.0,0.0,0.0,1.3204,1.2659,1.1752,1.0486,0.97,0.897,0.8055,0.7872,0.7872,0.7872,0.7872,0.7872,0.7872,0.7999,0.8048,0.8048,0.8054,0.8098,0.8098,0.8141,0.8201,0.8277,0.8369,0.8473,0.8584,0.8587,0.8587,0.8587,0.8473,0.8418,0.8413,0.8168,0.8117,0.8111,0.7988,0.7872,0.7872,0.7872,0.7872,0.7869,0.7319,0.6335,0.5105,0.4616,0.308,0.1234,0.1234,0.0683,0.0,0.0,0.0,0.0,0.0,0.0,0.0,0.0,0.0,0.0,0.0,0.0,0.0,0.0,0.0,0.0,0.0,0.0,0.0,0.0,0.0,0.0,0.0,0.0,0.0,0.0,0.0,0.0,0.0,0.0,0.0,0.0,0.0,0.0,0.0,0.0,0.0,0.0,0.0,0.0,0.0,0.0,0.0,0.0,0.0,0.0,0.0,0.0,0.0,0.0,0.0,0.0,0.0,0.0,0.0,0.0,0.0,0.0,0.0,0.0,0.0,0.0,0.0,0.0,0.0,0.0,0.0,0.0,1.3688,1.3144,1.2359,1.1394,1.0668,0.9876,0.8967,0.8573,0.8415,0.8415,0.8144,0.7986,0.7986,0.806,0.8111,0.8111,0.8187,0.8172,0.8172,0.8207,0.8331,0.8413,0.8418,0.8473,0.8584,0.8587,0.8587,0.8587,0.8473,0.8418,0.8413,0.8209,0.8111,0.8106,0.8021,0.7986,0.7986,0.7986,0.7986,0.7986,0.7986,0.7175,0.6052,0.6052,0.437,0.2001,0.2001,0.1134,0.0,0.0,0.0,0.0,0.0,0.0,0.0,0.0,0.0,0.0,0.0,0.0,0.0,0.0,0.0,0.0,0.0,0.0,0.0,0.0,0.0,0.0,0.0,0.0,0.0,0.0,0.0,0.0,0.0,0.0,0.0,0.0,0.0,0.0,0.0,0.0,0.0,0.0,0.0,0.0,0.0,0.0,0.0,0.0,0.0,0.0,0.0,0.0,0.0,0.0,0.0,0.0,0.0,0.0,0.0,0.0,0.0,0.0,0.0,0.0,0.0,0.0,0.0,0.0,0.0,0.0,0.0,0.0,1.3688,1.3688,1.3384,1.2354,1.2178,1.1877,1.097,1.0064,0.9539,0.9476,0.8724,0.8236,0.8172,0.8172,0.8172,0.8172,0.8175,0.8175,0.8175,0.8353,0.8418,0.8418,0.8418,0.8473,0.8584,0.8587,0.8587,0.8587,0.8475,0.8418,0.8416,0.8293,0.8172,0.8172,0.8172,0.8172,0.8172,0.8172,0.8172,0.8172,0.8172,0.7459,0.63,0.63,0.4565,0.2125,0.2125,0.1225,0.0,0.0,0.0,0.0,0.0,0.0,0.0,0.0,0.0,0.0,0.0,0.0,0.0,0.0,0.0,0.0,0.0,0.0,0.0,0.0,0.0,0.0,0.0,0.0,0.0,0.0,0.0,0.0,0.0,0.0,0.0,0.0,0.0,0.0,0.0,0.0,0.0,0.0,0.0,0.0,0.0,0.0,0.0,0.0,0.0,0.0,0.0,0.0,0.0,0.0,0.0,0.0,0.0,0.0,0.0,0.0,0.0,0.0,0.0,0.0,0.0,0.0,0.0,0.0,0.0,0.0,0.0,0.0,1.3688,1.3688,1.3384,1.2354,1.234,1.2118,1.1137,1.0908,1.0573,0.9816,0.9478,0.906,0.8297,0.8312,0.8364,0.8364,0.8437,0.8481,0.8481,0.8516,0.8535,0.8535,0.8535,0.8552,0.8587,0.8587,0.8587,0.8587,0.8554,0.8535,0.8532,0.8418,0.8364,0.8361,0.8274,0.8172,0.8172,0.8172,0.8172,0.8172,0.8172,0.7975,0.7653,0.7653,0.6558,0.5078,0.5078,0.3497,0.1505,0.1505,0.0793,0.0,0.0,0.0,0.0,0.0,0.0,0.0,0.0,0.0,0.0,0.0,0.0,0.0,0.0,0.0,0.0,0.0,0.0,0.0,0.0,0.0,0.0,0.0,0.0,0.0,0.0,0.0,0.0,0.0,0.0,0.0,0.0,0.0,0.0,0.0,0.0,0.0,0.0,0.0,0.0,0.0,0.0,0.0,0.0,0.0,0.0,0.0,0.0,0.0,0.0,0.0,0.0,0.0,0.0,0.0,0.0,0.0,0.0,0.0,0.0,0.0,0.0,0.0,0.0,0.0,1.3802,1.3816,1.3658,1.3118,1.3102,1.2995,1.2432,1.215,1.1633,1.0611,1.0144,0.9537,0.8505,0.844,0.8484,0.8484,0.8549,0.8587,0.8587,0.8587,0.8587,0.8587,0.8587,0.8587,0.8587,0.8587,0.8587,0.8587,0.8587,0.8587,0.8587,0.8516,0.8484,0.8481,0.8407,0.8375,0.8375,0.8375,0.8375,0.8375,0.8375,0.8375,0.8375,0.8375,0.7522,0.6343,0.6343,0.4866,0.2984,0.2984,0.2002,0.074,0.0202,0.0,0.0,0.0,0.0,0.0,0.0,0.0,0.0,0.0,0.0,0.0,0.0,0.0,0.0,0.0,0.0,0.0,0.0,0.0,0.0,0.0,0.0,0.0,0.0,0.0,0.0,0.0,0.0,0.0,0.0,0.0,0.0,0.0,0.0,0.0,0.0,0.0,0.0,0.0,0.0,0.0,0.0,0.0,0.0,0.0,0.0,0.0,0.0,0.0,0.0,0.0,0.0,0.0,0.0,0.0,0.0,0.0,0.0,0.0,0.0,0.0,0.0,0.0,1.3996,1.4038,1.4095,1.4279,1.4326,1.434,1.434,1.3684,1.2778,1.1675,1.0819,0.9911,0.872,0.8587,0.8587,0.8587,0.8587,0.8587,0.8587,0.8587,0.8587,0.8587,0.8587,0.8587,0.8587,0.8587,0.8587,0.8587,0.8587,0.8587,0.8587,0.8587,0.8587,0.8587,0.8587,0.8587,0.8587,0.8587,0.8587,0.8587,0.8587,0.8587,0.8587,0.8587,0.7784,0.6577,0.6577,0.5704,0.4494,0.4361,0.3424,0.2083,0.0807,0.0404,0.0404,0.0404,0.0269,0.0202,0.0202,0.0067,0.0,0.0,0.0,0.0,0.0,0.0,0.0,0.0,0.0,0.0,0.0,0.0,0.0,0.0,0.0,0.0,0.0,0.0,0.0,0.0,0.0,0.0,0.0,0.0,0.0,0.0,0.0,0.0,0.0,0.0,0.0,0.0,0.0,0.0,0.0,0.0,0.0,0.0,0.0,0.0,0.0,0.0,0.0,0.0,0.0,0.0,0.0,0.0,0.0,0.0,0.0,0.0,0.0,0.0,0.0,0.0,1.4328,1.4246,1.426,1.4303,1.4449,1.4499,1.4499,1.4539,1.3813,1.1972,1.1541,1.0704,0.8787,0.8587,0.8587,0.8587,0.8587,0.8587,0.8587,0.8587,0.8587,0.8587,0.8587,0.8587,0.8587,0.8587,0.8587,0.8587,0.8587,0.8587,0.8587,0.8587,0.8587,0.8587,0.8587,0.8587,0.8587,0.8587,0.8587,0.8587,0.8587,0.8587,0.8587,0.8587,0.8387,0.8117,0.8117,0.7178,0.577,0.4696,0.4093,0.3758,0.349,0.3356,0.3356,0.3356,0.2553,0.1614,0.1614,0.0807,0.0,0.0,0.0,0.0,0.0,0.0,0.0,0.0,0.0,0.0,0.0,0.0,0.0,0.0,0.0,0.0,0.0,0.0,0.0,0.0,0.0,0.0,0.0,0.0,0.0,0.0,0.0,0.0,0.0,0.0,0.0,0.0,0.0,0.0,0.0,0.0,0.0,0.0,0.0,0.0,0.0,0.0,0.0,0.0,0.0,0.0,0.0,0.0,0.0,0.0,0.0,0.0,0.0,0.0,0.0,0.0,1.4988,1.4653,1.4496,1.4591,1.47,1.4711,1.4711,1.48,1.4338,1.275,1.2091,1.1167,0.9513,0.8917,0.8587,0.8587,0.8587,0.8587,0.8587,0.8587,0.8587,0.8587,0.8587,0.8587,0.8587,0.8587,0.8587,0.8587,0.8587,0.8587,0.8587,0.8587,0.8587,0.8587,0.8587,0.8587,0.8587,0.8587,0.8587,0.8587,0.8587,0.8587,0.8587,0.8587,0.8587,0.8587,0.8587,0.8117,0.7245,0.577,0.53,0.5166,0.4495,0.4293,0.4293,0.4293,0.3758,0.3156,0.3156,0.2083,0.1009,0.1009,0.0471,0.0,0.0,0.0,0.0,0.0,0.0,0.0,0.0,0.0,0.0,0.0,0.0,0.0,0.0,0.0,0.0,0.0,0.0,0.0,0.0,0.0,0.0,0.0,0.0,0.0,0.0,0.0,0.0,0.0,0.0,0.0,0.0,0.0,0.0,0.0,0.0,0.0,0.0,0.0,0.0,0.0,0.0,0.0,0.0,0.0,0.0,0.0,0.0,0.0,0.0,0.0,0.0,0.0,1.5724,1.5135,1.4673,1.4838,1.4866,1.4866,1.4866,1.4866,1.4534,1.3411,1.2553,1.163,1.0571,0.9513,0.8787,0.8587,0.8587,0.8587,0.8587,0.8587,0.8587,0.8587,0.8587,0.8587,0.8587,0.8587,0.8587,0.8587,0.8587,0.8587,0.8587,0.8587,0.8587,0.8587,0.8587,0.8587,0.8587,0.8587,0.8587,0.8587,0.8587,0.8587,0.8587,0.8587,0.8587,0.8587,0.8587,0.8587,0.8387,0.7181,0.6777,0.6577,0.5432,0.5031,0.5031,0.5031,0.4829,0.4629,0.4629,0.3558,0.2419,0.2151,0.1412,0.0605,0.0135,0.0,0.0,0.0,0.0,0.0,0.0,0.0,0.0,0.0,0.0,0.0,0.0,0.0,0.0,0.0,0.0,0.0,0.0,0.0,0.0,0.0,0.0,0.0,0.0,0.0,0.0,0.0,0.0,0.0,0.0,0.0,0.0,0.0,0.0,0.0,0.0,0.0,0.0,0.0,0.0,0.0,0.0,0.0,0.0,0.0,0.0,0.0,0.0,0.0,0.0,0.0,1.6012,1.5344,1.4903,1.4926,1.4866,1.4866,1.4866,1.4866,1.4534,1.3411,1.321,1.2684,1.1696,1.0638,0.9579,0.8653,0.8587,0.8587,0.8587,0.8587,0.8587,0.8587,0.8587,0.8587,0.8587,0.8587,0.8587,0.8587,0.8587,0.8587,0.8587,0.8587,0.8587,0.8587,0.8587,0.8587,0.8587,0.8587,0.8587,0.8587,0.8587,0.8587,0.8587,0.8587,0.8587,0.8587,0.8587,0.8587,0.8587,0.8387,0.832,0.8251,0.8051,0.8048,0.8048,0.8048,0.7111,0.6107,0.6107,0.5099,0.3691,0.2419,0.2887,0.3088,0.0538,0.0,0.0,0.0,0.0,0.0,0.0,0.0,0.0,0.0,0.0,0.0,0.0,0.0,0.0,0.0,0.0,0.0,0.0,0.0,0.0,0.0,0.0,0.0,0.0,0.0,0.0,0.0,0.0,0.0,0.0,0.0,0.0,0.0,0.0,0.0,0.0,0.0,0.0,0.0,0.0,0.0,0.0,0.0,0.0,0.0,0.0,0.0,0.0,0.0,0.0,0.0,1.7179,1.6553,1.5969,1.5583,1.5518,1.5388,1.4931,1.4866,1.4735,1.4272,1.3674,1.3144,1.2684,1.1167,0.9978,0.9513,0.892,0.8587,0.8587,0.8587,0.8587,0.8587,0.8587,0.8587,0.8587,0.8587,0.8587,0.8587,0.8587,0.8587,0.8587,0.8587,0.8587,0.8587,0.8587,0.8587,0.8587,0.8587,0.8587,0.8587,0.8587,0.8587,0.8587,0.8587,0.8587,0.8587,0.8587,0.8587,0.8587,0.8587,0.8587,0.8587,0.8587,0.8587,0.8587,0.8587,0.8117,0.7648,0.7648,0.6575,0.53,0.4632,0.443,0.3758,0.1681,0.1143,0.0942,0.0135,0.0,0.0,0.0,0.0,0.0,0.0,0.0,0.0,0.0,0.0,0.0,0.0,0.0,0.0,0.0,0.0,0.0,0.0,0.0,0.0,0.0,0.0,0.0,0.0,0.0,0.0,0.0,0.0,0.0,0.0,0.0,0.0,0.0,0.0,0.0,0.0,0.0,0.0,0.0,0.0,0.0,0.0,0.0,0.0,0.0,0.0,0.0,0.0]}]]